[[{"header":{"parameterUnit":"m.s-1","parameterCategory":1,"la1":30.6,"la2":29.2853,"lo1":-89.7004,"lo2":-87.6739,"dy":0.0162,"dx":0.0183,"nx":112,"ny":82,"refTime":"2023-10-21T18:00:00:Z","depth":0,"parameterNumber":2,"parameterNumberName":"U-component_of_WINDS"},"data":[0.0,0.0,0.0,0.0,0.0,0.0,0.0,0.0,0.0,0.0,0.0,0.0,0.0,0.0,0.0,0.0,0.0,0.0,0.0,0.0,0.0,0.0,0.0,0.0,0.0,0.0,0.0,0.0,0.0,0.0,0.0,0.0,0.0,0.0,0.0,0.0,0.0,0.0,0.0,0.0,0.0,0.0,0.0,0.0,0.0,0.0,0.0,0.0,0.0,0.0,0.0,0.0,0.0,0.0,0.0,0.0,0.0,0.0,0.0,0.0,0.0,0.0,0.0,0.0,0.0,0.0,0.0,0.0,0.0,0.0,0.0,0.0,0.0,0.0,0.0,0.0,0.0,0.0,0.0,0.0,0.0,0.0,0.0,0.0,0.0,0.0,0.0,0.0,0.0,0.0,0.0,-3.8882,-4.307,-4.5636,-4.5714,-4.5938,-4.2686,-3.4811,0.0,0.0,0.0,0.0,0.0,0.0,0.0,0.0,0.0,0.0,0.0,0.0,0.0,0.0,0.0,0.0,0.0,0.0,0.0,0.0,0.0,0.0,0.0,0.0,0.0,0.0,0.0,0.0,0.0,0.0,0.0,0.0,0.0,0.0,0.0,0.0,0.0,0.0,0.0,0.0,0.0,0.0,0.0,0.0,0.0,0.0,0.0,0.0,0.0,0.0,0.0,0.0,0.0,0.0,0.0,0.0,0.0,0.0,0.0,0.0,0.0,0.0,0.0,0.0,0.0,0.0,0.0,0.0,0.0,0.0,0.0,0.0,0.0,0.0,0.0,0.0,0.0,0.0,0.0,0.0,0.0,0.0,0.0,0.0,0.0,0.0,0.0,0.0,0.0,0.0,0.0,0.0,0.0,0.0,0.0,0.0,0.0,0.0,0.0,0.0,0.0,0.0,0.0,0.0,-3.5882,-4.2901,-4.4316,-4.4944,-4.5324,-4.295,-3.9266,-3.4215,0.0,0.0,0.0,0.0,0.0,0.0,0.0,0.0,0.0,0.0,0.0,0.0,0.0,0.0,0.0,0.0,0.0,0.0,0.0,0.0,0.0,0.0,0.0,0.0,0.0,0.0,0.0,0.0,0.0,0.0,0.0,0.0,0.0,0.0,0.0,0.0,0.0,0.0,0.0,0.0,0.0,0.0,0.0,0.0,0.0,0.0,0.0,0.0,0.0,0.0,0.0,0.0,0.0,0.0,0.0,0.0,0.0,0.0,0.0,0.0,0.0,0.0,0.0,0.0,0.0,0.0,0.0,0.0,0.0,0.0,0.0,0.0,0.0,0.0,0.0,0.0,0.0,0.0,0.0,0.0,0.0,0.0,0.0,0.0,0.0,0.0,0.0,0.0,0.0,0.0,0.0,0.0,0.0,0.0,0.0,0.0,0.0,0.0,0.0,0.0,0.0,0.0,0.0,-3.4593,-3.7578,-4.3025,-4.3471,-4.3429,-4.368,-4.1502,-3.8077,-3.3232,-3.2619,0.0,0.0,0.0,0.0,0.0,0.0,0.0,0.0,0.0,0.0,0.0,0.0,0.0,0.0,0.0,0.0,0.0,0.0,0.0,0.0,0.0,0.0,0.0,0.0,0.0,0.0,0.0,0.0,0.0,0.0,0.0,0.0,0.0,0.0,0.0,0.0,0.0,0.0,0.0,0.0,0.0,0.0,0.0,0.0,0.0,0.0,0.0,0.0,0.0,0.0,0.0,0.0,0.0,0.0,0.0,0.0,0.0,0.0,0.0,0.0,0.0,0.0,0.0,0.0,0.0,0.0,0.0,0.0,0.0,0.0,0.0,0.0,0.0,0.0,0.0,0.0,0.0,0.0,0.0,0.0,0.0,0.0,0.0,0.0,0.0,0.0,0.0,0.0,0.0,0.0,0.0,0.0,0.0,0.0,0.0,0.0,0.0,0.0,0.0,0.0,0.0,0.0,-3.6943,-3.8976,-4.2075,-4.2157,-4.2029,-4.2029,-4.0194,-3.7113,-3.2574,-3.0618,0.0,0.0,0.0,0.0,0.0,0.0,0.0,0.0,0.0,0.0,0.0,0.0,0.0,0.0,0.0,0.0,0.0,0.0,0.0,0.0,0.0,0.0,0.0,0.0,0.0,0.0,0.0,0.0,0.0,0.0,0.0,0.0,0.0,0.0,0.0,0.0,0.0,0.0,0.0,0.0,0.0,0.0,0.0,0.0,0.0,0.0,0.0,0.0,0.0,0.0,0.0,0.0,0.0,0.0,0.0,0.0,0.0,0.0,0.0,0.0,0.0,0.0,0.0,0.0,0.0,0.0,0.0,0.0,0.0,0.0,0.0,0.0,0.0,0.0,0.0,0.0,0.0,0.0,0.0,0.0,0.0,0.0,0.0,0.0,0.0,0.0,0.0,0.0,0.0,0.0,0.0,0.0,0.0,0.0,0.0,0.0,0.0,0.0,0.0,0.0,0.0,0.0,-3.6229,-3.9276,-4.1034,-4.1203,-4.1185,-4.1185,-3.834,-3.5422,-3.2753,-2.9178,0.0,0.0,0.0,0.0,0.0,0.0,0.0,0.0,0.0,0.0,0.0,0.0,0.0,0.0,0.0,0.0,0.0,0.0,0.0,0.0,0.0,0.0,0.0,0.0,0.0,0.0,0.0,0.0,0.0,0.0,0.0,0.0,0.0,0.0,0.0,0.0,0.0,0.0,0.0,0.0,0.0,0.0,0.0,0.0,0.0,0.0,0.0,0.0,0.0,0.0,0.0,0.0,0.0,0.0,0.0,0.0,0.0,0.0,0.0,0.0,0.0,0.0,0.0,0.0,0.0,0.0,0.0,0.0,0.0,0.0,0.0,0.0,0.0,0.0,0.0,0.0,0.0,0.0,0.0,0.0,0.0,0.0,0.0,0.0,0.0,0.0,0.0,0.0,0.0,0.0,0.0,0.0,0.0,0.0,0.0,0.0,0.0,0.0,0.0,0.0,0.0,0.0,-3.4835,-3.7606,0.0,-4.0653,-4.0359,-4.0359,-3.7863,-3.4934,-3.1728,0.0,0.0,0.0,0.0,0.0,0.0,0.0,0.0,0.0,0.0,0.0,0.0,0.0,0.0,0.0,0.0,0.0,0.0,0.0,0.0,0.0,0.0,0.0,0.0,0.0,0.0,0.0,0.0,0.0,0.0,0.0,0.0,0.0,0.0,0.0,0.0,0.0,0.0,0.0,0.0,0.0,0.0,0.0,0.0,0.0,0.0,0.0,0.0,0.0,0.0,0.0,0.0,0.0,0.0,0.0,0.0,0.0,0.0,0.0,0.0,0.0,0.0,0.0,0.0,0.0,0.0,0.0,0.0,0.0,0.0,0.0,0.0,0.0,0.0,0.0,0.0,0.0,0.0,0.0,0.0,0.0,0.0,0.0,0.0,0.0,0.0,0.0,0.0,0.0,0.0,0.0,0.0,0.0,0.0,0.0,0.0,0.0,0.0,0.0,0.0,0.0,0.0,-3.1744,-3.3862,-3.6256,0.0,-3.946,-3.9019,-3.8781,-3.6064,-3.3304,-3.0828,0.0,0.0,0.0,0.0,0.0,0.0,0.0,0.0,0.0,0.0,0.0,0.0,0.0,0.0,0.0,0.0,0.0,0.0,0.0,0.0,0.0,0.0,0.0,0.0,0.0,0.0,0.0,0.0,0.0,0.0,0.0,0.0,0.0,0.0,0.0,0.0,0.0,0.0,0.0,0.0,0.0,0.0,0.0,0.0,0.0,0.0,0.0,0.0,0.0,0.0,0.0,0.0,0.0,0.0,0.0,0.0,0.0,0.0,0.0,0.0,0.0,0.0,0.0,0.0,0.0,0.0,0.0,0.0,0.0,0.0,0.0,0.0,0.0,0.0,0.0,0.0,0.0,0.0,0.0,0.0,0.0,0.0,0.0,0.0,0.0,0.0,0.0,0.0,0.0,0.0,0.0,0.0,0.0,0.0,0.0,0.0,0.0,0.0,0.0,0.0,0.0,0.0,-3.1029,-3.3495,-3.5624,-3.7294,-3.7477,-3.7147,-3.6358,-3.2559,-3.021,0.0,0.0,0.0,0.0,0.0,0.0,0.0,0.0,0.0,0.0,0.0,0.0,0.0,0.0,0.0,0.0,0.0,0.0,0.0,0.0,0.0,0.0,0.0,0.0,0.0,0.0,0.0,0.0,0.0,0.0,0.0,0.0,0.0,0.0,0.0,0.0,0.0,0.0,0.0,0.0,0.0,0.0,0.0,0.0,0.0,0.0,0.0,0.0,0.0,0.0,0.0,0.0,0.0,0.0,0.0,0.0,0.0,0.0,0.0,0.0,0.0,0.0,0.0,0.0,0.0,0.0,0.0,0.0,0.0,0.0,0.0,0.0,0.0,0.0,0.0,0.0,0.0,0.0,0.0,0.0,0.0,0.0,0.0,0.0,0.0,0.0,0.0,0.0,0.0,0.0,0.0,0.0,0.0,0.0,0.0,0.0,0.0,0.0,0.0,0.0,0.0,0.0,0.0,-3.0204,-3.2173,-3.4174,-3.6413,-3.6652,-3.656,-3.6321,-3.3073,-3.0797,-3.0246,0.0,0.0,0.0,0.0,0.0,0.0,0.0,0.0,0.0,0.0,0.0,0.0,0.0,0.0,0.0,0.0,0.0,0.0,0.0,0.0,0.0,0.0,0.0,0.0,0.0,0.0,0.0,0.0,0.0,0.0,0.0,0.0,0.0,0.0,0.0,0.0,0.0,0.0,0.0,0.0,0.0,0.0,0.0,0.0,0.0,0.0,0.0,0.0,0.0,0.0,0.0,0.0,0.0,0.0,0.0,0.0,0.0,0.0,0.0,0.0,0.0,0.0,0.0,0.0,0.0,0.0,0.0,0.0,0.0,0.0,0.0,0.0,0.0,0.0,0.0,0.0,0.0,0.0,0.0,0.0,0.0,0.0,0.0,0.0,0.0,0.0,0.0,0.0,0.0,0.0,0.0,0.0,0.0,0.0,0.0,0.0,0.0,0.0,0.0,0.0,0.0,0.0,-2.9795,-3.1329,-3.2944,-3.5073,-3.5587,-3.5385,-3.4431,-3.1953,-3.0099,-2.9292,0.0,0.0,0.0,0.0,0.0,0.0,0.0,0.0,0.0,0.0,0.0,0.0,0.0,0.0,0.0,0.0,0.0,0.0,0.0,0.0,0.0,0.0,0.0,0.0,0.0,0.0,0.0,0.0,0.0,0.0,0.0,0.0,0.0,0.0,0.0,0.0,0.0,0.0,0.0,0.0,0.0,0.0,0.0,0.0,0.0,0.0,0.0,0.0,0.0,0.0,0.0,0.0,0.0,0.0,0.0,0.0,0.0,0.0,0.0,0.0,0.0,0.0,0.0,0.0,0.0,0.0,0.0,0.0,0.0,0.0,0.0,0.0,0.0,0.0,0.0,0.0,0.0,0.0,0.0,0.0,0.0,0.0,0.0,0.0,0.0,0.0,0.0,0.0,0.0,0.0,0.0,0.0,0.0,0.0,0.0,0.0,0.0,0.0,0.0,0.0,0.0,0.0,-2.9472,-3.0668,-3.1788,-3.3403,-3.4247,-3.3788,-3.1586,-2.9861,-2.8594,-2.7842,0.0,0.0,0.0,0.0,0.0,0.0,0.0,0.0,0.0,0.0,0.0,0.0,0.0,0.0,0.0,0.0,0.0,0.0,0.0,0.0,0.0,0.0,0.0,0.0,0.0,0.0,0.0,0.0,0.0,0.0,0.0,0.0,0.0,0.0,0.0,0.0,0.0,0.0,0.0,0.0,0.0,0.0,0.0,0.0,0.0,0.0,0.0,0.0,0.0,0.0,0.0,0.0,0.0,0.0,0.0,0.0,0.0,0.0,0.0,0.0,-2.7021,0.0,0.0,0.0,0.0,0.0,0.0,0.0,0.0,0.0,0.0,0.0,0.0,0.0,0.0,0.0,0.0,0.0,0.0,0.0,0.0,0.0,0.0,0.0,0.0,0.0,0.0,0.0,0.0,0.0,0.0,0.0,0.0,0.0,0.0,0.0,0.0,0.0,0.0,0.0,0.0,0.0,-2.7647,-2.8839,-3.0136,-3.1733,-3.2063,-3.1953,-3.1439,-2.9329,-2.797,-2.7805,0.0,0.0,0.0,0.0,0.0,0.0,0.0,0.0,0.0,0.0,0.0,0.0,0.0,0.0,0.0,0.0,0.0,0.0,0.0,0.0,0.0,0.0,0.0,0.0,0.0,0.0,0.0,0.0,0.0,0.0,0.0,0.0,0.0,0.0,0.0,0.0,0.0,0.0,0.0,0.0,0.0,0.0,0.0,0.0,0.0,0.0,0.0,0.0,0.0,0.0,0.0,0.0,0.0,0.0,0.0,0.0,0.0,0.0,0.0,0.0,0.0,-2.711,0.0,0.0,0.0,0.0,0.0,0.0,0.0,0.0,0.0,0.0,0.0,0.0,0.0,0.0,0.0,0.0,0.0,0.0,0.0,0.0,0.0,0.0,0.0,0.0,0.0,0.0,0.0,0.0,0.0,0.0,0.0,0.0,0.0,0.0,0.0,0.0,0.0,0.0,0.0,0.0,-2.6519,-2.772,-2.8741,-2.9567,-3.0356,-3.0356,-2.9182,-2.7934,-2.7053,-2.6667,-2.4949,0.0,0.0,0.0,0.0,0.0,0.0,0.0,0.0,0.0,0.0,0.0,0.0,0.0,0.0,0.0,0.0,0.0,0.0,0.0,0.0,0.0,0.0,0.0,0.0,0.0,0.0,0.0,0.0,0.0,0.0,0.0,0.0,0.0,0.0,0.0,0.0,0.0,0.0,0.0,0.0,0.0,0.0,0.0,0.0,0.0,0.0,0.0,0.0,0.0,0.0,0.0,0.0,0.0,-3.2909,-3.2909,-3.2637,-3.2637,-3.2205,-3.1392,-2.9744,-2.8762,-2.8272,0.0,0.0,0.0,0.0,0.0,0.0,0.0,0.0,0.0,0.0,0.0,0.0,0.0,0.0,0.0,0.0,0.0,0.0,0.0,0.0,0.0,0.0,0.0,0.0,0.0,-2.5253,-2.5072,0.0,0.0,0.0,0.0,0.0,0.0,0.0,0.0,0.0,0.0,0.0,0.0,-2.5723,-2.6772,-2.7438,-2.7567,-2.8778,-2.8778,-2.6778,-2.6465,-2.6098,-2.5439,-2.463,-2.4074,0.0,0.0,0.0,0.0,0.0,0.0,0.0,0.0,0.0,0.0,0.0,0.0,0.0,0.0,0.0,0.0,0.0,0.0,0.0,0.0,0.0,0.0,0.0,0.0,0.0,0.0,0.0,0.0,0.0,0.0,0.0,0.0,-2.6581,-2.6618,0.0,0.0,0.0,0.0,0.0,0.0,0.0,0.0,0.0,0.0,0.0,0.0,0.0,0.0,-3.2628,-3.4236,-3.4795,-3.43,-3.5767,-3.5728,-3.4375,-3.4375,-3.4297,-3.4121,-3.3124,0.0,-2.9211,-2.9094,0.0,0.0,0.0,0.0,0.0,0.0,0.0,0.0,0.0,0.0,0.0,0.0,0.0,0.0,0.0,0.0,0.0,0.0,0.0,0.0,0.0,0.0,-2.5264,-2.5088,-2.5034,-2.4974,0.0,-2.4716,-2.4607,-2.4266,0.0,0.0,0.0,0.0,0.0,0.0,0.0,0.0,-2.4982,-2.5436,-2.597,-2.6686,-2.6961,-2.6961,-2.6631,-2.5952,-2.5513,-2.5421,-2.463,-2.417,-2.4151,-2.406,0.0,0.0,0.0,0.0,0.0,0.0,0.0,0.0,0.0,0.0,0.0,0.0,0.0,0.0,0.0,0.0,0.0,0.0,0.0,0.0,0.0,0.0,0.0,0.0,0.0,0.0,0.0,0.0,0.0,-2.6053,-2.6907,-2.554,-2.6654,-2.6916,0.0,0.0,0.0,0.0,0.0,0.0,0.0,0.0,0.0,-3.2532,-3.3407,-3.4326,-3.5224,-3.6435,-3.7191,-3.7476,-3.8218,-3.797,-3.6894,-3.6894,-3.6367,-3.541,-3.5039,-3.3924,-3.227,-3.0785,-2.9152,-2.7546,0.0,0.0,0.0,0.0,-2.6812,-2.688,-2.7286,-2.714,0.0,0.0,0.0,0.0,0.0,0.0,0.0,0.0,0.0,0.0,0.0,0.0,0.0,-2.5192,-2.5163,-2.513,-2.4956,-2.4917,-2.4809,0.0,-2.4375,-2.4284,-2.4036,0.0,0.0,0.0,0.0,0.0,-2.4223,-2.4908,-2.5346,-2.5254,-2.5658,-2.5731,-2.5291,-2.4924,-2.4722,-2.4722,-2.4392,-2.419,-2.419,-2.419,-2.4036,0.0,0.0,0.0,0.0,0.0,0.0,0.0,0.0,0.0,0.0,0.0,0.0,0.0,0.0,0.0,0.0,0.0,0.0,0.0,0.0,0.0,0.0,0.0,0.0,0.0,0.0,0.0,0.0,-2.6526,-2.725,-2.497,-2.7032,-2.7711,0.0,0.0,0.0,0.0,0.0,0.0,-3.0898,-3.1962,-3.3358,-3.5122,-3.6026,-3.6922,-3.7808,-3.8407,-3.9024,-3.9616,-3.9616,-3.913,-3.8194,-3.8194,-3.7354,-3.5929,-3.5953,-3.5486,-3.449,-3.2125,-3.0263,-2.8834,-2.8333,-2.8139,-2.8111,-2.8055,-2.8034,-2.8105,-2.8655,-2.8309,-2.7643,-2.7865,0.0,-2.6447,-2.5553,0.0,0.0,0.0,0.0,-2.5046,-2.5253,-2.5303,-2.5303,-2.5303,-2.5303,-2.5264,-2.5111,-2.5088,-2.4993,0.0,-2.4594,-2.4512,-2.4321,0.0,0.0,0.0,0.0,-2.4113,-2.3876,-2.4566,-2.485,-2.4263,-2.474,-2.4832,-2.4245,-2.419,-2.419,-2.419,-2.419,-2.419,-2.419,-2.419,-2.4074,-2.3837,0.0,0.0,0.0,0.0,0.0,0.0,0.0,0.0,0.0,0.0,0.0,0.0,0.0,0.0,0.0,0.0,0.0,0.0,0.0,0.0,0.0,0.0,0.0,0.0,0.0,0.0,0.0,0.0,0.0,-2.6242,-2.8984,0.0,0.0,0.0,0.0,-2.9619,-3.0971,-3.2336,-3.3458,-3.4348,-3.5742,-3.7757,-3.8642,-3.9503,-4.0312,-4.035,-4.0048,-3.942,-3.942,-3.8597,-3.7073,-3.7073,-3.658,-3.5723,-3.5845,-3.5415,-3.4482,-3.281,-3.1582,-3.0586,-2.8873,-2.8198,-2.8196,-2.8115,-2.8092,-2.8092,-2.8145,-2.7576,-2.6976,-2.7748,-2.7363,-2.6447,-2.5553,-2.5163,0.0,0.0,-2.5152,-2.5046,-2.5253,-2.5303,-2.5303,-2.5303,-2.5303,-2.5303,-2.5303,-2.5274,-2.5201,0.0,-2.479,-2.4716,-2.4528,0.0,-2.4409,-2.4209,-2.419,-2.419,-2.417,-2.4226,-2.4245,-2.419,-2.4245,-2.4245,-2.419,-2.419,-2.419,-2.419,-2.419,-2.419,-2.419,-2.419,-2.419,-2.417,-2.417,0.0,0.0,0.0,0.0,0.0,0.0,0.0,0.0,0.0,0.0,0.0,0.0,0.0,0.0,0.0,0.0,0.0,0.0,0.0,0.0,0.0,0.0,0.0,0.0,0.0,0.0,0.0,0.0,-2.8747,-3.1888,0.0,0.0,-3.1183,-3.1859,-3.1859,-3.3825,-3.5194,-3.5615,-3.7071,-3.8241,-3.9011,-3.9528,-3.9945,-4.0232,-4.0406,-4.013,-3.9398,-3.9398,-3.8559,-3.6982,-3.6456,-3.5756,-3.4893,-3.4383,-3.4008,-3.3682,-3.2543,-3.1949,-3.1621,-3.0409,-2.9939,-2.9917,-2.9815,-2.9448,-2.8993,-2.889,-2.796,-2.6748,-2.6473,-2.6132,-2.5777,-2.5459,-2.5283,-2.5214,-2.5274,-2.5253,-2.5214,-2.5274,-2.5303,-2.5303,-2.5303,-2.4909,-2.4524,-2.4524,-2.4524,-2.4486,-2.4364,-2.4662,-2.4877,-2.4731,-2.4594,-2.4478,-2.441,-2.4284,-2.419,-2.419,-2.419,-2.419,-2.419,-2.419,-2.419,-2.419,-2.419,-2.419,-2.419,-2.419,-2.419,-2.419,-2.419,-2.419,-2.419,-2.3996,-2.3689,0.0,0.0,0.0,0.0,0.0,0.0,0.0,0.0,0.0,0.0,0.0,0.0,0.0,0.0,0.0,0.0,0.0,0.0,0.0,0.0,0.0,0.0,0.0,0.0,0.0,0.0,-3.1794,-3.0279,-3.3671,-3.5191,-3.2755,-3.3758,-3.4603,-3.4791,-3.6455,-3.7609,-3.7906,-3.8858,-3.9438,-3.9599,-3.9922,-4.0101,-4.0101,-4.0372,-3.9967,-3.8929,-3.8929,-3.8078,-3.6483,-3.5939,-3.5221,-3.4367,-3.3806,-3.3446,-3.3166,-3.2327,-3.2026,-3.2048,-3.1211,-3.0898,-3.0859,-3.0461,-2.9988,-2.9437,-2.8766,-2.7788,-2.6684,-2.5812,-2.5498,-2.5434,-2.5428,-2.5406,-2.5363,-2.5339,-2.533,-2.5321,-2.5322,-2.5101,-2.4909,-2.4909,-2.4485,-2.411,-2.411,-2.4322,-2.4505,-2.4505,-2.4769,-2.4974,-2.4877,-2.4712,-2.4575,-2.4512,-2.4393,-2.4266,-2.4209,-2.419,-2.419,-2.419,-2.419,-2.419,-2.419,-2.419,-2.419,-2.419,-2.419,-2.419,-2.419,-2.419,-2.4151,-2.4036,-2.344,-2.3209,-2.3369,0.0,0.0,0.0,0.0,0.0,0.0,0.0,0.0,0.0,0.0,0.0,0.0,0.0,0.0,0.0,0.0,0.0,0.0,0.0,0.0,0.0,0.0,0.0,-2.553,-2.9479,-3.1953,-3.0846,-3.4363,-3.6028,-3.3829,-3.6011,-3.7805,-3.839,-3.885,-3.9428,-4.0215,-3.9556,-3.9294,-3.9552,-3.9901,-4.0081,-4.0081,-4.0339,-3.9627,-3.7973,-3.7973,-3.7108,-3.5493,-3.5474,-3.5007,-3.4193,-3.4232,-3.38,-3.3005,-3.2227,-3.1919,-3.1889,-3.1169,-3.0879,-3.0762,-2.9902,-2.957,-2.9277,-2.7559,-2.6929,-2.6718,-2.5876,-2.5558,-2.5493,-2.5493,-2.5493,-2.5473,-2.5427,-2.5406,-2.5383,-2.5283,-2.4678,-2.4091,-2.4072,-2.4042,-2.4023,-2.4014,-2.463,-2.5178,-2.5168,-2.5045,-2.4934,-2.4991,-2.4872,-2.4708,-2.4543,-2.4493,0.0,-2.4228,-2.4209,-2.4209,-2.419,-2.419,-2.419,-2.419,-2.419,-2.419,-2.419,-2.419,-2.419,-2.419,-2.419,-2.4036,-2.3714,-2.2616,-2.2259,-2.2695,0.0,0.0,0.0,0.0,0.0,0.0,0.0,0.0,0.0,0.0,0.0,0.0,0.0,0.0,0.0,0.0,0.0,0.0,0.0,0.0,0.0,0.0,-2.8228,-2.8874,-3.1845,-3.443,-3.5711,-3.7848,-3.8937,-3.8311,-3.8763,-3.917,-3.9347,-4.021,-4.033,-3.9395,-4.0139,-4.0062,-3.8979,-3.9223,-3.9364,-3.9364,-3.9671,-3.9007,-3.7337,-3.7526,-3.6793,-3.5203,-3.476,-3.443,-3.4173,-3.3557,-3.2866,-3.2134,-3.1909,-3.1494,-3.0974,-3.0813,-3.0425,-2.9922,-2.9687,-2.8809,-2.7559,-2.6445,-2.6054,-2.5994,-2.5741,-2.5633,-2.5567,-2.5567,-2.5493,-2.5421,-2.5406,-2.5363,-2.5186,-2.4591,-2.427,-2.3953,-2.3361,-2.2772,-2.2352,-2.2293,-2.2453,-2.2605,-2.2551,-2.289,-2.361,-2.4992,-2.4576,-2.4246,-2.4777,-2.4242,0.0,-2.4352,-2.4428,-2.4357,-2.4209,-2.419,-2.419,-2.419,-2.419,-2.419,-2.419,-2.419,-2.419,-2.419,-2.419,-2.4036,-2.3714,-2.3155,-2.281,0.0,0.0,0.0,0.0,0.0,0.0,0.0,0.0,0.0,0.0,0.0,0.0,0.0,0.0,0.0,0.0,0.0,0.0,0.0,0.0,0.0,0.0,-2.7767,-2.9967,-3.1886,-3.4039,-3.6092,-3.7669,-3.9194,-4.007,-4.007,-3.9976,-3.9971,-4.017,-4.0489,-4.0277,-3.924,-3.9858,-3.9644,-3.8387,-3.8839,-3.8931,-3.8596,-3.893,-3.8263,-3.6602,-3.6746,-3.616,-3.4906,-3.4189,-3.3727,0.0,-3.2593,-3.184,-3.1205,-3.1205,-3.0954,0.0,0.0,0.0,0.0,0.0,-2.7637,-2.6387,-2.5879,-2.5703,-2.5703,-2.5703,-2.5662,-2.5637,-2.5637,-2.5322,-2.4981,-2.4948,-2.4671,-2.4251,-2.3777,-2.3372,-2.2978,-2.2519,-2.2046,-2.1696,-2.1657,-2.1923,-2.2177,-2.2133,-2.2423,0.0,-2.4107,-2.3706,-2.3538,-2.4369,-2.3999,-2.3869,-2.4526,-2.4623,-2.4561,-2.4339,-2.4339,-2.4284,-2.4209,-2.419,0.0,0.0,0.0,-2.419,-2.419,-2.4074,0.0,0.0,0.0,-2.3045,-2.2695,0.0,0.0,0.0,-2.231,-2.231,0.0,0.0,0.0,0.0,0.0,0.0,0.0,0.0,0.0,0.0,0.0,0.0,0.0,0.0,0.0,0.0,-2.9728,-3.1132,-3.4241,-3.5831,-3.7019,-3.785,-3.9105,-4.002,-4.007,-4.007,-4.0286,-4.078,-4.0205,-3.9712,-3.9405,0.0,0.0,0.0,0.0,-3.8627,-3.7854,-3.8139,-3.7476,-3.58,-3.584,-3.5447,-3.4615,-3.3789,-3.3108,-3.2559,-3.1756,-3.1059,-3.0465,-3.0489,-3.0381,-3.0148,-2.9572,-2.9286,-2.9018,-2.7438,-2.6367,-2.5703,-2.5703,0.0,0.0,-2.5703,-2.5703,-2.5684,-2.5586,-2.5019,-2.4354,-2.4202,-2.3645,-2.3046,-2.2881,-2.2289,-2.1694,-2.1597,-2.1562,-2.1566,-2.1562,-2.2177,-2.2717,-2.2712,-2.2666,-2.2617,-2.2617,-2.2487,-2.2721,-2.3686,-2.3744,-2.3953,-2.4728,-2.4738,-2.4647,-2.4543,0.0,0.0,-2.4247,-2.4228,-2.4228,-2.419,-2.419,-2.419,-2.419,-2.3917,-2.3774,-2.3774,-2.3414,-2.3117,-2.2822,-2.2772,-2.2625,-2.2405,-2.2377,-2.2349,0.0,0.0,0.0,0.0,0.0,0.0,0.0,0.0,0.0,0.0,0.0,0.0,0.0,0.0,0.0,-2.9958,-3.1657,-3.3156,-3.4376,-3.5766,-3.7118,-3.8515,-3.895,-3.9385,-4.002,-4.007,-4.0171,-4.0254,-4.0517,-4.0134,-3.8834,-3.9171,0.0,-3.7948,-3.8044,-3.794,-3.7577,-3.7645,-3.6823,-3.5198,0.0,0.0,-3.4274,-3.3671,-3.3337,-3.3185,-3.239,-3.1593,-3.0888,-3.1062,-3.0086,-2.8485,-2.841,-2.7967,-2.7281,-2.6251,-2.5796,-2.5703,-2.5703,-2.5703,-2.5703,-2.5703,-2.5703,-2.5566,-2.4863,-2.4508,0.0,-2.351,-2.3173,-2.2842,-2.2133,-2.187,-2.1606,-2.0906,-2.0769,-2.0795,-2.0738,-2.0867,-2.0976,-2.0901,-2.0884,-2.0876,-2.0876,-2.1333,-2.2238,-2.3804,-2.3429,-2.3476,-2.4784,-2.4378,-2.4201,-2.4685,-2.4095,-2.3907,-2.4388,-2.4426,-2.4375,-2.4209,-2.419,-2.419,-2.419,-2.4151,-2.4094,-2.4094,-2.3774,-2.3566,-2.3522,-2.3253,-2.3087,-2.3014,-2.2738,-2.2608,0.0,0.0,0.0,0.0,0.0,0.0,0.0,0.0,0.0,0.0,0.0,-2.6122,0.0,0.0,-3.0597,-3.2228,-3.332,-3.4218,-3.4906,-3.5619,-3.6446,-3.7584,-3.8453,-3.9086,-3.9437,-3.9833,-4.007,-4.007,-4.0319,-3.9846,-3.8311,-3.8756,-3.8485,-3.7208,-3.7238,-3.7054,-3.6497,-3.6344,-3.5642,-3.4412,-3.4581,-3.4419,-3.3956,-3.2887,-3.2465,-3.2535,-3.1315,-3.0622,-3.0354,-3.0457,-2.9417,-2.7745,-2.7798,-2.7128,-2.6158,-2.571,-2.5598,-2.5658,-2.5658,-2.5662,-2.5683,-2.566,-2.5662,-2.5527,-2.4625,-2.4062,-2.3567,-2.2747,-2.2153,-2.1691,-2.1264,-2.1177,-2.1086,-2.0659,-2.0585,-2.0586,-2.0562,-2.0542,-2.054,-2.051,-2.0475,-2.0438,-2.0414,-2.0679,-2.1497,-2.3234,-2.3097,-2.3371,-2.4952,-2.4443,-2.4197,-2.4822,-2.4151,-2.3736,-2.3982,-2.3596,-2.3446,-2.3728,-2.373,-2.3492,-2.3033,-2.3768,-2.4006,-2.3621,-2.3815,-2.3876,-2.3692,-2.3522,-2.3369,-2.3189,-2.3189,-2.3117,0.0,0.0,0.0,0.0,0.0,0.0,0.0,0.0,-2.3986,-2.6009,-2.7128,-2.8379,-3.0158,-3.138,-3.2677,-3.4397,-3.4666,-3.4861,-3.5429,-3.5504,-3.5672,-3.6153,-3.7504,-3.8564,-3.8854,-3.9489,-3.9952,-4.007,-3.9952,-3.9292,-3.7973,-3.8134,-3.7638,-3.6243,-3.6341,-3.6018,-3.5166,-3.4975,-3.4485,-3.368,-3.3762,-3.3807,-3.3752,-3.2118,-3.1531,-3.1611,-3.0036,-2.9435,-2.9643,-2.9643,-2.8782,-2.7447,-2.7475,-2.6638,-2.5414,-2.5463,-2.5511,-2.557,-2.557,-2.5627,-2.5659,-2.5601,-2.5512,-2.5269,-2.433,-2.3522,-2.2753,-2.1874,-2.1133,-2.0605,-2.0605,-2.0605,-2.0605,-2.0605,-2.0605,-2.0605,-2.0605,-2.0605,-2.0605,-2.0605,-2.0562,-2.0508,-2.0441,-2.0374,-2.0859,-2.2397,-2.2582,-2.3101,-2.462,-2.4101,-2.3909,-2.4744,-2.3938,-2.3343,-2.3302,-2.2631,-2.2454,-2.3048,-2.3007,-2.2632,-2.1872,-2.3052,-2.3492,-2.3015,-2.3639,-2.3909,-2.3795,-2.3795,-2.3671,-2.3392,-2.3671,-2.3628,-1.7322,-1.7596,-1.827,-1.9634,-2.0161,-2.1361,0.0,0.0,-2.5253,-2.7663,-2.9334,-3.0685,-3.169,-3.3132,-3.4427,-3.525,-3.5385,-3.5415,-3.5489,-3.5504,-3.5329,-3.4778,-3.6014,-3.7424,-3.8799,-3.8962,-3.9315,-4.007,-3.9478,-3.8768,-3.7939,-3.7356,-3.6522,-3.5446,-3.5427,-3.4966,-3.3912,-3.4267,-3.4069,-3.3273,-3.3625,-3.3807,-3.3752,-3.2118,-3.1409,-3.1366,-2.9743,-2.9181,-2.9434,-2.9434,-2.8558,-2.7251,-2.7433,-2.6511,-2.5075,-2.5321,-2.544,-2.5503,-2.5503,-2.5526,-2.5511,-2.5503,-2.5024,-2.4288,-2.34,-2.2594,-2.1762,-2.0902,-2.0621,-2.0605,-2.0605,-2.0605,-2.0605,-2.0605,-2.0605,-2.0605,-2.0605,-2.0605,-2.0605,-2.0605,-2.0586,-2.0585,-2.0585,-2.0515,-2.0752,-2.154,-2.1647,-2.1985,-2.2966,-2.2331,-2.2408,-2.4034,-2.2737,-2.1981,-2.2563,-2.2357,-2.2252,-2.2332,-2.2193,-2.2086,-2.1977,-2.2053,-2.2354,-2.2997,-2.3107,-2.3474,-2.4151,-2.4151,-2.4113,-2.4094,-2.4132,-2.3958,-1.7676,-1.8141,0.0,0.0,-2.0762,-2.2434,-2.4732,-2.5546,-2.6358,-2.8303,-3.0401,-3.1986,-3.233,-3.3893,-3.5175,0.0,-3.5504,-3.5504,-3.5504,-3.516,-3.4666,-3.3978,-3.4423,-3.5353,-3.6832,-3.7061,-3.7556,-3.8667,-3.812,-3.7617,-3.7297,-3.6518,-3.5722,-3.4873,-3.4266,-3.3758,-3.3316,-3.3293,-3.3116,-3.2809,-3.3225,-3.3229,-3.271,-3.1821,-3.0889,-2.9971,-2.9287,-2.9067,-2.9141,-2.8661,-2.79,-2.6985,-2.6601,-2.5804,-2.4917,-2.5226,-2.5383,-2.5441,-2.5447,-2.5477,-2.5425,-2.4902,-2.453,-2.4034,-2.2624,-2.1978,-2.1555,-2.0695,-2.0484,-2.054,-2.054,-2.0565,-2.0605,-2.0605,-2.0605,-2.0605,-2.0605,-2.0605,-2.0605,-2.0605,-2.0605,-2.0586,-2.0542,-2.0515,-2.0584,-2.0812,-2.1256,-2.1856,-2.2686,-2.2043,-2.1773,-2.2504,-2.1927,-2.1825,-2.2614,-2.1703,-2.1268,-2.1646,-2.1582,-2.1286,-2.0739,-2.1573,-2.1916,-2.1713,-2.2194,-2.2772,-2.3511,-2.3511,-2.3749,-2.419,-2.419,-2.4113,-1.7189,0.0,0.0,-1.9268,-2.1046,-2.3101,-2.4179,-2.554,-2.6943,-2.8353,-3.079,-3.2593,-3.2593,-3.4192,0.0,-3.5504,-3.5504,-3.5504,-3.5504,-3.4906,-3.4233,-3.3574,-3.317,-3.3352,-3.4388,-3.509,-3.5957,-3.7175,-3.6591,-3.6239,-3.6219,-3.5442,-3.4678,-3.3923,-3.3185,-3.2689,-3.2521,-3.2354,-3.2316,-3.2298,-3.2594,-3.2385,-3.181,-3.1192,-3.0229,-2.8975,-2.8778,-2.8686,-2.8613,-2.7805,-2.7066,-2.6432,-2.5912,-2.5307,-2.476,-2.5037,-2.5225,-2.5299,-2.5352,-2.5394,-2.5305,-2.445,-2.4051,-2.3603,-2.2036,-2.144,-2.1172,-2.0541,-2.0425,-2.0475,-2.0475,-2.0511,-2.0541,-2.0541,-2.0541,-2.0542,-2.0565,-2.0565,-2.0585,-2.0605,-2.0605,-2.0585,-2.0539,-2.0536,-2.051,-2.0435,-2.0919,-2.1499,-2.2042,-2.1751,-2.1408,-2.1196,-2.137,-2.1677,-2.2081,-2.1004,-2.0502,-2.0996,-2.0918,-2.057,-1.9877,-2.0891,-2.126,-2.0811,-2.1551,-2.229,-2.2997,-2.3235,-2.3639,-2.419,-2.419,-2.419,0.0,0.0,-1.8215,-1.912,-2.0667,-2.2413,-2.4367,-2.5659,-2.6837,-2.79,-3.0491,-3.2593,-3.2593,-3.4192,-3.5504,-3.5504,-3.5504,-3.5504,-3.5504,-3.4906,-3.4233,-3.3574,-3.2362,-3.1599,0.0,-3.3487,-3.5074,-3.5819,-3.5177,-3.4775,-3.4759,-3.3991,-3.3241,-3.2488,-3.2353,-3.1975,-3.1263,-3.164,-3.1825,-3.1808,-3.1575,-3.143,-3.1391,-3.0194,-2.9421,-2.8957,-2.8172,-2.7842,-2.7769,-2.6979,-2.6172,-2.5459,-2.5634,-2.5204,-2.4526,-2.4746,-2.4891,-2.5046,-2.5234,-2.5293,-2.5168,-2.436,-2.3542,-2.2675,-2.1782,-2.0957,-2.0332,-2.0313,-2.0347,-2.0391,-2.0391,-2.0395,-2.0414,-2.0414,-2.0414,-2.0425,-2.0484,-2.0508,-2.0515,-2.0585,-2.0605,-2.0605,-2.0605,-2.0605,-2.0565,-2.051,-2.0525,-2.05,-2.0383,-2.102,-2.1196,-2.0427,-2.1023,-2.1196,-2.0446,-2.0331,-2.0304,-2.0323,-2.0144,-2.0022,-2.0003,-1.9794,-2.0024,-2.0792,-2.1461,-2.2207,-2.2997,-2.3786,-2.4171,-2.419,-2.419,-2.419,0.0,0.0,-1.8786,-1.9614,-2.1297,-2.3031,-2.447,-2.5714,-2.671,-2.7408,-2.8855,-3.0011,-3.006,-3.1661,-3.3051,-3.3453,-3.4637,-3.5504,-3.5504,-3.4906,-3.4068,-3.2976,-3.2452,0.0,0.0,0.0,0.0,-3.2917,-3.2798,-3.2661,-3.2624,-3.2337,-3.2039,-3.1759,-3.1248,-3.1031,-3.119,-3.1312,-3.1172,-3.0677,-2.9815,-2.9562,-2.9834,-2.892,-2.8228,-2.7774,-2.7501,-2.726,-2.6943,-2.6135,-2.5621,-2.5348,-2.4892,-2.4543,-2.4339,-2.4528,-2.462,-2.4708,-2.5005,-2.5192,-2.5168,-2.436,-2.3514,-2.2639,-2.1754,-2.0951,-2.0299,-2.0299,-2.0328,-2.0327,-2.0327,-2.0361,-2.041,-2.041,-1.9982,-1.96,-1.9636,-1.9178,-1.8956,-1.9543,-1.9662,-1.988,-2.0488,-2.0605,-2.0585,-2.0511,-2.045,-2.0422,-2.0366,-2.0571,-2.0598,-2.0328,-2.0542,-2.06,-2.0331,-2.0312,-2.0312,-2.0312,-2.0241,-2.0197,-2.0197,-2.0098,-2.0124,-2.0274,-2.0481,-2.0907,-2.1541,-2.234,-2.2974,-2.3419,-2.3951,-2.419,-1.5225,-1.7098,-1.8985,-1.9652,-2.1475,-2.3299,-2.4049,-2.5249,-2.6219,-2.6355,-2.7326,-2.8106,-2.8157,-2.9492,-3.0777,-3.1383,-3.275,-3.3963,-3.4681,-3.3993,-3.329,-3.2901,-3.2452,0.0,0.0,0.0,0.0,-3.0807,-3.1313,-3.1374,-3.0927,-3.1063,-3.1023,-3.0739,-3.044,-3.0344,-3.0476,-3.0707,-3.0294,-2.9279,-2.8545,-2.8291,-2.8411,-2.7654,-2.7207,-2.7036,-2.6444,-2.6045,-2.5764,-2.5072,-2.4803,-2.4748,-2.4353,-2.419,-2.4209,-2.4358,-2.4426,-2.4543,-2.4836,-2.5041,-2.5069,-2.4244,-2.3448,-2.2639,-2.1754,-2.0946,-2.0312,-2.0312,-2.0299,-2.0302,-2.0302,-2.0326,-2.036,-2.036,-1.9978,-1.9595,-1.958,-1.9146,-1.8932,-1.9514,-1.9639,-1.9819,-2.0417,-2.0542,-2.0546,-2.0507,-2.0474,-2.0447,-2.0414,-2.0357,-2.0351,-2.0351,-2.0346,-2.0321,-2.0306,-2.0306,-2.0311,-2.0292,-2.0312,-2.0312,-2.0312,-2.0233,-2.0124,-1.9993,-2.0238,-2.0535,-2.0872,-2.1685,-2.2281,-2.2726,-2.3558,-2.3948,-1.4716,-1.6632,-1.8874,-1.9405,-2.1302,-2.3105,-2.3105,-2.4388,-2.5407,-2.4859,-2.5865,-2.6897,0.0,0.0,-2.8839,-2.9421,-3.0186,-3.1317,-3.332,-3.2497,-3.2138,0.0,0.0,0.0,0.0,0.0,0.0,-2.949,0.0,-3.0821,-2.9549,-3.0097,-3.0134,-2.9453,-2.9939,-2.9847,-2.9165,-2.9666,-2.9171,-2.7702,-2.7703,-2.7521,-2.7137,-2.6476,-2.6347,-2.657,-2.503,-2.4357,-2.43,-2.3849,-2.3692,-2.3735,-2.4054,-2.419,-2.419,-2.419,-2.4321,-2.4512,-2.47,-2.4864,-2.4865,-2.411,-2.3369,-2.263,-2.1803,-2.0977,-2.0312,-2.0312,-2.0312,-2.0312,-2.0312,-2.0312,-2.0312,-2.0312,-2.0273,-2.0219,-2.0173,-2.0172,-2.0194,-2.0258,-2.0348,-2.041,-2.041,-2.0444,-2.0486,-2.0486,-2.0542,-2.0544,-2.0429,-2.0414,-2.0414,-2.0414,-2.0391,-2.0366,-2.0305,-2.0313,-2.0302,-2.03,-2.03,-2.0292,-2.0312,-2.0115,-2.0022,-2.0022,-2.0626,-2.096,-2.096,-2.1751,-2.2152,-2.2158,-2.3069,-2.3498,-1.714,-1.8877,-2.0419,-2.0722,-2.172,-2.2837,-2.3581,-2.4148,-2.4352,-2.3674,-2.3859,-2.3906,0.0,0.0,0.0,-2.8583,-3.0904,0.0,-3.4782,-3.4262,0.0,0.0,0.0,-3.1809,-3.0612,-3.0672,0.0,0.0,-2.916,-2.8981,-2.8128,-2.8718,-2.8966,-2.8742,-2.8873,-2.8831,-2.8634,-2.7721,-2.7046,-2.6672,-2.6541,-2.6094,-2.5447,-2.5642,-2.5352,-2.4617,-2.4216,-2.3831,-2.3513,-2.3371,-2.3459,-2.3714,-2.3795,-2.3976,-2.419,-2.419,-2.4228,-2.4284,-2.4339,-2.4575,-2.4818,-2.4596,-2.3638,-2.2543,-2.2304,-2.1321,-2.0312,-2.0312,-2.0312,-2.0312,-2.0312,-2.0312,-2.0312,-2.0312,-1.9792,-1.9153,-1.85,-1.8352,-1.8377,-1.8441,-1.9515,-2.041,-2.041,-2.0402,-2.0429,-2.0429,-2.048,-2.0523,-2.0544,-2.051,-2.0477,-2.0477,-2.0432,-2.0383,-2.039,-2.0366,-2.0342,-2.0302,-2.0296,-2.0308,-2.0292,-2.0241,-2.0214,-2.0214,-2.0391,-2.0404,-2.0257,-2.1062,-2.1391,-2.135,-2.2819,-2.3498,-1.9144,-2.101,-2.2418,-2.2164,-2.2658,-2.3162,-2.2979,-2.3025,-2.2809,-2.1823,-2.1631,0.0,0.0,0.0,0.0,0.0,0.0,0.0,-3.3338,-3.3327,-3.326,0.0,-3.2916,0.0,-3.1061,-3.0791,-3.0208,0.0,-2.928,-2.8891,-2.7685,-2.8233,-2.8432,-2.8122,-2.8074,-2.787,-2.749,-2.6359,-2.5814,-2.5814,-2.5681,-2.5387,-2.4964,-2.4812,-2.4406,-2.3778,0.0,-2.3047,-2.2824,-2.2923,-2.3093,-2.3277,-2.3414,-2.3692,-2.3976,-2.3976,-2.4074,-2.419,-2.419,-2.4339,-2.4543,-2.4639,-2.3658,-2.2405,-2.2405,-2.1632,-2.0659,-2.0276,-2.0482,-2.0754,-2.0389,-2.0312,-2.0312,-2.0312,-1.9927,-1.9446,-1.8946,-1.8831,-1.8845,-1.8886,-1.9701,-2.0363,-2.0363,-2.0351,-2.0352,-2.0352,-2.0418,-2.0475,-2.051,-2.0527,-2.0541,-2.0541,-2.0511,-2.0477,-2.0441,-2.0441,-2.0422,-2.0342,-2.0337,-2.0324,-2.0301,-2.0294,-2.0292,-2.0312,-2.0312,-2.0241,-2.0124,-2.0584,-2.0776,-2.0724,-2.2418,-2.3179,-2.1381,-2.3183,-2.4756,-2.3665,-2.3908,-2.3951,-2.2098,-2.1711,-2.1351,-2.0029,0.0,0.0,-1.9635,0.0,-2.2062,-2.3358,0.0,-2.8183,-3.1046,-3.1395,-3.1901,-3.3335,-3.2841,-3.2123,-3.1465,-3.0372,-2.9639,-2.946,-2.9939,-2.946,-2.7715,-2.8143,-2.8143,-2.7505,-2.7238,-2.6798,-2.6093,-2.5338,-2.4989,-2.4989,-2.5067,-2.501,-2.4786,-2.4039,-2.3605,-2.3375,0.0,0.0,-2.2338,-2.2563,-2.2686,-2.2721,-2.3021,-2.3346,-2.3649,-2.3692,-2.3896,-2.4151,-2.417,-2.419,-2.4228,-2.441,-2.3528,-2.2416,-2.2416,-2.1883,-2.1116,-2.0468,-2.0766,-2.1135,-2.0551,-2.0329,-2.0269,-2.0269,-2.0277,-2.0273,-2.0158,-2.0139,-2.0158,-2.0292,-2.0312,-2.0312,-2.0312,-2.0301,-2.0295,-2.0295,-2.0357,-2.0398,-2.0398,-2.0506,-2.0585,-2.0585,-2.0585,-2.0566,-2.0515,-2.0513,-2.0482,-2.0422,-2.0418,-2.0374,-2.033,-2.0305,-2.0314,-2.0311,-2.0296,-2.0308,-2.0308,-2.0408,-2.0408,-2.035,-2.2023,-2.2735,-2.5139,-2.6352,-2.7013,-2.5484,-2.5228,-2.4885,-2.3236,-2.2263,0.0,0.0,0.0,-2.01,-1.8731,-1.9826,0.0,-2.4027,0.0,0.0,0.0,0.0,-3.1306,0.0,0.0,0.0,0.0,0.0,0.0,0.0,0.0,0.0,-2.767,-2.7679,-2.744,-2.6782,-2.5678,-2.5017,-2.4925,-2.4228,-2.3879,-2.3879,-2.4307,-2.392,-2.2829,-2.3428,-2.3079,-2.1974,0.0,0.0,-2.231,-2.2349,-2.25,-2.2721,-2.2772,-2.2996,-2.3323,-2.3588,-2.3753,-2.3816,-2.4094,-2.419,-2.4227,-2.4247,-2.3709,-2.3042,-2.3042,-2.2107,-2.1154,-2.1677,-2.0996,-2.0229,-2.0748,-2.0475,-2.0041,-2.0041,-2.0188,-2.01,-1.9377,-1.9223,-1.9434,-2.0158,-2.0312,-2.0312,-2.0312,-2.03,-2.0296,-2.0296,-2.0315,-2.033,-2.033,-2.0398,-2.0467,-2.0511,-2.0513,-2.0541,-2.0586,-2.0585,-2.0543,-2.0482,-2.048,-2.0444,-2.0398,-2.0374,-2.037,-2.0381,-2.0324,-2.0308,-2.0308,-2.0966,-2.0946,-2.035,-2.2023,-2.2408,-2.7755,-2.9207,-2.982,-2.771,-2.6831,-2.5627,-2.258,0.0,0.0,0.0,0.0,-1.9572,-1.8781,0.0,0.0,0.0,0.0,0.0,0.0,0.0,0.0,0.0,0.0,0.0,0.0,0.0,0.0,0.0,0.0,0.0,-2.764,-2.7245,-2.6602,-2.56,-2.4956,-2.4403,-2.4088,-2.3759,-2.3595,-2.3595,-2.3879,-2.3462,-2.2519,-2.3084,-2.2765,-2.1842,-2.2141,0.0,-2.231,-2.231,-2.2388,-2.25,-2.25,-2.2678,-2.2972,-2.3117,-2.33,-2.35,-2.3816,-2.3937,-2.3976,-2.4151,-2.3695,-2.3102,-2.3102,-2.2659,-2.2112,-2.1597,-2.1285,-2.0998,-2.0495,-2.0149,-1.9901,-1.9901,-2.0022,-2.0054,-1.9746,-1.9677,-1.9792,-2.0215,-2.0312,-2.0312,-2.0312,-2.0312,-2.0312,-2.0312,-2.0292,-2.0301,-2.0301,-2.0341,-2.0371,-2.0435,-2.0441,-2.0477,-2.054,-2.0542,-2.0546,-2.0543,-2.0542,-2.0515,-2.0447,-2.0444,-2.0435,-2.041,-2.0361,-2.0347,-2.0347,-2.0737,-2.0739,-2.0371,-2.1649,-2.1991,-2.9492,-3.1143,-3.2031,-2.9744,-2.8318,-2.6355,-2.2128,-2.0614,0.0,0.0,-1.843,-1.9158,-1.8995,0.0,0.0,0.0,0.0,0.0,0.0,0.0,0.0,0.0,0.0,0.0,0.0,0.0,0.0,0.0,0.0,0.0,-2.74,-2.6602,-2.5689,-2.4612,-2.4433,-2.4148,-2.361,-2.3595,-2.3535,-2.34,-2.34,-2.2996,-2.2274,-2.2496,-2.2321,-2.1791,-2.2029,0.0,0.0,-2.231,-2.231,-2.231,-2.231,-2.2426,-2.2625,-2.2669,-2.2873,-2.3141,-2.3477,-2.3588,-2.3649,-2.3896,-2.3654,-2.3272,-2.3272,-2.3251,-2.2996,-2.1848,-2.1857,-2.1896,-2.0564,-2.012,-1.9969,-1.9835,-1.988,-1.9993,-2.0162,-2.018,-2.018,-2.018,-2.018,-2.018,-2.018,-2.018,-2.018,-2.018,-2.0225,-2.0241,-2.0241,-2.0277,-2.0332,-2.0362,-2.0385,-2.0414,-2.0475,-2.048,-2.051,-2.0565,-2.0585,-2.0566,-2.0516,-2.0515,-2.0506,-2.0441,-2.0429,-2.0425,-2.0425,-2.0589,-2.0581,-2.043,-2.1297,-2.1608,-3.0051,-3.1411,-3.2246,-3.0952,-2.9476,-2.7382,-2.351,0.0,0.0,-1.8493,-1.8982,-1.9585,-1.912,-1.9021,-1.9271,0.0,0.0,0.0,0.0,0.0,0.0,0.0,0.0,0.0,0.0,0.0,0.0,0.0,0.0,0.0,0.0,-2.5495,-2.4701,-2.4582,-2.4029,-2.367,-2.3595,-2.3595,-2.331,-2.2798,-2.2798,-2.2113,-2.0887,-2.1274,-2.1337,-2.1119,0.0,0.0,0.0,-2.231,-2.231,-2.231,-2.231,-2.231,-2.2377,-2.2625,-2.2721,-2.2797,-2.3117,-2.3253,-2.3236,-2.3277,-2.3638,-2.408,-2.408,-2.3603,-2.3144,-2.3732,-2.2904,-2.1799,-2.167,-2.1152,-2.0546,-1.9943,-1.9802,-1.9813,-1.9855,-1.9855,-1.9855,-1.9855,-1.9855,-1.9855,-1.9855,-1.9855,-1.9855,-1.9855,-1.9943,-2.0031,-2.0031,-2.0197,-2.0292,-2.0315,-2.0315,-2.0332,-2.0391,-2.0418,-2.0435,-2.051,-2.0511,-2.054,-2.0586,-2.0586,-2.0586,-2.0585,-2.0515,-2.0484,-2.0484,-2.1223,-2.1165,-2.043,-2.1297,-2.1278,-2.9908,-3.1883,-3.3099,-3.1763,-2.9686,-2.7193,-2.4053,0.0,0.0,-1.848,-1.9058,-1.9736,-1.9535,-1.9233,-1.8933,-1.8857,0.0,0.0,0.0,0.0,0.0,0.0,0.0,0.0,0.0,0.0,0.0,0.0,0.0,0.0,0.0,-2.4713,-2.4433,-2.4029,-2.3744,-2.3415,-2.3041,-2.3041,-2.2727,-2.2084,-2.2084,-2.1605,-2.0707,-2.1115,-2.1035,-2.0583,0.0,0.0,0.0,-2.1615,-2.1827,-2.2282,-2.2003,-2.2032,-2.2293,-2.2426,-2.2463,-2.25,-2.2789,-2.2898,-2.2923,-2.3141,-2.3392,-2.3649,-2.3837,-2.3678,-2.3426,-2.3454,-2.2666,-2.1692,-2.1143,-2.0455,-1.9859,-1.9718,-1.9682,-1.9707,-1.9786,-1.979,-1.979,-1.979,-1.979,-1.979,-1.979,-1.979,-1.979,-1.979,-1.9847,-1.988,-1.988,-1.9952,-2.0001,-2.0001,-2.0175,-2.0308,-2.0346,-2.0332,-2.0361,-2.0435,-2.0438,-2.0444,-2.048,-2.048,-2.048,-2.048,-2.0482,-2.0507,-2.0507,-2.0854,-2.0864,-2.0534,-2.0884,-2.0845,-2.8688,-3.087,-3.2414,-3.1513,-2.9032,-2.6183,0.0,0.0,-1.9108,-1.8355,-1.8807,-1.9384,-1.9547,-1.9271,-1.8745,-1.8078,0.0,-1.7903,0.0,0.0,0.0,0.0,0.0,0.0,0.0,0.0,0.0,0.0,0.0,0.0,0.0,-2.3626,-2.3718,-2.361,-2.343,-2.3116,-2.2724,-2.2488,-2.2054,-2.1395,-2.1395,-2.1051,-2.0408,-2.0716,-2.0709,-2.0516,0.0,0.0,0.0,-2.1213,-2.1415,-2.2061,-2.1718,-2.1794,-2.2106,-2.2254,-2.231,-2.2338,-2.2527,-2.2573,-2.2625,-2.2857,-2.2933,-2.2989,-2.33,-2.3459,-2.3502,-2.3264,-2.2539,-2.1584,-2.0739,-1.9895,-1.9335,-1.9485,-1.9513,-1.9536,-1.9619,-1.9645,-1.9645,-1.9645,-1.9645,-1.9645,-1.9645,-1.9645,-1.9645,-1.9645,-1.9713,-1.9738,-1.9738,-1.9786,-1.979,-1.979,-2.0011,-2.0159,-2.021,-2.0276,-2.0326,-2.0361,-2.0366,-2.037,-2.041,-2.041,-2.041,-2.041,-2.0441,-2.0475,-2.0475,-2.0513,-2.0542,-2.0565,-2.0565,-2.0859,-2.6008,-2.7828,-2.9598,-2.9934,-2.7285,-2.4329,0.0,0.0,-1.8216,-1.8204,-1.8216,-1.8392,-1.8883,-1.8983,-1.8668,-1.7564,-1.784,0.0,0.0,0.0,0.0,0.0,0.0,0.0,0.0,0.0,0.0,0.0,0.0,0.0,0.0,-2.2074,-2.2323,-2.358,-2.3011,-2.2724,-2.2724,-2.2024,-2.138,-2.0722,-2.0722,-2.0363,-1.969,-1.9726,-2.0174,0.0,0.0,0.0,0.0,-2.1354,-2.1244,-2.1628,-2.1582,-2.1582,-2.1658,-2.2135,-2.231,-2.231,-2.231,-2.231,-2.231,-2.231,-2.231,-2.2377,-2.2634,-2.2947,-2.3259,-2.361,-2.279,-2.1584,-2.0739,-1.9895,-1.9305,-1.9305,-1.9305,-1.9305,-1.9305,-1.9305,-1.9305,-1.9305,-1.9305,-1.9305,-1.9305,-1.9305,-1.9305,-1.9305,-1.9467,-1.9596,-1.9596,-1.9732,-1.979,-1.979,-1.979,-1.9858,-1.9984,-2.0197,-2.0292,-2.0307,-2.0294,-2.0327,-2.0406,-2.041,-2.041,-2.041,-2.041,-2.0391,-2.0391,-2.0391,-2.0435,-2.0508,-2.0508,-2.1438,-2.3573,-2.538,-2.6836,-2.7287,-2.5131,-2.2802,-2.2425,0.0,-1.7639,-1.7639,-1.794,-1.8254,-1.843,-1.8468,-1.8229,-1.7501,-1.7526,0.0,0.0,0.0,0.0,0.0,0.0,0.0,0.0,0.0,0.0,0.0,0.0,0.0,0.0,-2.0462,-2.1355,-2.2951,-2.2338,-2.1799,-2.1335,-2.1126,-2.0677,-2.0004,-2.0004,-1.9899,-1.969,-1.969,0.0,0.0,0.0,0.0,0.0,-2.0465,-2.0698,-2.1552,-2.0927,-2.091,-2.1213,-2.1354,-2.1584,-2.1823,-2.1823,-2.2032,-2.231,-2.231,-2.1955,-2.1661,-2.2245,-2.2643,-2.2695,-2.1981,-2.1133,-2.0243,-1.9416,-1.9146,-1.9084,-1.9084,-1.9198,-1.9305,-1.9305,-1.9305,-1.9305,-1.9305,-1.9305,-1.9305,-1.9305,-1.9305,-1.9305,-1.9305,-1.935,-1.9394,-1.9394,-1.9419,-1.9462,-1.9462,-1.9591,-1.975,-1.9974,-2.006,-2.015,-2.0292,-2.0299,-2.0313,-2.0321,-2.0321,-2.0321,-2.0321,-2.0338,-2.0327,-2.0327,-2.037,-2.0418,-2.0432,-2.0432,-2.0734,0.0,-2.3193,-2.4321,-2.4674,-2.2821,0.0,0.0,0.0,-1.7112,-1.7338,-1.7476,-1.7639,-1.7852,-1.7691,-1.7353,-1.6811,-1.6703,0.0,0.0,0.0,0.0,0.0,0.0,0.0,0.0,0.0,0.0,0.0,0.0,0.0,0.0,0.0,-1.9991,-2.1289,-2.1142,-2.0917,-2.0684,-2.0453,-2.0109,-1.969,-1.969,-1.969,-1.969,-1.969,0.0,0.0,0.0,0.0,0.0,-2.005,-2.0261,-2.107,-2.0501,-2.0483,-2.0764,-2.0926,-2.1244,-2.1582,-2.1582,-2.1794,-2.2077,-2.2237,-2.1803,-2.1305,-2.1752,-2.2063,-2.2,-2.067,-2.0047,-1.9617,-1.8816,-1.8734,-1.8861,-1.8861,-1.8948,-1.9048,-1.9148,-1.9198,-1.9214,-1.9289,-1.9305,-1.9274,-1.9198,-1.9198,-1.9198,-1.9198,-1.9198,-1.9196,-1.9289,-1.9305,-1.9305,-1.9305,-1.9409,-1.9591,-1.9824,-1.9901,-1.9982,-2.0098,-2.0171,-2.0188,-2.0188,-2.0269,-2.0312,-2.0312,-2.0294,-2.0302,-2.0302,-2.0341,-2.0357,-2.0357,-2.0398,-2.0585,0.0,-2.133,0.0,0.0,0.0,0.0,0.0,0.0,0.0,-1.7212,-1.6886,-1.6654,-1.723,-1.6788,-1.6158,-1.5674,-1.5545,0.0,0.0,0.0,0.0,0.0,0.0,0.0,0.0,0.0,0.0,0.0,0.0,0.0,0.0,0.0,-1.8345,-1.8934,-1.9466,-1.9972,-2.0519,-1.993,-1.9639,-1.9639,-1.969,-1.969,-1.969,-1.969,0.0,0.0,0.0,0.0,0.0,-2.005,-1.9929,-2.0314,-2.028,-2.0246,-2.0314,-2.0764,-2.115,-2.1505,-2.1472,-2.1439,-2.1529,-2.1876,-2.1562,-2.1022,-2.0948,-2.1156,-2.1112,-1.967,-1.9454,-1.9487,-1.8741,-1.8547,-1.8566,-1.8566,-1.8585,-1.8678,-1.8914,-1.8966,-1.9035,-1.9212,-1.9259,-1.918,-1.9001,-1.8966,-1.8966,-1.8966,-1.8966,-1.9052,-1.9227,-1.9259,-1.9259,-1.9274,-1.9274,-1.935,-1.9555,-1.972,-1.9797,-1.979,-1.9922,-1.9993,-1.9993,-2.018,-2.0269,-2.0277,-2.0285,-2.0312,-2.0312,-2.0302,-2.0301,-2.0301,-2.0352,-2.083,-1.9899,0.0,-1.9899,-2.03,-1.9384,0.0,0.0,0.0,0.0,0.0,0.0,-1.6511,-1.6556,-1.6166,-1.568,-1.5438,-1.5348,0.0,0.0,0.0,0.0,0.0,0.0,0.0,0.0,0.0,0.0,0.0,0.0,0.0,0.0,0.0,-1.7157,-1.7717,-1.7841,-1.8166,-1.8722,-1.8965,-1.9095,-1.9095,-1.9479,-1.969,-1.969,-1.969,0.0,0.0,0.0,0.0,-2.0416,-1.9909,-1.9929,-2.028,-1.9965,-1.9839,-1.9839,-1.9945,-2.0261,-2.0538,-2.0067,-2.0114,-2.0226,-1.9256,-1.9197,-1.935,-1.8476,-1.8824,-1.9454,-1.9096,-1.8631,-1.8237,-1.8044,-1.8125,-1.829,-1.829,-1.845,-1.8622,-1.8678,-1.8679,-1.8715,-1.8753,-1.8753,-1.8753,-1.8698,-1.8679,-1.8679,-1.8679,-1.8679,-1.8698,-1.8771,-1.8753,-1.8843,-1.9052,-1.9069,-1.915,-1.935,-1.9536,-1.9695,-1.9778,-1.9824,-1.9847,-1.9847,-1.9899,-1.9962,-2.0069,-2.0214,-2.0312,-2.0312,-2.0296,-2.0304,-2.0304,-2.0325,-2.0436,-1.9736,-1.9597,-1.9447,-1.9736,-1.8784,-1.7798,0.0,0.0,0.0,0.0,0.0,-1.565,-1.558,-1.529,0.0,0.0,0.0,0.0,0.0,0.0,0.0,0.0,0.0,0.0,0.0,0.0,0.0,0.0,0.0,0.0,0.0,0.0,-1.6637,-1.6909,-1.6909,-1.7312,-1.8106,-1.838,-1.865,-1.8893,-1.9207,-1.9442,-1.969,-1.969,0.0,0.0,0.0,0.0,-2.0,-1.9782,-1.9854,-2.0,-1.9782,-1.969,-1.969,-1.969,-1.9782,-1.9818,-1.951,-1.9468,-1.9386,-1.8432,-1.8311,-1.8393,-1.775,-1.7748,-1.8012,-1.8316,-1.8115,-1.7811,-1.7811,-1.7905,-1.8014,-1.8014,-1.8125,-1.827,-1.8391,-1.841,-1.845,-1.8566,-1.8585,-1.8566,-1.843,-1.841,-1.841,-1.841,-1.841,-1.8469,-1.8585,-1.8585,-1.8659,-1.8789,-1.8807,-1.8913,-1.915,-1.9164,-1.9268,-1.9553,-1.965,-1.972,-1.972,-1.9774,-1.9836,-1.9912,-2.0021,-2.0079,-2.0079,-2.0134,-2.0161,-2.0161,-2.0269,-2.0312,-1.9394,-1.9639,-1.9784,-1.9641,-1.8481,-1.7296,0.0,0.0,0.0,0.0,0.0,0.0,0.0,0.0,0.0,0.0,0.0,0.0,0.0,0.0,0.0,0.0,0.0,0.0,0.0,0.0,0.0,0.0,0.0,0.0,0.0,0.0,0.0,-1.6522,-1.6522,-1.6951,-1.7867,-1.7947,-1.8224,-1.865,-1.8727,-1.9043,-1.9566,-1.9566,-1.9603,0.0,0.0,0.0,-1.969,-1.969,-1.969,-1.969,-1.969,-1.969,-1.969,-1.969,-1.9596,-1.9427,-1.9211,-1.8873,-1.8473,-1.8095,-1.7822,-1.7598,-1.7625,-1.7226,-1.6866,-1.7455,-1.7681,-1.7743,-1.7789,-1.7811,-1.7811,-1.7811,-1.7811,-1.7878,-1.8082,-1.8125,-1.8208,-1.843,-1.8469,-1.841,-1.8166,-1.8125,-1.8125,-1.8125,-1.8125,-1.8229,-1.845,-1.8469,-1.8489,-1.8528,-1.8528,-1.8659,-1.8914,-1.8734,-1.8771,-1.918,-1.935,-1.9471,-1.9499,-1.9676,-1.983,-1.9962,-1.9854,-1.9866,-1.9979,-1.9979,-1.9983,-1.9964,-2.0143,-2.0225,-1.819,-1.8946,-1.9606,-1.8993,-1.817,-1.7362,0.0,0.0,0.0,0.0,0.0,0.0,0.0,0.0,0.0,0.0,0.0,0.0,0.0,0.0,0.0,0.0,0.0,0.0,0.0,0.0,0.0,0.0,0.0,0.0,0.0,0.0,0.0,-1.6522,-1.6522,-1.6595,-1.6752,-1.7188,-1.7463,-1.7544,-1.8027,-1.8496,-1.9006,-1.9006,-1.9281,0.0,0.0,-1.969,-1.969,-1.969,-1.969,-1.969,-1.969,-1.969,-1.969,-1.969,-1.9687,-1.9481,-1.8353,-1.7227,-1.6287,-1.6215,-1.6168,-1.6192,-1.6456,-1.646,-1.6448,-1.6825,-1.715,-1.7439,-1.7726,-1.7811,-1.7811,-1.7811,-1.7811,-1.7811,-1.7839,-1.7878,-1.7861,-1.7905,-1.7927,-1.7905,-1.7861,-1.7878,-1.7878,-1.7878,-1.7878,-1.7878,-1.7927,-1.7927,-1.8014,-1.8229,-1.827,-1.8371,-1.8641,-1.8623,-1.8623,-1.8698,-1.8753,-1.886,-1.9086,-1.9442,-1.9953,-2.063,-2.0095,-2.0149,-2.0816,-2.0153,-1.9824,-1.9824,-1.9866,-1.9877,-1.7105,-1.75,-1.7915,-1.7578,-1.7838,-1.8003,0.0,0.0,0.0,0.0,0.0,0.0,0.0,0.0,0.0,0.0,0.0,0.0,0.0,0.0,0.0,0.0,0.0,0.0,0.0,0.0,0.0,0.0,0.0,0.0,0.0,0.0,0.0,0.0,-1.6324,-1.6522,-1.6522,-1.6752,-1.6993,-1.7312,-1.7544,-1.7947,-1.8496,-1.8765,-1.9043,-1.9281,0.0,-1.969,-1.969,-1.969,-1.969,-1.969,-1.969,-1.969,-1.9681,-1.9286,-1.9151,-1.8972,-1.7608,-1.6771,-1.6234,-1.5918,-1.5799,-1.5827,-1.5983,-1.6039,-1.608,-1.6436,-1.6773,-1.7052,-1.7216,-1.7384,-1.7526,-1.7526,-1.7681,-1.7811,-1.7811,-1.7811,-1.7811,-1.7811,-1.7811,-1.7811,-1.7811,-1.7811,-1.7811,-1.7811,-1.7811,-1.7811,-1.7811,-1.7811,-1.7856,-1.7971,-1.7992,-1.8082,-1.8371,-1.8249,-1.829,-1.8585,-1.8585,-1.8659,-1.877,-1.8964,-1.9512,-2.0466,-2.016,-2.0248,-2.0726,-2.0466,-2.0126,-1.9695,-1.9774,-1.979,-1.5957,-1.6074,-1.6234,-1.6131,0.0,0.0,0.0,0.0,0.0,0.0,0.0,0.0,0.0,0.0,0.0,0.0,0.0,0.0,0.0,0.0,0.0,0.0,0.0,0.0,0.0,0.0,0.0,0.0,0.0,0.0,0.0,0.0,0.0,0.0,-1.5917,-1.6318,-1.6321,-1.6459,-1.671,-1.7118,-1.6974,-1.7248,-1.7933,-1.8226,-1.8546,-1.893,-1.9332,-1.9566,-1.969,-1.969,-1.969,-1.969,-1.969,-1.969,-1.963,-1.9121,-1.8747,-1.8328,-1.7294,-1.6741,-1.6398,-1.5963,-1.5799,-1.5799,-1.5799,-1.5799,-1.5856,-1.6123,-1.6382,-1.6607,-1.6763,-1.6977,-1.7175,-1.7175,-1.7384,-1.7589,-1.7658,-1.7681,-1.7704,-1.7789,-1.7811,-1.7811,-1.7811,-1.7811,-1.7811,-1.7811,-1.7811,-1.7811,-1.7811,-1.7811,-1.7811,-1.7811,-1.7811,-1.7951,-1.834,-1.8007,-1.8039,-1.8635,-1.8575,-1.8508,-1.8508,-1.8566,-1.916,-2.0334,-2.001,-2.0084,-2.0588,-2.0439,-2.0048,-1.9456,-1.9612,-1.9682,-1.468,-1.5019,-1.538,-1.5044,-1.5615,0.0,-1.7278,0.0,0.0,0.0,0.0,0.0,0.0,0.0,0.0,0.0,0.0,0.0,0.0,0.0,0.0,0.0,0.0,0.0,0.0,0.0,0.0,0.0,0.0,0.0,0.0,0.0,0.0,0.0,0.0,-1.5678,-1.5756,-1.6258,-1.6522,-1.6552,-1.6036,-1.6365,-1.7327,-1.6864,-1.749,-1.8893,-1.893,-1.9244,-1.969,-1.969,-1.969,-1.969,-1.969,-1.969,-1.9675,-1.963,-1.8837,-1.7757,-1.7652,-1.6862,-1.5858,-1.5814,-1.5799,-1.5799,-1.5799,-1.5799,-1.5799,-1.5827,-1.5856,-1.6011,-1.6633,-1.6815,-1.6841,-1.6841,-1.6841,-1.6968,-1.7272,-1.7344,-1.7415,-1.7726,-1.7811,-1.7811,-1.7811,-1.7811,-1.7811,-1.7811,-1.7811,-1.7811,-1.7811,-1.7811,-1.7811,-1.7811,-1.7811,-1.8082,-1.8782,-1.82,-1.8099,-1.8829,-1.8478,-1.8229,-1.8229,-1.8469,-1.9294,-2.0823,-1.9438,-1.9422,-2.0862,-1.9705,-1.9089,-1.9052,-1.9243,-1.9335,-1.3616,-1.4245,-1.4922,-1.4492,-1.4869,0.0,0.0,0.0,0.0,0.0,0.0,0.0,0.0,0.0,0.0,0.0,0.0,0.0,0.0,0.0,0.0,0.0,0.0,0.0,0.0,0.0,0.0,0.0,0.0,0.0,0.0,0.0,0.0,0.0,0.0,-1.4817,-1.5178,-1.5392,-1.5492,-1.5492,-1.563,-1.5916,-1.6299,-1.61,-1.6321,-1.6964,-1.7984,-1.8535,-1.8758,-1.9439,-1.969,-1.969,-1.969,-1.969,-1.969,-1.969,-1.9106,-1.8268,-1.7832,-1.71,-1.6308,-1.5933,-1.5799,-1.5799,-1.5799,-1.5799,-1.5799,-1.5799,-1.5799,-1.5856,-1.6108,-1.6313,-1.6474,-1.6474,-1.6659,-1.6841,-1.6952,-1.6977,-1.7043,-1.7167,-1.7361,-1.7502,-1.7502,-1.7658,-1.7811,-1.7811,-1.7811,-1.7811,-1.7811,-1.7811,-1.7811,-1.7811,-1.7983,-1.8526,-1.9512,-1.911,-1.8835,-1.891,-1.8291,-1.7949,-1.7949,-1.8057,-1.8693,-1.9934,-1.9391,-1.9474,-2.022,-1.9731,-1.9234,-1.8752,-1.8843,-1.886,-1.3055,-1.3525,-1.4087,0.0,0.0,0.0,0.0,0.0,0.0,0.0,0.0,0.0,0.0,0.0,0.0,0.0,0.0,0.0,0.0,0.0,0.0,0.0,0.0,0.0,0.0,0.0,0.0,0.0,0.0,0.0,0.0,0.0,0.0,0.0,0.0,-1.3998,-1.4372,-1.4738,-1.4916,-1.4916,-1.5117,-1.5266,-1.5469,-1.544,-1.5559,-1.5758,-1.7042,-1.7689,-1.7913,-1.8796,-1.9254,-1.939,-1.96,-1.9555,-1.9405,-1.9615,-1.9136,-1.8328,-1.7847,-1.713,-1.6338,-1.5933,-1.5799,-1.5799,-1.5799,-1.5799,-1.5799,-1.5799,-1.5799,-1.5799,-1.5799,-1.5983,-1.6136,-1.6136,-1.6328,-1.6501,-1.6607,-1.6633,-1.6659,-1.6789,-1.6977,-1.715,-1.715,-1.7337,-1.7479,-1.7479,-1.7479,-1.7479,-1.7479,-1.7479,-1.7579,-1.7788,-1.8103,-1.8654,-1.9565,-1.9203,-1.8805,-1.8602,-1.7878,-1.7589,-1.7789,-1.7811,-1.8245,-1.9228,-1.9004,-1.9113,-1.951,-1.9366,-1.9019,-1.8469,-1.8547,-1.8709,-1.3065,-1.2881,-1.2791,0.0,0.0,0.0,0.0,0.0,0.0,0.0,0.0,0.0,0.0,0.0,0.0,0.0,0.0,0.0,0.0,0.0,0.0,0.0,0.0,0.0,0.0,0.0,0.0,0.0,0.0,0.0,0.0,0.0,0.0,0.0,0.0,0.0,-1.3281,-1.4347,-1.4903,-1.489,-1.4337,-1.4362,-1.4903,-1.489,-1.5184,-1.5721,-1.6254,-1.6777,-1.7344,-1.787,-1.8326,-1.8728,-1.942,-1.9286,-1.8792,-1.9435,-1.8837,-1.7682,-1.7682,-1.6862,-1.5799,-1.5799,-1.5799,-1.5799,-1.5799,-1.5799,-1.5799,-1.5799,-1.5799,-1.5799,-1.5799,-1.5799,-1.5799,-1.5799,-1.5799,-1.587,-1.6219,-1.6301,-1.6394,-1.6738,-1.6789,-1.6789,-1.6789,-1.6789,-1.6789,-1.6789,-1.6789,-1.6789,-1.6789,-1.6789,-1.7061,-1.7736,-1.8081,-1.8453,-1.8888,-1.8243,-1.7828,-1.7893,-1.7199,-1.7117,-1.7766,-1.7789,-1.8149,-1.8877,-1.8166,-1.8166,-1.8877,-1.8422,-1.8187,-1.8208,-1.8487,-1.899,-1.2335,-1.2563,0.0,0.0,0.0,0.0,0.0,0.0,0.0,0.0,0.0,0.0,0.0,0.0,0.0,0.0,0.0,0.0,0.0,0.0,0.0,0.0,0.0,0.0,0.0,0.0,0.0,0.0,0.0,0.0,0.0,0.0,0.0,0.0,0.0,0.0,-1.2247,-1.2889,-1.3192,-1.3228,-1.3405,-1.376,-1.4311,-1.3898,-1.3781,-1.3983,-1.4918,-1.5648,-1.6261,-1.756,-1.7974,-1.7782,-1.8333,-1.8229,-1.7776,-1.8245,-1.7646,-1.6632,-1.6901,-1.6473,-1.5799,-1.5799,-1.5799,-1.5799,-1.5799,-1.5799,-1.5799,-1.5799,-1.5799,-1.5799,-1.5799,-1.5799,-1.5799,-1.5799,-1.5799,-1.5827,-1.5926,-1.5955,-1.5983,-1.6095,-1.6301,-1.6448,-1.6448,-1.6633,-1.6789,-1.6789,-1.6789,-1.6789,-1.6789,-1.6789,-1.7071,-1.7802,-1.7717,-1.7959,-1.8901,-1.8501,-1.8142,-1.7925,-1.7701,-1.7546,-1.7448,-1.7439,-1.7673,-1.8132,-1.7912,-1.7912,-1.8132,-1.8002,-1.7927,-1.7922,-1.8545,-1.8927,-1.1972,0.0,0.0,0.0,0.0,0.0,0.0,0.0,0.0,0.0,0.0,0.0,0.0,0.0,0.0,0.0,0.0,0.0,0.0,0.0,0.0,0.0,0.0,0.0,0.0,0.0,0.0,0.0,0.0,0.0,0.0,0.0,0.0,0.0,0.0,0.0,-1.1468,-1.2174,-1.2508,-1.2508,-1.2978,-1.3408,-1.3722,-1.3609,-1.3446,-1.327,-1.4153,-1.4817,-1.5429,-1.665,-1.6917,-1.6653,-1.7214,-1.7089,-1.6661,-1.7164,-1.673,-1.5909,-1.6134,-1.5823,-1.5285,-1.5285,-1.5389,-1.5522,-1.5522,-1.5522,-1.5551,-1.5741,-1.5668,-1.5551,-1.5741,-1.5799,-1.5799,-1.5799,-1.5604,-1.5484,-1.5739,-1.5589,-1.5484,-1.5754,-1.5955,-1.608,-1.608,-1.6274,-1.6394,-1.6394,-1.6394,-1.6394,-1.6394,-1.6528,-1.6806,-1.7343,-1.735,-1.7521,-1.8042,-1.7852,-1.7545,-1.7089,-1.7308,-1.7373,-1.731,-1.7173,-1.7396,-1.8047,-1.7887,-1.8012,-1.8434,-1.8269,-1.8194,-1.8211,-1.8818,-1.9018,-1.1968,0.0,0.0,0.0,0.0,0.0,0.0,0.0,0.0,0.0,0.0,0.0,0.0,0.0,0.0,0.0,0.0,0.0,0.0,0.0,0.0,0.0,0.0,0.0,0.0,0.0,0.0,0.0,0.0,0.0,0.0,0.0,0.0,0.0,0.0,0.0,-1.0943,-1.1872,-1.2401,0.0,-1.2908,-1.3163,-1.3223,-1.3783,-1.3709,-1.3223,-1.3846,-1.43,-1.4699,-1.5369,-1.5528,-1.542,-1.6097,-1.5958,-1.5468,-1.609,-1.591,-1.5349,-1.5383,-1.5022,-1.4501,-1.4501,-1.4752,-1.5029,-1.5002,-1.5,-1.512,-1.5506,-1.5345,-1.5134,-1.558,-1.5668,-1.5668,-1.5668,-1.525,-1.4981,-1.5606,-1.5263,-1.4996,-1.5621,-1.577,-1.5799,-1.5799,-1.5799,-1.5799,-1.5799,-1.5799,-1.5799,-1.5799,-1.6067,-1.6353,-1.6578,-1.6938,-1.7027,-1.6652,-1.6622,-1.6368,-1.5829,-1.6353,-1.6849,-1.7221,-1.7042,-1.74,-1.8431,-1.8087,-1.8382,-1.9345,-1.8997,-1.8795,-1.8795,-1.9244,-1.9244,0.0,-1.1467,0.0,0.0,0.0,0.0,0.0,0.0,0.0,0.0,0.0,0.0,0.0,0.0,0.0,0.0,0.0,0.0,0.0,0.0,0.0,0.0,0.0,0.0,0.0,0.0,0.0,0.0,0.0,0.0,0.0,0.0,0.0,0.0,0.0,-1.0467,-1.0467,-1.1019,-1.1542,0.0,-1.2437,-1.2826,-1.3198,-1.3311,-1.3311,-1.3223,-1.3846,-1.3905,-1.361,-1.4637,-1.4788,-1.4449,-1.5016,-1.4887,-1.4469,-1.4928,-1.4747,-1.4272,-1.4598,-1.4612,-1.4501,-1.4501,-1.4564,-1.453,-1.4116,-1.4312,-1.4561,-1.4236,-1.4387,-1.4658,-1.4752,-1.4783,-1.4783,-1.4783,-1.4898,-1.5065,-1.5226,-1.5153,-1.5065,-1.5226,-1.5551,-1.5799,-1.5799,-1.5799,-1.5799,-1.5799,-1.5799,-1.5799,-1.5799,-1.5856,-1.593,-1.5993,-1.6067,-1.6096,-1.6008,-1.5979,-1.5948,-1.5814,-1.6353,-1.6742,-1.6834,-1.75,-1.815,-1.8699,-1.863,-1.8709,-1.894,-1.8853,-1.8795,-1.881,-1.9487,-1.9468,0.0,0.0,0.0,0.0,0.0,0.0,0.0,0.0,0.0,0.0,0.0,0.0,0.0,0.0,0.0,0.0,0.0,0.0,0.0,0.0,0.0,0.0,0.0,0.0,0.0,0.0,0.0,0.0,0.0,0.0,0.0,0.0,0.0,0.0,-1.0615,-1.0283,-1.0283,-1.0764,-1.1132,-1.1431,-1.2138,-1.2756,-1.3198,-1.3198,-1.3198,-1.3223,-1.3534,-1.3496,-1.3248,-1.3848,-1.391,-1.3684,-1.3973,-1.391,-1.3695,-1.3881,-1.3805,-1.3581,-1.3802,-1.3868,-1.3868,-1.3868,-1.3819,-1.3798,-1.3785,-1.3798,-1.3829,-1.4032,-1.4141,-1.4246,-1.4438,-1.4501,-1.4501,-1.4501,-1.4404,-1.4417,-1.4744,-1.4558,-1.4431,-1.4758,-1.5013,-1.5165,-1.5165,-1.5165,-1.5165,-1.5165,-1.5359,-1.5448,-1.5448,-1.5668,-1.5799,-1.5799,-1.6054,-1.6099,-1.5829,-1.6054,-1.6234,-1.6234,-1.6816,-1.7324,-1.7637,-1.8483,-1.896,-1.9107,-1.8874,-1.8982,-1.9515,-1.9308,-1.9227,-1.9227,-1.9811,-1.9452,0.0,0.0,0.0,0.0,0.0,0.0,0.0,0.0,0.0,0.0,0.0,0.0,0.0,0.0,0.0,0.0,0.0,0.0,0.0,0.0,0.0,0.0,0.0,0.0,0.0,0.0,0.0,0.0,0.0,0.0,0.0,0.0,-1.1685,-1.1606,-1.0842,-1.0352,-1.0283,-1.0687,-1.0905,-1.1008,-1.1945,-1.2579,-1.2943,-1.2943,-1.306,-1.3198,-1.3198,-1.3198,-1.3198,-1.3198,-1.3198,-1.3198,-1.3198,-1.3198,-1.3198,-1.3198,-1.3198,-1.3198,-1.3198,-1.3198,-1.3198,-1.3198,-1.305,-1.3001,-1.35,-1.3303,-1.3076,-1.3884,-1.3971,-1.3868,-1.4181,-1.4278,-1.4278,-1.4278,-1.3848,-1.3618,-1.4265,-1.3946,-1.3724,-1.4278,-1.4438,-1.4501,-1.4501,-1.4501,-1.4501,-1.4501,-1.485,-1.5127,-1.5118,-1.5447,-1.5699,-1.5683,-1.6054,-1.6127,-1.5625,-1.6111,-1.648,-1.648,-1.7187,-1.7851,-1.8381,-1.9066,-1.9355,-1.9177,-1.9004,-1.933,-2.0193,-1.9874,-1.969,-1.9726,-2.0035,-1.9318,0.0,0.0,0.0,0.0,0.0,0.0,0.0,0.0,0.0,0.0,0.0,0.0,0.0,0.0,0.0,0.0,0.0,0.0,0.0,0.0,0.0,0.0,0.0,0.0,0.0,0.0,0.0,0.0,0.0,0.0,0.0,-1.2412,-1.1963,-1.1616,-1.1084,-1.0654,-1.0283,-1.0361,-1.0611,-1.1019,-1.1616,-1.192,-1.1993,-1.1993,-1.2437,-1.3198,-1.3198,-1.3198,-1.3198,-1.3198,-1.3198,-1.3198,-1.3198,-1.3198,-1.3198,-1.3198,-1.3198,-1.3198,-1.3198,-1.3198,-1.3198,-1.3198,-1.2889,-1.2513,-1.2589,-1.2551,-1.2513,-1.2653,-1.2989,-1.3288,-1.3357,-1.3357,-1.3357,-1.3357,-1.3306,-1.3369,-1.3875,-1.39,-1.386,-1.3954,-1.4246,-1.4501,-1.4501,-1.4501,-1.4501,-1.4501,-1.4943,-1.5226,-1.51,-1.5248,-1.531,-1.5192,-1.4947,-1.4742,-1.469,-1.5184,-1.5499,-1.5499,-1.6556,-1.7223,-1.7306,-1.7967,-1.8285,-1.8278,-1.9112,-1.9636,-1.9782,-1.9726,-1.969,-1.969,-1.9747,-1.9041,0.0,0.0,0.0,0.0,0.0,0.0,0.0,0.0,0.0,0.0,0.0,0.0,0.0,0.0,0.0,0.0,0.0,0.0,0.0,0.0,0.0,0.0,0.0,0.0,0.0,0.0,0.0,0.0,0.0,0.0,-1.2881,-1.2461,-1.2021,-1.1616,-1.1133,-1.0713,-1.0283,-1.0283,-1.0544,-1.1019,-1.0992,-1.1255,-1.1774,-1.1505,-1.1726,-1.2437,-1.2437,-1.2579,-1.2803,-1.2803,-1.2943,-1.3198,-1.3198,-1.3198,-1.3198,-1.3198,-1.3198,-1.3198,-1.3198,-1.2998,-1.2735,-1.2735,-1.2146,-1.1495,-1.1851,-1.1726,-1.1507,-1.1864,-1.2341,-1.2735,-1.2735,-1.2973,-1.3198,-1.3198,-1.3198,-1.3267,-1.3459,-1.3514,-1.3514,-1.3514,-1.3648,-1.3769,-1.3769,-1.3769,-1.3887,-1.4235,-1.4413,-1.46,-1.4834,-1.4878,-1.4823,-1.478,-1.5207,-1.5371,-1.4974,-1.5799,-1.6299,-1.6299,-1.6793,-1.727,-1.7653,-1.7954,-1.8106,-1.8106,-1.8574,-1.8968,-1.9244,-1.9244,-1.9244,-1.9244,-1.9244,-1.8564,0.0,0.0,0.0,0.0,0.0,0.0,0.0,0.0,0.0,0.0,0.0,0.0,0.0,0.0,0.0,0.0,0.0,0.0,0.0,0.0,0.0,0.0,0.0,0.0,0.0,0.0,0.0,0.0,0.0,0.0,-1.2881,-1.2461,-1.2021,-1.1616,-1.1133,-1.0713,-1.0283,-1.0283,-1.0467,-1.0829,-1.0467,-1.0697,-1.1404,-1.0981,-1.1019,-1.1442,-1.17,-1.1993,-1.2318,-1.2318,-1.2544,-1.2826,-1.2826,-1.2908,-1.3012,-1.3012,-1.3094,-1.3198,-1.3198,-1.2835,-1.2416,-1.2416,-1.165,-1.0806,-1.1412,-1.1186,-1.0844,-1.16,-1.209,-1.2441,-1.258,-1.2897,-1.3198,-1.3198,-1.3198,-1.3198,-1.3198,-1.3198,-1.3198,-1.3198,-1.3198,-1.3198,-1.3198,-1.3198,-1.3336,-1.3808,-1.3912,-1.4096,-1.4441,-1.4433,-1.4376,-1.4356,-1.5168,-1.5546,-1.5031,-1.6079,-1.6752,-1.6752,-1.6847,-1.7168,-1.7679,-1.7706,-1.7706,-1.7706,-1.7706,-1.8027,-1.8688,-1.8688,-1.8688,-1.8688,-1.8688,-1.812,0.0,0.0,0.0,0.0,0.0,0.0,0.0,0.0,0.0,0.0,0.0,0.0,0.0,0.0,0.0,0.0,0.0,0.0,0.0,0.0,0.0,0.0,0.0,0.0,0.0,0.0,0.0,0.0,0.0,0.0,-1.2881,-1.2461,-1.2021,-1.1616,-1.1133,-1.0713,-1.0283,-1.0283,-1.0322,-1.0361,-1.0322,-1.0322,-1.04,-1.0361,-1.0351,-1.0428,-1.1404,-1.1811,-1.1847,-1.1847,-1.1847,-1.1884,-1.1884,-1.2138,-1.2544,-1.2544,-1.2838,-1.3198,-1.3198,-1.2835,-1.2416,-1.2416,-1.165,-1.0806,-1.1412,-1.1186,-1.0919,-1.2065,-1.2391,-1.2529,-1.3023,-1.3173,-1.3198,-1.3198,-1.3198,-1.3198,-1.3198,-1.3198,-1.3198,-1.3198,-1.3198,-1.3198,-1.3198,-1.3198,-1.321,-1.3235,-1.3732,-1.406,-1.394,-1.4037,-1.4082,-1.3921,-1.411,-1.4183,-1.4158,-1.5131,-1.5774,-1.5774,-1.6267,-1.657,-1.6595,-1.6595,-1.6595,-1.6595,-1.6595,-1.7118,-1.8145,-1.8145,-1.8145,-1.8145,-1.8145,-1.7774,0.0,0.0,0.0,0.0,0.0,0.0,0.0,0.0,0.0,0.0,0.0,0.0,0.0,0.0,0.0,0.0,0.0,0.0,0.0,0.0,0.0,0.0,0.0,0.0,0.0,0.0,0.0,0.0,0.0,0.0,-1.2881,-1.2734,-1.2451,-1.2002,-1.1836,-1.1406,-1.0693,-1.042,-1.0283,-1.0283,-1.0283,-1.0283,-1.0283,-1.0283,-1.0127,-0.9863,-1.0223,-1.0578,-1.0913,-1.0913,-1.095,-1.1002,-1.125,-1.1433,-1.1641,-1.1894,-1.1929,-1.1881,-1.2098,-1.1647,-1.1027,-1.1236,-1.064,-0.9909,-1.0104,-1.0031,-0.9958,-1.0347,-1.1146,-1.1927,-1.2128,-1.2672,-1.3116,-1.2838,-1.2508,-1.2282,-1.2282,-1.2756,-1.3198,-1.3198,-1.3198,-1.3194,-1.3119,-1.2902,-1.2842,-1.3158,-1.2855,-1.2829,-1.3446,-1.3276,-1.3175,-1.3404,-1.4145,-1.4614,-1.4614,-1.5593,-1.622,-1.622,-1.6409,-1.6522,-1.6522,-1.6522,-1.6522,-1.6522,-1.6522,-1.6879,-1.7585,-1.7585,-1.7585,-1.7585,-1.7585,-1.7275,0.0,0.0,0.0,0.0,0.0,0.0,0.0,0.0,0.0,0.0,0.0,0.0,0.0,0.0,0.0,0.0,0.0,0.0,0.0,0.0,0.0,0.0,0.0,0.0,0.0,0.0,0.0,0.0,0.0,0.0,-1.2881,-1.2744,-1.2461,-1.2021,-1.1865,-1.1572,-1.1133,-1.0566,-1.0352,-1.0488,-1.0352,-1.0283,-1.0273,-1.0127,-0.9902,-0.9592,-0.9447,-0.9591,-0.9953,-1.0072,-1.0074,-1.0037,-1.0424,-1.0614,-1.0642,-1.0922,-1.0989,-1.0943,-1.1164,-1.0696,-1.0026,-1.0257,-0.9813,-0.9244,-0.9391,-0.9321,-0.9287,-0.977,-1.0504,-1.1283,-1.1775,-1.2435,-1.2838,-1.2401,-1.2029,-1.1811,-1.1811,-1.2389,-1.2978,-1.2978,-1.3094,-1.3124,-1.2911,-1.2686,-1.2552,-1.2715,-1.2188,-1.2045,-1.2712,-1.2492,-1.2496,-1.3153,-1.4075,-1.4693,-1.4851,-1.5677,-1.6107,-1.5932,-1.6107,-1.6194,-1.6194,-1.638,-1.6522,-1.6522,-1.6281,-1.6355,-1.6744,-1.6744,-1.6744,-1.6701,-1.6532,-1.633,0.0,0.0,0.0,0.0,0.0,0.0,0.0,0.0,0.0,0.0,0.0,0.0,0.0,0.0,0.0,0.0,0.0,0.0,0.0,0.0,0.0,0.0,0.0,0.0,0.0,0.0,0.0,0.0,0.0,-1.2881,-1.2881,-1.248,-1.2051,-1.1655,-1.1172,-1.1152,-1.1616,-1.0773,-1.0508,-1.0908,-1.0478,-1.0283,-1.0264,-0.9834,-0.9592,-0.9554,-0.918,-0.8994,-0.8994,-0.9388,-0.931,-0.9014,-0.9398,-0.9607,-0.9656,-0.9677,-1.0005,-1.0455,-1.0455,-1.0094,-0.9574,-0.9586,-0.9231,-0.8923,-0.9374,-0.9184,-0.9095,-1.0487,-1.0598,-1.064,-1.2095,-1.2473,-1.2354,-1.1884,-1.1774,-1.1774,-1.1774,-1.2102,-1.2473,-1.2473,-1.2838,-1.3012,-1.2567,-1.2473,-1.2294,-1.1833,-1.1748,-1.1774,-1.1774,-1.1774,-1.215,-1.3184,-1.376,-1.4244,-1.4719,-1.5259,-1.532,-1.4744,-1.5231,-1.5588,-1.5588,-1.6151,-1.6436,-1.6436,-1.5864,-1.5588,-1.5588,-1.5588,-1.5588,-1.5543,-1.4971,-1.5017,-0.8956,0.0,0.0,0.0,0.0,0.0,0.0,0.0,0.0,0.0,0.0,0.0,0.0,0.0,0.0,0.0,0.0,0.0,0.0,0.0,0.0,0.0,0.0,0.0,0.0,0.0,0.0,0.0,-1.2774,-1.2881,-1.2881,-1.2773,-1.2646,-1.252,-1.209,-1.1924,-1.2041,-1.1172,-1.0791,-1.0908,-1.0478,-1.0283,-1.0264,-0.9834,-0.9427,-0.917,-0.9053,-0.8652,-0.8085,-0.8545,-0.8467,-0.8094,-0.8555,-0.875,-0.8832,-0.9408,-0.9358,-0.9046,-0.9585,-0.9486,-0.9135,-0.9436,-0.9469,-0.9393,-0.952,-0.9467,-0.9478,-0.9861,-1.0319,-1.0933,-1.1786,-1.1726,-1.1394,-1.1244,-1.0954,-1.0725,-1.0725,-1.1094,-1.1542,-1.192,-1.2102,-1.2144,-1.1965,-1.1621,-1.1351,-1.1194,-1.0891,-1.084,-1.1169,-1.1207,-1.1578,-1.2562,-1.3128,-1.3629,-1.4109,-1.4642,-1.488,-1.4698,-1.488,-1.4971,-1.4971,-1.5107,-1.5197,-1.5197,-1.5017,-1.4971,-1.4971,-1.4971,-1.4971,-1.4926,-1.4789,-1.4789,0.0,0.0,0.0,0.0,0.0,0.0,-0.8321,-0.7996,0.0,0.0,0.0,0.0,0.0,0.0,0.0,0.0,0.0,0.0,0.0,0.0,0.0,0.0,0.0,0.0,0.0,0.0,0.0,-1.2344,-1.2715,-1.2881,-1.2881,-1.2881,-1.2881,-1.2881,-1.2451,-1.218,-1.218,-1.1348,-1.0908,-1.0908,-1.0478,-1.0283,-1.0302,-0.9648,-0.9326,-0.9238,-0.8701,-0.8291,-0.8008,-0.8076,-0.7959,-0.7744,-0.8203,-0.8262,-0.8165,-0.8621,-0.8498,-0.8167,-0.8589,-0.8714,-0.8725,-0.8972,-0.9192,-0.9396,-0.9545,-0.9474,-0.9413,-0.9778,-1.041,-1.0963,-1.1143,-1.1094,-1.0943,-1.0764,-1.0505,-1.0283,-1.0283,-1.0505,-1.0878,-1.1356,-1.1664,-1.1715,-1.1453,-1.1197,-1.0922,-1.0685,-1.0439,-1.039,-1.0687,-1.0725,-1.1155,-1.2327,-1.2735,-1.3172,-1.3815,-1.412,-1.4247,-1.3978,-1.4201,-1.4329,-1.4329,-1.456,-1.4698,-1.4698,-1.4468,-1.4201,-1.3931,-1.4201,-1.4201,-1.3931,-1.3931,-1.4061,0.0,0.0,0.0,0.0,0.0,0.0,-0.7747,-0.7635,-0.7423,0.0,0.0,0.0,0.0,0.0,0.0,0.0,0.0,0.0,0.0,0.0,0.0,0.0,0.0,0.0,0.0,0.0,-1.1116,-1.1873,-1.255,-1.2881,-1.2881,-1.2881,-1.2881,-1.2881,-1.25,-1.2305,-1.2305,-1.1426,-1.0977,-1.0977,-1.0508,-1.0283,-1.0254,-0.9443,-0.9277,-0.9534,-0.8396,-0.8135,-0.845,-0.8027,-0.7783,-0.7734,-0.8154,-0.8066,-0.7705,-0.7754,-0.7744,-0.7715,-0.7812,-0.8125,-0.8489,-0.8506,-0.8799,-0.9219,-0.9554,-0.9443,-0.9307,-1.0068,-1.0611,-1.0829,-1.039,-1.0611,-1.0829,-1.039,-1.0283,-1.0283,-1.0283,-1.0283,-1.0428,-1.0829,-1.1319,-1.1479,-1.1019,-1.0905,-1.0802,-1.0361,-1.0283,-1.0283,-1.0283,-1.0283,-1.0845,-1.2267,-1.2404,-1.2728,-1.3658,-1.3684,-1.3467,-1.292,-1.342,-1.3684,-1.3684,-1.4247,-1.4525,-1.4525,-1.3967,-1.342,-1.2881,-1.342,-1.342,-1.2881,-1.2881,-1.32,0.0,0.0,0.0,0.0,0.0,0.0,-0.7853,-0.7389,-0.7089,0.0,0.0,0.0,0.0,0.0,0.0,0.0,0.0,0.0,0.0,0.0,0.0,0.0,0.0,0.0,0.0,0.0,-1.1325,-1.2618,-1.2822,-1.2881,-1.2881,-1.2881,-1.2881,-1.2881,-1.2803,-1.2754,-1.2754,-1.1875,-1.1479,-1.1469,-1.0654,-1.0283,-1.0264,-0.9746,-0.9515,-0.9583,-0.933,-0.9077,-0.8877,-0.8789,-0.8318,-0.7705,-0.7793,-0.7773,-0.7744,-0.8125,-0.8027,-0.7793,-0.8516,-0.8809,-0.8936,-0.9277,-0.9678,-1.0049,-1.0127,-1.0098,-1.0068,-1.0234,-1.0361,-1.0428,-1.0322,-1.0361,-1.039,-1.0322,-1.0283,-1.0283,-1.0283,-1.0283,-1.0322,-1.0428,-1.0505,-1.0544,-1.0467,-1.0428,-1.039,-1.0322,-1.0283,-1.0283,-1.0283,-1.0283,-1.0685,-1.1681,-1.177,-1.2138,-1.2986,-1.3055,-1.3017,-1.2929,-1.3017,-1.3055,-1.3055,-1.32,-1.3248,-1.3248,-1.3152,-1.3017,-1.2881,-1.3017,-1.3017,-1.2881,-1.2881,-1.2968,0.0,0.0,0.0,-0.8538,0.0,0.0,0.0,-0.7265,-0.693,0.0,0.0,0.0,0.0,0.0,0.0,0.0,0.0,0.0,0.0,0.0,0.0,0.0,0.0,0.0,0.0,0.0,-1.1384,-1.2774,-1.2881,-1.2881,-1.2881,-1.2881,-1.2881,-1.2881,-1.2881,-1.2773,-1.2559,-1.1939,-1.1498,-1.123,-1.0586,-1.0283,-1.0264,-0.9834,-0.9709,-0.9932,-0.9502,-0.9281,-0.9287,-0.8867,-0.8437,-0.8027,-0.7783,-0.7695,-0.7725,-0.7978,-0.8057,-0.8115,-0.8545,-0.8965,-0.932,-0.9524,-0.9932,-1.0283,-1.0283,-1.0283,-1.0283,-1.0283,-1.0283,-1.0283,-1.0283,-1.0283,-1.0283,-1.0283,-1.0283,-1.0283,-1.0283,-1.0283,-1.0283,-1.0283,-1.0283,-1.0283,-1.0283,-1.0283,-1.0283,-1.0283,-1.0283,-1.0352,-1.0566,-1.041,-1.0615,-1.1508,-1.1606,-1.1881,-1.25,-1.2754,-1.2881,-1.2881,-1.2881,-1.2881,-1.2881,-1.2881,-1.2881,-1.2881,-1.2559,-1.2344,-1.2344,-1.1999,-1.2206,-1.2881,-1.2881,-1.2881,0.0,0.0,0.0,0.0,0.0,-0.7688,0.0,0.0,0.0,-0.7313,0.0,0.0,0.0,0.0,0.0,0.0,0.0,0.0,0.0,0.0,0.0,0.0,0.0,0.0,0.0,-1.1074,-1.1692,-1.2832,-1.2881,-1.2881,-1.2881,-1.2881,-1.2881,-1.2881,-1.2881,-1.2715,-1.2363,-1.1871,-1.143,-1.1025,-1.0527,-1.0283,-1.0273,-0.9912,-0.9951,-1.0244,-0.9551,-0.9443,-0.9661,-0.8936,-0.8574,-0.8447,-0.793,-0.7695,-0.7695,-0.7695,-0.7949,-0.8281,-0.8469,-0.8945,-0.9495,-0.967,-0.999,-1.0283,-1.0283,-1.0283,-1.0283,-1.0283,-1.0283,-1.0283,-1.0283,-1.0283,-1.0283,-1.0283,-1.0283,-1.0283,-1.0283,-1.0283,-1.0283,-1.0283,-1.0205,-1.0166,-1.0283,-1.0283,-1.0283,-1.0283,-1.0283,-1.041,-1.0742,-1.0488,-1.0616,-1.14,-1.1557,-1.1738,-1.2187,-1.2627,-1.2881,-1.2881,-1.2881,-1.2881,-1.2881,-1.2881,-1.2822,-1.2666,-1.208,-1.1765,-1.1616,-1.1065,-1.1434,-1.2666,-1.2666,-1.2774,0.0,0.0,0.0,0.0,-1.034,0.0,0.0,0.0,-0.9543,-0.9163,0.0,0.0,0.0,0.0,0.0,0.0,0.0,0.0,0.0,0.0,0.0,0.0,0.0,0.0,0.0,0.0,-1.2725,-1.2881,-1.2881,-1.2881,-1.2881,-1.2881,-1.2881,-1.2881,-1.2881,-1.2852,-1.2812,-1.2028,-1.1577,-1.1518,-1.0704,-1.0283,-1.0283,-1.0225,-1.0234,-1.0273,-1.0214,-1.0166,-1.0166,-0.9687,-0.9268,-0.8857,-0.8007,-0.7695,-0.7695,-0.7695,-0.7725,-0.788,-0.8672,-0.8994,-0.9199,-0.9961,-1.0244,-1.0283,-1.0283,-1.0283,-1.0283,-1.0283,-1.0283,-1.0283,-1.0283,-1.0283,-1.0283,-1.0283,-1.0283,-1.0283,-1.0283,-1.0283,-1.0283,-1.0283,-0.9922,-0.9765,-1.0205,-1.0283,-1.0283,-1.0283,-1.0283,-1.0303,-1.0342,-1.0312,-1.0459,-1.0937,-1.1328,-1.1738,-1.2187,-1.2627,-1.2881,-1.2881,-1.2881,-1.2881,-1.2881,-1.2881,-1.2608,-1.1922,-1.1864,-1.1516,-1.0914,-1.0864,-1.1166,-1.1913,-1.1913,-1.2295,0.0,0.0,0.0,0.0,0.0,0.0,0.0,0.0,-1.1271,0.0,0.0,0.0,0.0,0.0,0.0,0.0,0.0,0.0,0.0,0.0,0.0,0.0,0.0,0.0,0.0,0.0,0.0,0.0,0.0,-1.2881,-1.2881,-1.2881,-1.2881,-1.2881,-1.2881,-1.2881,-1.2881,-1.2047,-1.1606,-1.1596,-1.0734,-1.0283,-1.0283,-1.0283,-1.0283,-1.0283,-1.0283,-1.0283,-1.0244,-0.9814,-0.9495,-0.9252,-0.8437,-0.7949,-0.7725,-0.8008,-0.8262,-0.8522,-0.9125,-0.9531,-0.9766,-0.9873,-0.9902,-0.9902,-0.9902,-0.9902,-0.9961,-1.0215,-1.0283,-1.0283,-1.0283,-1.0283,-1.0283,-1.0283,-1.0283,-1.0283,-1.0283,-1.004,-0.9843,-0.9843,-0.9399,-0.9119,-0.9319,-0.9646,-0.9961,-1.0244,-1.0488,-1.0645,-1.0645,-1.091,-1.0958,-1.0736,-1.1118,-1.1297,-1.1048,-1.1421,-1.1841,-1.2236,-1.2666,-1.2881,-1.2881,-1.2501,-1.2138,-1.1814,-1.1065,-1.0517,-1.0218,-0.9814,-0.9961,-1.0669,-1.1065,-1.1375,-1.3283,0.0,0.0,0.0,0.0,0.0,0.0,0.0,0.0,0.0,0.0,0.0,0.0,0.0,0.0,0.0,0.0,0.0,0.0,0.0,0.0,0.0,0.0,0.0,0.0,0.0,0.0,0.0,-1.2812,-1.2881,-1.2881,-1.2881,-1.2881,-1.2881,-1.2881,-1.2881,-1.2881,-1.2119,-1.1724,-1.1596,-1.0851,-1.04,-1.0283,-1.0283,-1.0283,-1.0283,-1.0283,-1.0283,-1.0244,-0.9814,-0.9524,-0.9349,-0.8662,-0.8184,-0.7949,-0.8262,-0.8643,-0.9053,-0.932,-0.9668,-0.9883,-0.9561,-0.9505,-0.9592,-0.9592,-0.968,-0.9873,-1.0195,-1.0283,-1.0283,-1.0283,-1.0283,-1.0283,-1.0283,-1.0283,-1.0244,-1.0118,-0.9755,-0.9439,-0.9319,-0.8837,-0.8521,-0.8675,-0.9039,-0.9478,-1.0,-1.0433,-1.0733,-1.0867,-1.1151,-1.1148,-1.0651,-1.0818,-1.0716,-1.0237,-1.0565,-1.1015,-1.1516,-1.2039,-1.2314,-1.2314,-1.1823,-1.1466,-1.1266,-1.0312,-0.9718,-0.951,-0.9061,-0.9061,-0.9562,-1.021,-1.0618,0.0,0.0,0.0,-1.5339,0.0,0.0,0.0,0.0,-1.5506,0.0,0.0,0.0,0.0,0.0,-1.1572,-1.0856,0.0,0.0,0.0,0.0,0.0,0.0,0.0,0.0,0.0,0.0,0.0,-1.2209,-1.2646,-1.2881,-1.2881,-1.2881,-1.2881,-1.2881,-1.2881,-1.2881,-1.2881,-1.2432,-1.1992,-1.1596,-1.1103,-1.0674,-1.0283,-1.0283,-1.0283,-1.0283,-1.0283,-1.0283,-1.0244,-0.9814,-0.9359,-0.8984,-0.8545,-0.8401,-0.8391,-0.8401,-0.8643,-0.9004,-0.9023,-0.9033,-0.9043,-0.9023,-0.9262,-0.9592,-0.9592,-0.9932,-1.0264,-1.0312,-1.0283,-1.0283,-1.0283,-1.0283,-1.0283,-1.0283,-1.0283,-1.0157,-0.9637,-0.9518,-0.9359,-0.8837,-0.8275,-0.8077,-0.8594,-0.8716,-0.8918,-0.9439,-0.9853,-1.0308,-1.0826,-1.0764,-1.0615,-1.0615,-1.0399,-1.0237,-1.0188,-1.0565,-1.0813,-1.0813,-1.0864,-1.0864,-1.0864,-1.0864,-1.0517,-0.9865,-0.9814,-0.9465,-0.8857,-0.8804,-0.8804,-0.8857,-0.951,-1.0167,0.0,0.0,-1.6687,-1.6655,0.0,0.0,0.0,0.0,0.0,0.0,0.0,0.0,0.0,0.0,-1.3553,-1.2936,-1.2491,-1.2072,0.0,0.0,0.0,0.0,0.0,0.0,0.0,0.0,0.0,-1.2746,-1.3211,-1.3515,0.0,-1.3515,-1.3515,-1.3515,-1.3515,-1.3286,-1.2881,-1.2451,-1.2002,-1.1596,-1.1113,-1.0684,-1.0283,-1.0283,-1.0283,-1.0283,-1.0283,-1.0117,-0.9844,-0.9651,-0.9349,-0.8965,-0.8545,-0.8721,-0.918,-0.8896,-0.9053,-0.9388,-0.9388,-0.9238,-0.8955,-0.8682,-0.8877,-0.9219,-0.9219,-0.9512,-0.9912,-1.0195,-1.0283,-1.0283,-1.0283,-1.004,-0.9755,-0.9755,-0.9478,-0.9199,-0.8999,-0.8675,-0.8398,-0.8201,-0.7697,-0.7356,-0.7558,-0.7558,-0.7964,-0.9073,-0.9588,-0.987,-0.9959,-1.0407,-1.0464,-0.9755,-0.9844,-0.9751,-0.9307,-0.9805,-1.0167,-1.0167,-1.0559,-1.0813,-1.0813,-1.0364,-1.0012,-0.9814,-0.9361,-0.9008,-0.8804,-0.8804,-0.8804,-0.8804,-0.8521,-0.8771,-1.7167,-1.7296,0.0,-1.7479,-1.7827,0.0,-1.8187,0.0,0.0,0.0,0.0,0.0,0.0,0.0,0.0,-1.4562,-1.41,-1.3598,0.0,-1.1864,0.0,0.0,0.0,0.0,0.0,0.0,-1.2511,-1.301,-1.314,-1.3377,0.0,0.0,-1.3457,-1.3457,-1.3457,-1.3286,-1.2881,-1.2607,-1.2158,-1.1596,-1.1279,-1.084,-1.0283,-1.0283,-1.0283,-1.0283,-1.0283,-1.0127,-0.9853,-0.9661,-0.9437,-0.9189,-0.877,-0.9023,-0.9544,-0.916,-0.918,-0.9349,-0.9238,-0.8906,-0.8506,-0.8232,-0.8535,-0.9004,-0.9004,-0.9404,-0.9922,-1.0205,-1.0283,-1.0283,-1.0283,-0.9922,-0.9518,-0.9518,-0.9079,-0.8643,-0.8439,-0.816,-0.7829,-0.7614,-0.728,-0.6979,-0.6979,-0.6979,-0.7419,-0.8645,-0.9056,-0.937,-0.9711,-0.9987,-0.9959,-0.9457,-0.9344,-0.9144,-0.885,-0.9211,-0.9465,-0.9465,-0.9865,-1.0064,-1.0064,-0.9658,-0.9465,-0.9465,-0.9008,-0.8804,-0.8804,-0.8804,-0.8804,-0.8804,-0.8049,-0.7937]},{"header":{"parameterUnit":"m.s-1","parameterCategory":1,"la1":30.6,"la2":29.2853,"lo1":-89.7004,"lo2":-87.6739,"dy":0.0162,"dx":0.0183,"nx":112,"ny":82,"refTime":"2023-10-21T18:00:00:Z","depth":0,"parameterNumber":3,"parameterNumberName":"V-component_of_WINDS"},"data":[0.0,0.0,0.0,0.0,0.0,0.0,0.0,0.0,0.0,0.0,0.0,0.0,0.0,0.0,0.0,0.0,0.0,0.0,0.0,0.0,0.0,0.0,0.0,0.0,0.0,0.0,0.0,0.0,0.0,0.0,0.0,0.0,0.0,0.0,0.0,0.0,0.0,0.0,0.0,0.0,0.0,0.0,0.0,0.0,0.0,0.0,0.0,0.0,0.0,0.0,0.0,0.0,0.0,0.0,0.0,0.0,0.0,0.0,0.0,0.0,0.0,0.0,0.0,0.0,0.0,0.0,0.0,0.0,0.0,0.0,0.0,0.0,0.0,0.0,0.0,0.0,0.0,0.0,0.0,0.0,0.0,0.0,0.0,0.0,0.0,0.0,0.0,0.0,0.0,0.0,0.0,-1.0418,-1.1541,-1.2228,-1.2463,-1.2309,-1.1838,-1.0726,0.0,0.0,0.0,0.0,0.0,0.0,0.0,0.0,0.0,0.0,0.0,0.0,0.0,0.0,0.0,0.0,0.0,0.0,0.0,0.0,0.0,0.0,0.0,0.0,0.0,0.0,0.0,0.0,0.0,0.0,0.0,0.0,0.0,0.0,0.0,0.0,0.0,0.0,0.0,0.0,0.0,0.0,0.0,0.0,0.0,0.0,0.0,0.0,0.0,0.0,0.0,0.0,0.0,0.0,0.0,0.0,0.0,0.0,0.0,0.0,0.0,0.0,0.0,0.0,0.0,0.0,0.0,0.0,0.0,0.0,0.0,0.0,0.0,0.0,0.0,0.0,0.0,0.0,0.0,0.0,0.0,0.0,0.0,0.0,0.0,0.0,0.0,0.0,0.0,0.0,0.0,0.0,0.0,0.0,0.0,0.0,0.0,0.0,0.0,0.0,0.0,0.0,0.0,0.0,-1.0204,-1.1495,-1.1874,-1.2464,-1.3749,-1.3029,-1.2381,-1.2032,0.0,0.0,0.0,0.0,0.0,0.0,0.0,0.0,0.0,0.0,0.0,0.0,0.0,0.0,0.0,0.0,0.0,0.0,0.0,0.0,0.0,0.0,0.0,0.0,0.0,0.0,0.0,0.0,0.0,0.0,0.0,0.0,0.0,0.0,0.0,0.0,0.0,0.0,0.0,0.0,0.0,0.0,0.0,0.0,0.0,0.0,0.0,0.0,0.0,0.0,0.0,0.0,0.0,0.0,0.0,0.0,0.0,0.0,0.0,0.0,0.0,0.0,0.0,0.0,0.0,0.0,0.0,0.0,0.0,0.0,0.0,0.0,0.0,0.0,0.0,0.0,0.0,0.0,0.0,0.0,0.0,0.0,0.0,0.0,0.0,0.0,0.0,0.0,0.0,0.0,0.0,0.0,0.0,0.0,0.0,0.0,0.0,0.0,0.0,0.0,0.0,0.0,0.0,-1.1407,-1.221,-1.2847,-1.3394,-1.4111,-1.4721,-1.4088,-1.3297,-1.2673,-1.2849,0.0,0.0,0.0,0.0,0.0,0.0,0.0,0.0,0.0,0.0,0.0,0.0,0.0,0.0,0.0,0.0,0.0,0.0,0.0,0.0,0.0,0.0,0.0,0.0,0.0,0.0,0.0,0.0,0.0,0.0,0.0,0.0,0.0,0.0,0.0,0.0,0.0,0.0,0.0,0.0,0.0,0.0,0.0,0.0,0.0,0.0,0.0,0.0,0.0,0.0,0.0,0.0,0.0,0.0,0.0,0.0,0.0,0.0,0.0,0.0,0.0,0.0,0.0,0.0,0.0,0.0,0.0,0.0,0.0,0.0,0.0,0.0,0.0,0.0,0.0,0.0,0.0,0.0,0.0,0.0,0.0,0.0,0.0,0.0,0.0,0.0,0.0,0.0,0.0,0.0,0.0,0.0,0.0,0.0,0.0,0.0,0.0,0.0,0.0,0.0,0.0,0.0,-1.2811,-1.3802,-1.3976,-1.4825,-1.5297,-1.5297,-1.4629,-1.3784,-1.2749,-1.2996,0.0,0.0,0.0,0.0,0.0,0.0,0.0,0.0,0.0,0.0,0.0,0.0,0.0,0.0,0.0,0.0,0.0,0.0,0.0,0.0,0.0,0.0,0.0,0.0,0.0,0.0,0.0,0.0,0.0,0.0,0.0,0.0,0.0,0.0,0.0,0.0,0.0,0.0,0.0,0.0,0.0,0.0,0.0,0.0,0.0,0.0,0.0,0.0,0.0,0.0,0.0,0.0,0.0,0.0,0.0,0.0,0.0,0.0,0.0,0.0,0.0,0.0,0.0,0.0,0.0,0.0,0.0,0.0,0.0,0.0,0.0,0.0,0.0,0.0,0.0,0.0,0.0,0.0,0.0,0.0,0.0,0.0,0.0,0.0,0.0,0.0,0.0,0.0,0.0,0.0,0.0,0.0,0.0,0.0,0.0,0.0,0.0,0.0,0.0,0.0,0.0,0.0,-1.3186,-1.4295,-1.4834,-1.4997,-1.499,-1.499,-1.3955,-1.2893,-1.2002,-1.2086,0.0,0.0,0.0,0.0,0.0,0.0,0.0,0.0,0.0,0.0,0.0,0.0,0.0,0.0,0.0,0.0,0.0,0.0,0.0,0.0,0.0,0.0,0.0,0.0,0.0,0.0,0.0,0.0,0.0,0.0,0.0,0.0,0.0,0.0,0.0,0.0,0.0,0.0,0.0,0.0,0.0,0.0,0.0,0.0,0.0,0.0,0.0,0.0,0.0,0.0,0.0,0.0,0.0,0.0,0.0,0.0,0.0,0.0,0.0,0.0,0.0,0.0,0.0,0.0,0.0,0.0,0.0,0.0,0.0,0.0,0.0,0.0,0.0,0.0,0.0,0.0,0.0,0.0,0.0,0.0,0.0,0.0,0.0,0.0,0.0,0.0,0.0,0.0,0.0,0.0,0.0,0.0,0.0,0.0,0.0,0.0,0.0,0.0,0.0,0.0,0.0,0.0,-1.2679,-1.3687,0.0,-1.4796,-1.4689,-1.4689,-1.3781,-1.2974,-1.2338,0.0,0.0,0.0,0.0,0.0,0.0,0.0,0.0,0.0,0.0,0.0,0.0,0.0,0.0,0.0,0.0,0.0,0.0,0.0,0.0,0.0,0.0,0.0,0.0,0.0,0.0,0.0,0.0,0.0,0.0,0.0,0.0,0.0,0.0,0.0,0.0,0.0,0.0,0.0,0.0,0.0,0.0,0.0,0.0,0.0,0.0,0.0,0.0,0.0,0.0,0.0,0.0,0.0,0.0,0.0,0.0,0.0,0.0,0.0,0.0,0.0,0.0,0.0,0.0,0.0,0.0,0.0,0.0,0.0,0.0,0.0,0.0,0.0,0.0,0.0,0.0,0.0,0.0,0.0,0.0,0.0,0.0,0.0,0.0,0.0,0.0,0.0,0.0,0.0,0.0,0.0,0.0,0.0,0.0,0.0,0.0,0.0,0.0,0.0,0.0,0.0,0.0,-1.1632,-1.2325,-1.3286,0.0,-1.4362,-1.4202,-1.4115,-1.3126,-1.2369,-1.2066,0.0,0.0,0.0,0.0,0.0,0.0,0.0,0.0,0.0,0.0,0.0,0.0,0.0,0.0,0.0,0.0,0.0,0.0,0.0,0.0,0.0,0.0,0.0,0.0,0.0,0.0,0.0,0.0,0.0,0.0,0.0,0.0,0.0,0.0,0.0,0.0,0.0,0.0,0.0,0.0,0.0,0.0,0.0,0.0,0.0,0.0,0.0,0.0,0.0,0.0,0.0,0.0,0.0,0.0,0.0,0.0,0.0,0.0,0.0,0.0,0.0,0.0,0.0,0.0,0.0,0.0,0.0,0.0,0.0,0.0,0.0,0.0,0.0,0.0,0.0,0.0,0.0,0.0,0.0,0.0,0.0,0.0,0.0,0.0,0.0,0.0,0.0,0.0,0.0,0.0,0.0,0.0,0.0,0.0,0.0,0.0,0.0,0.0,0.0,0.0,0.0,0.0,-1.137,-1.2191,-1.2966,-1.3574,-1.3641,-1.352,-1.3233,-1.185,-1.0995,0.0,0.0,0.0,0.0,0.0,0.0,0.0,0.0,0.0,0.0,0.0,0.0,0.0,0.0,0.0,0.0,0.0,0.0,0.0,0.0,0.0,0.0,0.0,0.0,0.0,0.0,0.0,0.0,0.0,0.0,0.0,0.0,0.0,0.0,0.0,0.0,0.0,0.0,0.0,0.0,0.0,0.0,0.0,0.0,0.0,0.0,0.0,0.0,0.0,0.0,0.0,0.0,0.0,0.0,0.0,0.0,0.0,0.0,0.0,0.0,0.0,0.0,0.0,0.0,0.0,0.0,0.0,0.0,0.0,0.0,0.0,0.0,0.0,0.0,0.0,0.0,0.0,0.0,0.0,0.0,0.0,0.0,0.0,0.0,0.0,0.0,0.0,0.0,0.0,0.0,0.0,0.0,0.0,0.0,0.0,0.0,0.0,0.0,0.0,0.0,0.0,0.0,0.0,-1.1068,-1.171,-1.2438,-1.3253,-1.334,-1.3307,-1.322,-1.2037,-1.1209,-1.1009,0.0,0.0,0.0,0.0,0.0,0.0,0.0,0.0,0.0,0.0,0.0,0.0,0.0,0.0,0.0,0.0,0.0,0.0,0.0,0.0,0.0,0.0,0.0,0.0,0.0,0.0,0.0,0.0,0.0,0.0,0.0,0.0,0.0,0.0,0.0,0.0,0.0,0.0,0.0,0.0,0.0,0.0,0.0,0.0,0.0,0.0,0.0,0.0,0.0,0.0,0.0,0.0,0.0,0.0,0.0,0.0,0.0,0.0,0.0,0.0,0.0,0.0,0.0,0.0,0.0,0.0,0.0,0.0,0.0,0.0,0.0,0.0,0.0,0.0,0.0,0.0,0.0,0.0,0.0,0.0,0.0,0.0,0.0,0.0,0.0,0.0,0.0,0.0,0.0,0.0,0.0,0.0,0.0,0.0,0.0,0.0,0.0,0.0,0.0,0.0,0.0,0.0,-1.0992,-1.1403,-1.1991,-1.2766,-1.2953,-1.2879,-1.2532,-1.163,-1.0955,-1.0661,0.0,0.0,0.0,0.0,0.0,0.0,0.0,0.0,0.0,0.0,0.0,0.0,0.0,0.0,0.0,0.0,0.0,0.0,0.0,0.0,0.0,0.0,0.0,0.0,0.0,0.0,0.0,0.0,0.0,0.0,0.0,0.0,0.0,0.0,0.0,0.0,0.0,0.0,0.0,0.0,0.0,0.0,0.0,0.0,0.0,0.0,0.0,0.0,0.0,0.0,0.0,0.0,0.0,0.0,0.0,0.0,0.0,0.0,0.0,0.0,0.0,0.0,0.0,0.0,0.0,0.0,0.0,0.0,0.0,0.0,0.0,0.0,0.0,0.0,0.0,0.0,0.0,0.0,0.0,0.0,0.0,0.0,0.0,0.0,0.0,0.0,0.0,0.0,0.0,0.0,0.0,0.0,0.0,0.0,0.0,0.0,0.0,0.0,0.0,0.0,0.0,0.0,-1.1019,-1.1162,-1.157,-1.2158,-1.2465,-1.2298,-1.1496,-1.0868,-1.0408,-1.0134,0.0,0.0,0.0,0.0,0.0,0.0,0.0,0.0,0.0,0.0,0.0,0.0,0.0,0.0,0.0,0.0,0.0,0.0,0.0,0.0,0.0,0.0,0.0,0.0,0.0,0.0,0.0,0.0,0.0,0.0,0.0,0.0,0.0,0.0,0.0,0.0,0.0,0.0,0.0,0.0,0.0,0.0,0.0,0.0,0.0,0.0,0.0,0.0,0.0,0.0,0.0,0.0,0.0,0.0,0.0,0.0,0.0,0.0,0.0,0.0,-0.3497,0.0,0.0,0.0,0.0,0.0,0.0,0.0,0.0,0.0,0.0,0.0,0.0,0.0,0.0,0.0,0.0,0.0,0.0,0.0,0.0,0.0,0.0,0.0,0.0,0.0,0.0,0.0,0.0,0.0,0.0,0.0,0.0,0.0,0.0,0.0,0.0,0.0,0.0,0.0,0.0,0.0,-1.103,-1.0926,-1.0969,-1.155,-1.167,-1.163,-1.1443,-1.0675,-1.018,-1.012,0.0,0.0,0.0,0.0,0.0,0.0,0.0,0.0,0.0,0.0,0.0,0.0,0.0,0.0,0.0,0.0,0.0,0.0,0.0,0.0,0.0,0.0,0.0,0.0,0.0,0.0,0.0,0.0,0.0,0.0,0.0,0.0,0.0,0.0,0.0,0.0,0.0,0.0,0.0,0.0,0.0,0.0,0.0,0.0,0.0,0.0,0.0,0.0,0.0,0.0,0.0,0.0,0.0,0.0,0.0,0.0,0.0,0.0,0.0,0.0,0.0,-0.3089,0.0,0.0,0.0,0.0,0.0,0.0,0.0,0.0,0.0,0.0,0.0,0.0,0.0,0.0,0.0,0.0,0.0,0.0,0.0,0.0,0.0,0.0,0.0,0.0,0.0,0.0,0.0,0.0,0.0,0.0,0.0,0.0,0.0,0.0,0.0,0.0,0.0,0.0,0.0,0.0,-1.0849,-1.0572,-1.0461,-1.0762,-1.1049,-1.1049,-1.0621,-1.0167,-0.9846,-0.9706,-0.9452,0.0,0.0,0.0,0.0,0.0,0.0,0.0,0.0,0.0,0.0,0.0,0.0,0.0,0.0,0.0,0.0,0.0,0.0,0.0,0.0,0.0,0.0,0.0,0.0,0.0,0.0,0.0,0.0,0.0,0.0,0.0,0.0,0.0,0.0,0.0,0.0,0.0,0.0,0.0,0.0,0.0,0.0,0.0,0.0,0.0,0.0,0.0,0.0,0.0,0.0,0.0,0.0,0.0,0.0287,0.0215,0.0,0.0,-0.0351,-0.0959,-0.1559,-0.1948,-0.2225,0.0,0.0,0.0,0.0,0.0,0.0,0.0,0.0,0.0,0.0,0.0,0.0,0.0,0.0,0.0,0.0,0.0,0.0,0.0,0.0,0.0,0.0,0.0,0.0,0.0,-0.468,-0.5386,0.0,0.0,0.0,0.0,0.0,0.0,0.0,0.0,0.0,0.0,0.0,0.0,-1.0524,-1.021,-0.9987,-1.0033,-1.0474,-1.0474,-0.9746,-0.9633,-0.9499,-0.9196,-0.8965,-0.9061,0.0,0.0,0.0,0.0,0.0,0.0,0.0,0.0,0.0,0.0,0.0,0.0,0.0,0.0,0.0,0.0,0.0,0.0,0.0,0.0,0.0,0.0,0.0,0.0,0.0,0.0,0.0,0.0,0.0,0.0,0.0,0.0,0.8445,0.8329,0.0,0.0,0.0,0.0,0.0,0.0,0.0,0.0,0.0,0.0,0.0,0.0,0.0,0.0,0.3285,0.3297,0.2738,0.1573,0.1562,0.1014,0.0,0.0,-0.0075,-0.0149,-0.0217,0.0,-0.2235,-0.2481,0.0,0.0,0.0,0.0,0.0,0.0,0.0,0.0,0.0,0.0,0.0,0.0,0.0,0.0,0.0,0.0,0.0,0.0,0.0,0.0,0.0,0.0,-0.4625,-0.5218,-0.5378,-0.5651,0.0,-0.6912,-0.7289,-0.8533,0.0,0.0,0.0,0.0,0.0,0.0,0.0,0.0,-1.0221,-0.9764,-0.9452,-0.9713,-0.9813,-0.9813,-0.9693,-0.9446,-0.9223,-0.919,-0.8965,-0.8857,-0.891,-0.8817,0.0,0.0,0.0,0.0,0.0,0.0,0.0,0.0,0.0,0.0,0.0,0.0,0.0,0.0,0.0,0.0,0.0,0.0,0.0,0.0,0.0,0.0,0.0,0.0,0.0,0.0,0.0,0.0,0.0,0.9162,0.9265,0.8794,0.8854,0.8551,0.0,0.0,0.0,0.0,0.0,0.0,0.0,0.0,0.0,0.5225,0.5441,0.513,0.4325,0.4393,0.3581,0.18,0.1836,0.116,0.0,0.0,0.0,0.0,0.0,-0.037,-0.0986,-0.1479,-0.1655,-0.1685,0.0,0.0,0.0,0.0,-0.4007,-0.4077,-0.4627,-0.4785,0.0,0.0,0.0,0.0,0.0,0.0,0.0,0.0,0.0,0.0,0.0,0.0,0.0,-0.4897,-0.4948,-0.5113,-0.5819,-0.5982,-0.6416,0.0,-0.8156,-0.8421,-0.9106,0.0,0.0,0.0,0.0,0.0,-0.991,-0.9561,-0.9225,-0.9192,-0.9339,-0.9365,-0.9205,-0.9072,-0.8998,-0.8998,-0.8878,-0.8804,-0.8804,-0.8804,-0.9106,0.0,0.0,0.0,0.0,0.0,0.0,0.0,0.0,0.0,0.0,0.0,0.0,0.0,0.0,0.0,0.0,0.0,0.0,0.0,0.0,0.0,0.0,0.0,0.0,0.0,0.0,0.0,0.0,1.0249,1.0597,0.9398,1.0512,1.0707,0.0,0.0,0.0,0.0,0.0,0.0,0.6992,0.6503,0.6182,0.6193,0.6352,0.6096,0.5482,0.5569,0.4619,0.2683,0.2683,0.1965,0.0833,0.0833,0.0815,0.0784,0.0549,0.0387,0.0376,-0.0491,-0.0792,-0.0881,-0.1609,-0.1906,-0.2027,-0.2887,-0.3256,-0.3326,-0.4091,-0.4294,-0.4255,-0.4476,0.0,-0.4663,-0.4563,0.0,0.0,0.0,0.0,-0.5324,-0.468,-0.4519,-0.4519,-0.4519,-0.4519,-0.4625,-0.5109,-0.5218,-0.5655,0.0,-0.7402,-0.767,-0.8374,0.0,0.0,0.0,0.0,-0.8956,-0.9465,-0.9307,-0.9045,-0.8831,-0.9005,-0.9038,-0.8824,-0.8804,-0.8804,-0.8804,-0.8804,-0.8804,-0.8804,-0.8804,-0.9061,-0.951,0.0,0.0,0.0,0.0,0.0,0.0,0.0,0.0,0.0,0.0,0.0,0.0,0.0,0.0,0.0,0.0,0.0,0.0,0.0,0.0,0.0,0.0,0.0,0.0,0.0,0.0,0.0,0.0,0.0,1.0803,1.298,0.0,0.0,0.0,0.0,1.1074,0.9914,0.874,0.7801,0.7851,0.7516,0.6658,0.6814,0.6877,0.7017,0.7024,0.6343,0.4927,0.4927,0.4227,0.2918,0.2918,0.2959,0.289,0.1957,0.1546,0.143,0.0358,-0.0069,-0.0133,-0.0882,-0.117,-0.1231,-0.1966,-0.2273,-0.2273,-0.2339,-0.2352,-0.2479,-0.3346,-0.415,-0.4663,-0.4563,-0.4948,0.0,0.0,-0.5003,-0.5324,-0.468,-0.4519,-0.4519,-0.4519,-0.4519,-0.4519,-0.4519,-0.457,-0.4956,0.0,-0.6642,-0.6912,-0.7616,0.0,-0.799,-0.8752,-0.8804,-0.8804,-0.8857,-0.8818,-0.8824,-0.8804,-0.8824,-0.8824,-0.8804,-0.8804,-0.8804,-0.8804,-0.8804,-0.8804,-0.8804,-0.8804,-0.8804,-0.8857,-0.8857,0.0,0.0,0.0,0.0,0.0,0.0,0.0,0.0,0.0,0.0,0.0,0.0,0.0,0.0,0.0,0.0,0.0,0.0,0.0,0.0,0.0,0.0,0.0,0.0,0.0,0.0,0.0,0.0,1.3405,1.5124,0.0,0.0,1.3802,1.3115,1.3115,1.1729,1.0676,1.0213,0.9933,0.9623,0.9186,0.8582,0.8218,0.8277,0.7489,0.6446,0.5099,0.5099,0.4393,0.3073,0.3029,0.2971,0.2976,0.248,0.1931,0.1397,0.0994,0.0488,0.0,-0.0265,-0.0392,-0.0522,-0.1302,-0.1608,-0.171,-0.2337,-0.2446,-0.2399,-0.2607,-0.3209,-0.3795,-0.3805,-0.4288,-0.4787,-0.457,-0.468,-0.4787,-0.457,-0.4519,-0.4519,-0.4519,-0.4392,-0.4324,-0.4324,-0.4324,-0.4428,-0.4957,-0.5524,-0.6145,-0.6858,-0.7402,-0.7777,-0.8049,-0.848,-0.8804,-0.8804,-0.8804,-0.8804,-0.8804,-0.8804,-0.8804,-0.8804,-0.8804,-0.8804,-0.8804,-0.8804,-0.8804,-0.8804,-0.8804,-0.8804,-0.8804,-0.9211,-0.9511,0.0,0.0,0.0,0.0,0.0,0.0,0.0,0.0,0.0,0.0,0.0,0.0,0.0,0.0,0.0,0.0,0.0,0.0,0.0,0.0,0.0,0.0,0.0,0.0,0.0,0.0,1.62,1.5345,1.7249,1.8222,1.7233,1.6374,1.577,1.5399,1.4085,1.2858,1.1952,1.151,1.1123,1.0611,0.9492,0.889,0.889,0.7665,0.6599,0.5644,0.5644,0.5098,0.4157,0.4095,0.4013,0.3916,0.3479,0.2926,0.2247,0.1906,0.1258,0.042,0.0136,0.0,-0.0067,-0.0665,-0.0851,-0.0964,-0.157,-0.1882,-0.1983,-0.1862,-0.2343,-0.2954,-0.301,-0.3345,-0.379,-0.407,-0.4125,-0.4181,-0.4408,-0.4426,-0.4392,-0.4392,-0.4317,-0.4197,-0.4197,-0.4234,-0.4321,-0.4321,-0.4927,-0.5651,-0.6145,-0.6853,-0.7396,-0.767,-0.8103,-0.8533,-0.8752,-0.8804,-0.8804,-0.8804,-0.8804,-0.8804,-0.8804,-0.8804,-0.8804,-0.8804,-0.8804,-0.8804,-0.8804,-0.8804,-0.891,-0.9106,-0.9709,-1.0152,-1.0466,0.0,0.0,0.0,0.0,0.0,0.0,0.0,0.0,0.0,0.0,0.0,0.0,0.0,0.0,0.0,0.0,0.0,0.0,0.0,0.0,0.0,0.0,0.0,1.5113,1.7105,1.817,1.6661,1.9343,2.0801,1.9531,1.9552,1.9159,1.8004,1.6892,1.5333,1.3067,1.2567,1.1826,1.0783,0.9579,0.8978,0.8978,0.7841,0.7076,0.6781,0.6781,0.6627,0.6338,0.6335,0.6173,0.5952,0.4963,0.4375,0.4126,0.3174,0.2162,0.1253,0.0408,0.0,0.0,0.0,0.0,0.0,0.0,-0.047,-0.105,-0.1073,-0.1563,-0.2174,-0.2174,-0.2174,-0.2397,-0.3178,-0.3345,-0.3511,-0.4288,-0.4351,-0.4194,-0.419,-0.4131,-0.4128,-0.418,-0.4287,-0.444,-0.4494,-0.5039,-0.5471,-0.5483,-0.6086,-0.6794,-0.7503,-0.7664,0.0,-0.8699,-0.8752,-0.8752,-0.8804,-0.8804,-0.8804,-0.8804,-0.8804,-0.8804,-0.8804,-0.8804,-0.8804,-0.8804,-0.8804,-0.9106,-0.9762,-1.0188,-1.0857,-1.1814,0.0,0.0,0.0,0.0,0.0,0.0,0.0,0.0,0.0,0.0,0.0,0.0,0.0,0.0,0.0,0.0,0.0,0.0,0.0,0.0,0.0,0.0,1.9582,1.8218,1.9802,2.0893,2.0411,2.1632,2.248,2.2119,2.1156,2.0391,2.0048,1.8113,1.6499,1.5419,1.4609,1.3892,1.3137,1.1992,1.1381,1.1381,1.026,0.9455,0.905,0.8319,0.7737,0.7322,0.6442,0.6071,0.5949,0.5615,0.4985,0.4159,0.3918,0.3241,0.2234,0.1278,0.0531,0.0,0.0,0.0,0.0,0.0,-0.0114,-0.0284,-0.0281,-0.0783,-0.1396,-0.1396,-0.2174,-0.3065,-0.3345,-0.379,-0.4158,-0.4281,-0.3953,-0.358,-0.3439,-0.2998,-0.2744,-0.3183,-0.3306,-0.3479,-0.3926,-0.4657,-0.5126,-0.4801,-0.528,-0.5765,-0.6063,-0.6496,0.0,-0.7913,-0.7996,-0.8209,-0.8752,-0.8804,-0.8804,-0.8804,-0.8804,-0.8804,-0.8804,-0.8804,-0.8804,-0.8804,-0.8804,-0.9106,-0.9762,-1.037,-1.1064,0.0,0.0,0.0,0.0,0.0,0.0,0.0,0.0,0.0,0.0,0.0,0.0,0.0,0.0,0.0,0.0,0.0,0.0,0.0,0.0,0.0,0.0,2.1499,2.2479,2.2327,2.253,2.2662,2.2858,2.2972,2.3135,2.3135,2.2273,2.159,2.1134,1.9638,1.8249,1.7266,1.6104,1.5317,1.4831,1.3184,1.2275,1.2169,1.098,1.0163,0.9722,0.9162,0.8681,0.838,0.758,0.6939,0.0,0.6335,0.5686,0.4733,0.4733,0.4144,0.0,0.0,0.0,0.0,0.0,0.0,0.0,0.0,0.0,0.0,0.0,-0.028,-0.0615,-0.0615,-0.1216,-0.1966,-0.2347,-0.2756,-0.3139,-0.3289,-0.3077,-0.277,-0.2665,-0.2317,-0.2089,-0.2467,-0.2546,-0.2723,-0.3061,-0.3752,0.0,-0.398,-0.4662,-0.5272,-0.5403,-0.5706,-0.6228,-0.7149,-0.7235,-0.7509,-0.8262,-0.8321,-0.848,-0.8752,-0.8804,0.0,0.0,0.0,-0.8804,-0.8804,-0.9061,0.0,0.0,0.0,-1.1116,-1.1814,0.0,0.0,0.0,-1.2881,-1.2881,0.0,0.0,0.0,0.0,0.0,0.0,0.0,0.0,0.0,0.0,0.0,0.0,0.0,0.0,0.0,0.0,2.4397,2.5549,2.6632,2.5206,2.4041,2.423,2.373,2.3222,2.3135,2.3135,2.2677,2.1569,2.1153,2.0234,1.869,0.0,0.0,0.0,0.0,1.2457,1.2117,1.1117,1.0305,0.9844,0.9771,0.9581,0.9437,0.8975,0.8332,0.7442,0.7186,0.6531,0.5715,0.5582,0.4948,0.3835,0.2133,0.1343,0.1204,0.0419,0.0058,0.0,0.0,0.0,0.0,0.0,0.0,0.0,0.0,-0.0055,-0.0266,-0.0898,-0.1136,-0.1359,-0.2002,-0.2048,-0.1898,-0.189,-0.1839,-0.1792,-0.1839,-0.1989,-0.2087,-0.2137,-0.2582,-0.2978,-0.2978,-0.4066,-0.4985,-0.5143,-0.5155,-0.5475,-0.6338,-0.6455,-0.672,-0.7503,0.0,0.0,-0.8586,-0.8699,-0.8699,-0.8804,-0.8804,-0.8804,-0.8804,-0.9361,-0.9666,-0.9666,-1.0364,-1.0965,-1.1566,-1.1665,-1.203,-1.2676,-1.2725,-1.2774,0.0,0.0,0.0,0.0,0.0,0.0,0.0,0.0,0.0,0.0,0.0,0.0,0.0,0.0,0.0,2.4916,2.6446,2.7698,2.8338,2.7693,2.6598,2.4893,2.4575,2.4135,2.3222,2.3135,2.296,2.2775,2.1771,2.0781,1.9894,1.8683,0.0,1.5718,1.5274,1.4469,1.3307,1.3054,1.2679,1.212,0.0,0.0,1.0479,0.9338,0.8699,0.8505,0.8226,0.795,0.763,0.6886,0.5508,0.375,0.2673,0.1833,0.1131,0.0974,0.0507,0.0,0.0,0.0,0.0,0.0,0.0,0.0,0.0,-0.0428,0.0,-0.1078,-0.1519,-0.1998,-0.2034,-0.1673,-0.1227,-0.1141,-0.0725,-0.0499,-0.0996,-0.1139,-0.1283,-0.1783,-0.1965,-0.2056,-0.2056,-0.3141,-0.4122,-0.4358,-0.4342,-0.4616,-0.5608,-0.5628,-0.5866,-0.673,-0.6739,-0.6968,-0.7865,-0.7937,-0.8156,-0.8752,-0.8804,-0.8804,-0.8804,-0.891,-0.9008,-0.9008,-0.9666,-1.0064,-1.0167,-1.072,-1.1074,-1.1225,-1.1774,-1.2021,0.0,0.0,0.0,0.0,0.0,0.0,0.0,0.0,0.0,0.0,0.0,2.4253,0.0,0.0,2.5674,2.7042,2.7959,2.8712,2.9289,2.9102,2.8347,2.6685,2.5452,2.4542,2.4049,2.3464,2.3135,2.3135,2.258,2.1861,2.1127,1.996,1.8667,1.735,1.6191,1.5065,1.4193,1.3498,1.2973,1.2525,1.1992,1.1684,1.1527,1.0527,0.9848,0.9406,0.9053,0.8564,0.8062,0.7664,0.6454,0.4955,0.4527,0.3271,0.1657,0.1629,0.1174,0.056,0.056,0.0336,0.0056,0.0448,0.028,0.0056,0.043,0.0052,-0.0566,-0.0546,-0.0822,-0.1089,-0.1021,-0.0786,-0.0552,-0.0451,-0.0225,-0.009,-0.0404,-0.0448,-0.0538,-0.0851,-0.1163,-0.1429,-0.1741,-0.2585,-0.3357,-0.3628,-0.3865,-0.4226,-0.4907,-0.4862,-0.5088,-0.5959,-0.591,-0.6194,-0.699,-0.6989,-0.728,-0.7997,-0.8113,-0.8204,-0.8327,-0.8651,-0.8738,-0.8597,-0.9082,-0.9465,-0.9814,-1.0167,-1.0466,-1.0813,-1.0813,-1.0965,0.0,0.0,0.0,0.0,0.0,0.0,0.0,0.0,2.7231,2.7527,2.701,2.6813,2.8,2.752,2.7419,2.8863,2.9089,2.9252,2.9729,2.9792,2.9406,2.8373,2.6628,2.5284,2.4872,2.3963,2.3299,2.3135,2.3066,2.2685,2.1924,2.0921,1.9907,1.8867,1.6946,1.5568,1.4927,1.3689,1.2893,1.2592,1.2372,1.2305,1.2285,1.169,1.1011,1.0347,0.9759,0.9069,0.8221,0.8221,0.7511,0.64,0.628,0.4817,0.2783,0.2508,0.1952,0.134,0.134,0.0951,0.0504,0.1118,0.0891,0.0496,0.1115,0.077,0.0199,0.0191,0.0092,0.0,0.0,0.0,0.0,0.0,0.0,0.0,0.0,0.0,0.0,0.0,-0.0404,-0.0895,-0.1385,-0.1962,-0.2561,-0.3148,-0.3627,-0.4073,-0.4341,-0.425,-0.4431,-0.5147,-0.5088,-0.5336,-0.608,-0.617,-0.6439,-0.7047,-0.7309,-0.7518,-0.7745,-0.8333,-0.855,-0.8377,-0.8604,-0.8999,-0.9614,-0.9614,-0.9865,-1.0415,-0.9865,-0.9969,2.7453,2.7487,2.854,3.0379,3.0173,3.0225,0.0,0.0,3.1748,3.0993,3.0509,3.0023,2.9422,2.8929,2.8888,2.9578,2.9691,2.9716,2.9779,2.9792,2.9514,2.8925,2.8138,2.6942,2.4957,2.4702,2.4211,2.3135,2.2793,2.2383,2.1904,2.1351,2.0245,1.8452,1.8148,1.7149,1.5544,1.4546,1.3851,1.3528,1.2739,1.2305,1.2285,1.169,1.1354,1.1184,1.0679,0.9977,0.9139,0.9139,0.8392,0.7111,0.646,0.5756,0.4988,0.3671,0.273,0.2063,0.2063,0.2009,0.1952,0.2063,0.1915,0.1805,0.1893,0.1382,0.0807,0.0821,0.0405,0.0,0.0,0.0,0.0,0.0,0.0,0.0,0.0,0.0,0.0,0.0,-0.0045,-0.0135,-0.018,-0.0716,-0.1679,-0.346,-0.3768,-0.3877,-0.405,-0.3938,-0.3951,-0.4292,-0.4111,-0.4323,-0.5157,-0.5834,-0.6223,-0.6298,-0.6838,-0.7176,-0.7194,-0.7701,-0.8136,-0.837,-0.841,-0.8602,-0.891,-0.891,-0.8956,-0.9008,-0.8962,-0.9256,2.971,3.0342,0.0,0.0,3.3226,3.4056,3.4514,3.421,3.3737,3.3285,3.2459,3.1708,3.1357,3.0251,2.9515,0.0,2.9792,2.9792,2.9792,2.9503,2.9089,2.8511,2.825,2.7621,2.6393,2.5352,2.4506,2.3811,2.3246,2.2491,2.1533,2.1084,2.0313,1.9231,1.8219,1.7293,1.652,1.5348,1.4744,1.4522,1.3593,1.3006,1.2885,1.1818,1.1243,1.0909,1.0732,1.0364,1.0034,0.9869,0.9065,0.7993,0.7565,0.6854,0.5982,0.4505,0.3511,0.2899,0.2843,0.2565,0.228,0.2617,0.2416,0.205,0.2428,0.2019,0.1413,0.1402,0.0984,0.0538,0.0538,0.0269,0.0,0.0,0.0,0.0,0.0,0.0,0.0,0.0,0.0,-0.009,-0.0448,-0.0716,-0.1304,-0.2463,-0.2987,-0.3462,-0.3949,-0.3887,-0.3839,-0.3968,-0.3866,-0.3996,-0.4447,-0.4613,-0.4861,-0.5297,-0.5632,-0.5903,-0.6045,-0.6595,-0.7068,-0.737,-0.7534,-0.7952,-0.8557,-0.8557,-0.8644,-0.8804,-0.8804,-0.8956,3.1493,0.0,0.0,3.4406,3.5908,3.697,3.6015,3.5641,3.5431,3.517,3.3749,3.2593,3.2593,3.1057,0.0,2.9792,2.9792,2.9792,2.9792,2.9289,2.8725,2.8172,2.7833,2.7493,2.7109,2.5965,2.506,2.4373,2.3876,2.3087,2.2086,2.1296,2.0631,2.0182,1.8489,1.7565,1.7383,1.6219,1.5587,1.5579,1.4427,1.383,1.3585,1.2208,1.1227,1.0618,1.0474,1.0441,1.0414,1.012,0.9518,0.8716,0.8357,0.7677,0.675,0.555,0.4618,0.395,0.3732,0.3287,0.2883,0.3273,0.3006,0.2637,0.3048,0.2633,0.2039,0.2068,0.1607,0.1163,0.1163,0.0806,0.0493,0.0493,0.0493,0.0448,0.0269,0.0269,0.018,0.0045,0.0,-0.0135,-0.0583,-0.0672,-0.0851,-0.1474,-0.2014,-0.264,-0.354,-0.3738,-0.3775,-0.3737,-0.3768,-0.3822,-0.3894,-0.3704,-0.3846,-0.4367,-0.4637,-0.4844,-0.5048,-0.5794,-0.6348,-0.6612,-0.7054,-0.7675,-0.8427,-0.8457,-0.8604,-0.8804,-0.8804,-0.8804,0.0,0.0,3.4622,3.6925,3.7672,3.805,3.8619,3.8221,3.7451,3.6691,3.4464,3.2593,3.2593,3.1057,2.9792,2.9792,2.9792,2.9792,2.9792,2.9289,2.8725,2.8172,2.7155,2.6515,0.0,2.6518,2.5954,2.4848,2.4403,2.4125,2.4113,2.2391,2.1177,2.0797,1.9344,1.8368,1.7959,1.7001,1.6567,1.6558,1.5145,1.449,1.4388,1.2894,1.1589,1.0611,1.0254,1.0134,1.0107,0.982,0.9526,0.9141,0.8453,0.8007,0.7557,0.6804,0.6091,0.5324,0.4677,0.446,0.4381,0.4241,0.4045,0.3896,0.3792,0.3272,0.2677,0.2674,0.2228,0.1784,0.1784,0.1739,0.1741,0.1741,0.1741,0.1607,0.0984,0.0895,0.0716,0.0135,0.0,0.0,-0.0045,-0.0045,-0.0224,-0.0851,-0.0941,-0.1389,-0.2593,-0.3376,-0.3737,-0.3602,-0.3707,-0.3737,-0.3605,-0.3585,-0.3626,-0.3629,-0.4144,-0.4439,-0.4434,-0.5583,-0.6314,-0.6606,-0.7442,-0.8028,-0.8427,-0.8657,-0.8798,-0.8804,-0.8804,-0.8804,0.0,0.0,3.6087,3.7879,3.8819,3.9295,3.897,3.8302,3.7446,3.6206,3.3636,3.1349,3.0457,2.9395,2.8605,2.8195,2.9063,2.9792,2.9792,2.9289,2.8586,2.767,2.7231,0.0,0.0,0.0,0.0,2.4469,2.4269,2.3729,2.2737,2.2121,2.1307,2.0233,1.9431,1.8738,1.8008,1.7716,1.7368,1.7092,1.5521,1.4418,1.3754,1.3027,1.2128,1.1081,1.0972,1.0464,0.9806,0.9512,0.9325,0.9163,0.8754,0.8511,0.8321,0.7616,0.7176,0.6794,0.5601,0.4897,0.4494,0.4241,0.4093,0.3992,0.3836,0.3553,0.3306,0.3306,0.2857,0.2406,0.2406,0.2095,0.1786,0.1786,0.1748,0.1629,0.1416,0.1257,0.1035,0.0554,0.0472,0.0347,0.0045,0.0,-0.0225,-0.0806,-0.1251,-0.1652,-0.2051,-0.2663,-0.3033,-0.2993,-0.3392,-0.3632,-0.3585,-0.3581,-0.3581,-0.3581,-0.3751,-0.388,-0.388,-0.4272,-0.4692,-0.5149,-0.544,-0.6094,-0.7208,-0.7529,-0.7967,-0.8524,-0.8717,-0.8804,3.5867,3.7088,3.7871,3.9415,3.9967,3.9952,3.9437,3.8329,3.71,3.5943,3.2856,3.014,2.9285,2.8109,2.7229,2.7041,2.7725,2.8499,2.9101,2.8524,2.7934,2.7607,2.7231,0.0,0.0,0.0,0.0,2.4396,2.4796,2.4402,2.2989,2.2672,2.2026,2.0929,1.9863,1.8961,1.8221,1.7908,1.749,1.6904,1.5823,1.4727,1.3704,1.3339,1.2687,1.1685,1.143,1.0922,1.0214,0.9624,0.9397,0.9376,0.8984,0.8804,0.8752,0.8268,0.7937,0.7503,0.6308,0.5437,0.4816,0.4658,0.4346,0.3992,0.3836,0.3693,0.3581,0.3581,0.3306,0.3034,0.3034,0.2721,0.2455,0.2455,0.2365,0.2276,0.2058,0.1886,0.1656,0.1194,0.1072,0.0995,0.0713,0.0448,0.0179,-0.0179,-0.076,-0.1295,-0.1741,-0.214,-0.2364,-0.2364,-0.2724,-0.3037,-0.3262,-0.3262,-0.3353,-0.3578,-0.3581,-0.3581,-0.3581,-0.3796,-0.4049,-0.4387,-0.4719,-0.5311,-0.6282,-0.663,-0.7079,-0.7604,-0.7825,-0.7955,3.91,3.9662,3.9794,4.1379,4.092,4.002,4.002,3.8282,3.6453,3.5668,3.2083,2.897,0.0,0.0,2.5853,2.6491,2.6125,2.6395,2.7959,2.7268,2.6967,0.0,0.0,0.0,0.0,0.0,0.0,2.4745,0.0,2.5862,2.4795,2.394,2.3227,2.2703,2.0576,1.9198,1.867,1.7825,1.7012,1.6236,1.6156,1.5492,1.4278,1.3856,1.3208,1.239,1.1672,1.1358,1.1202,1.0246,0.9814,0.971,0.9113,0.8804,0.8804,0.8804,0.8374,0.767,0.6966,0.6199,0.5512,0.54,0.4754,0.4041,0.3894,0.3746,0.3581,0.3581,0.3581,0.3581,0.3581,0.3581,0.3581,0.3581,0.3575,0.3429,0.2835,0.27,0.2524,0.1951,0.1825,0.1786,0.1786,0.134,0.0939,0.0939,0.0448,-0.0359,-0.1563,-0.1741,-0.1741,-0.1741,-0.1784,-0.2051,-0.2583,-0.2674,-0.2898,-0.3534,-0.3534,-0.3578,-0.3581,-0.4092,-0.4347,-0.4347,-0.5191,-0.5616,-0.5616,-0.5981,-0.6143,-0.6197,-0.6344,-0.6406,3.8954,3.9576,3.9859,4.0889,4.0212,3.9159,3.867,3.6832,3.4617,3.2435,2.9861,2.738,0.0,0.0,0.0,2.6077,2.7704,0.0,2.9315,2.875,0.0,0.0,0.0,2.6691,2.5686,2.5737,0.0,0.0,2.4469,2.4318,2.3602,2.3779,2.3352,2.2154,2.1561,2.066,1.9405,1.8523,1.7986,1.7737,1.6827,1.6069,1.5442,1.4805,1.3765,1.2475,1.2272,1.1688,1.0902,1.0651,1.0261,0.9762,0.9614,0.9263,0.8804,0.8804,0.8699,0.848,0.8321,0.7396,0.6303,0.6304,0.562,0.4792,0.4792,0.4241,0.3581,0.3581,0.3581,0.3581,0.3581,0.3581,0.3581,0.3581,0.349,0.3291,0.3054,0.2989,0.2829,0.2223,0.1922,0.1786,0.1786,0.165,0.1563,0.1563,0.1073,0.0403,-0.0359,-0.0851,-0.1118,-0.1118,-0.1518,-0.1873,-0.2008,-0.2051,-0.2273,-0.2898,-0.2943,-0.3126,-0.3578,-0.3751,-0.3792,-0.3792,-0.401,-0.4337,-0.4723,-0.5056,-0.5433,-0.5821,-0.6221,-0.6406,3.9035,3.9307,3.9423,4.0192,3.9443,3.817,3.6953,3.4953,3.2574,2.9627,2.7316,0.0,0.0,0.0,0.0,0.0,0.0,0.0,2.9108,2.8464,2.7908,0.0,2.762,0.0,2.6063,2.5837,2.5347,0.0,2.4569,2.4243,2.3128,2.369,2.3542,2.2469,2.1836,2.0717,1.907,1.8371,1.7991,1.7991,1.7322,1.6883,1.6602,1.5504,1.452,1.3659,0.0,1.2319,1.1692,1.1366,1.1015,1.0669,1.0364,0.9814,0.9263,0.9263,0.9061,0.8804,0.8804,0.8262,0.7503,0.7182,0.6339,0.5483,0.5483,0.4845,0.4062,0.3987,0.3842,0.3659,0.3595,0.3581,0.3581,0.3581,0.3514,0.3429,0.3341,0.332,0.3238,0.2865,0.2681,0.2591,0.2591,0.2364,0.2184,0.2184,0.1697,0.1163,0.0851,0.0045,-0.0493,-0.0493,-0.0806,-0.1118,-0.1385,-0.1385,-0.1652,-0.2273,-0.2317,-0.2586,-0.317,-0.3214,-0.335,-0.3581,-0.3581,-0.3751,-0.4049,-0.4235,-0.4463,-0.4785,-0.5176,-0.5351,3.8973,3.8774,3.8487,3.9191,3.8261,3.6705,3.4855,3.2802,3.0352,2.7067,0.0,0.0,2.34,0.0,2.4077,2.5379,0.0,2.6166,2.8449,2.7533,2.7006,2.7971,2.7557,2.6954,2.6402,2.5485,2.487,2.472,2.5121,2.472,2.3153,2.3615,2.3615,2.2977,2.1666,2.0194,1.8612,1.8157,1.7907,1.7907,1.7797,1.7675,1.7517,1.5911,1.5111,1.4963,0.0,0.0,1.2832,1.2187,1.1873,1.1765,1.1166,1.0517,0.9917,0.9814,0.9413,0.891,0.8857,0.8804,0.8699,0.8049,0.7081,0.6216,0.6216,0.5558,0.4826,0.4678,0.4319,0.3965,0.3902,0.3814,0.3711,0.3711,0.3667,0.3575,0.3554,0.3551,0.3554,0.3578,0.3581,0.3581,0.3581,0.317,0.2807,0.2807,0.2319,0.1919,0.1919,0.094,0.0225,0.0135,0.0135,-0.0135,-0.0716,-0.0761,-0.1029,-0.1652,-0.1697,-0.1962,-0.2541,-0.2583,-0.281,-0.3353,-0.3442,-0.349,-0.349,-0.3598,-0.3598,-0.3588,-0.3883,-0.4009,3.7981,3.746,3.6841,3.7254,3.5696,3.363,3.1836,3.0225,0.0,0.0,0.0,2.3954,2.2323,2.3316,0.0,2.5878,0.0,0.0,0.0,0.0,2.7575,0.0,0.0,0.0,0.0,0.0,0.0,0.0,0.0,0.0,2.3115,2.3226,2.3025,2.2472,2.1356,2.0623,2.0274,1.9707,1.9423,1.9423,1.8821,1.8107,1.7281,1.5877,1.4774,1.3999,0.0,0.0,1.2881,1.2774,1.2344,1.1765,1.1665,1.1216,1.0568,1.0012,0.9718,0.9562,0.9008,0.8804,0.8758,0.8646,0.7991,0.7265,0.7265,0.6444,0.5569,0.5808,0.5479,0.509,0.5269,0.4821,0.426,0.426,0.3924,0.3544,0.3373,0.3346,0.3383,0.3554,0.3581,0.3581,0.3581,0.3534,0.3442,0.3442,0.2946,0.2541,0.2541,0.1919,0.1297,0.0806,0.0761,0.0493,-0.009,-0.0135,-0.0403,-0.1029,-0.1073,-0.134,-0.1919,-0.1962,-0.2006,-0.2097,-0.2586,-0.2854,-0.2854,-0.3462,-0.3693,-0.3588,-0.3883,-0.3951,3.6335,3.5431,3.4608,3.5308,3.4035,3.2074,2.9695,0.0,0.0,0.0,0.0,2.3325,2.2383,0.0,0.0,0.0,0.0,0.0,0.0,0.0,0.0,0.0,0.0,0.0,0.0,0.0,0.0,0.0,0.0,0.0,2.309,2.2862,2.2322,2.1481,2.0941,2.0567,2.0213,1.9936,1.9798,1.9798,1.9423,1.8914,1.8154,1.6541,1.5427,1.4595,1.3435,0.0,1.2881,1.2881,1.2666,1.2344,1.2344,1.1931,1.1266,1.0965,1.0618,1.0218,0.9562,0.9309,0.9263,0.891,0.8449,0.7955,0.7955,0.7308,0.6497,0.6449,0.6053,0.5626,0.554,0.5164,0.487,0.487,0.4439,0.3898,0.3526,0.347,0.349,0.3565,0.3581,0.3581,0.3581,0.3581,0.3581,0.3581,0.335,0.317,0.317,0.2904,0.2366,0.1474,0.1385,0.1118,0.0538,0.0448,0.0224,-0.0403,-0.0448,-0.0716,-0.1295,-0.134,-0.1474,-0.1786,-0.2095,-0.2228,-0.2228,-0.2592,-0.273,-0.2682,-0.285,-0.2944,3.4684,3.369,3.2737,3.3325,3.2291,3.0452,2.7695,2.6624,0.0,0.0,2.1964,2.2832,2.2739,0.0,0.0,0.0,0.0,0.0,0.0,0.0,0.0,0.0,0.0,0.0,0.0,0.0,0.0,0.0,0.0,0.0,2.289,2.2322,2.1556,2.0743,2.0592,2.0263,1.9811,1.9798,1.9748,1.9635,1.9635,1.9296,1.8607,1.7107,1.5995,1.5258,1.3765,0.0,0.0,1.2881,1.2881,1.2881,1.2881,1.2559,1.203,1.1864,1.1466,1.0914,1.0269,1.0012,0.9917,0.9413,0.8903,0.847,0.847,0.8063,0.7472,0.7151,0.6735,0.633,0.5945,0.5722,0.5538,0.5361,0.4957,0.4478,0.4056,0.3968,0.3968,0.3968,0.3968,0.3968,0.3968,0.3968,0.3968,0.3968,0.384,0.3751,0.3751,0.3667,0.322,0.2275,0.2053,0.1741,0.1163,0.1073,0.0851,0.0224,0.018,-0.009,-0.0672,-0.0716,-0.094,-0.1385,-0.1563,-0.1607,-0.1607,-0.1756,-0.1846,-0.1787,-0.1957,-0.1986,3.3522,3.2956,3.2387,3.136,2.9605,2.7502,2.5212,0.0,0.0,2.2039,2.2622,2.334,2.2787,2.2768,2.2966,0.0,0.0,0.0,0.0,0.0,0.0,0.0,0.0,0.0,0.0,0.0,0.0,0.0,0.0,0.0,0.0,2.1393,2.0819,2.0718,2.0162,1.9861,1.9798,1.9798,1.956,1.9046,1.9046,1.8555,1.7526,1.6771,1.5788,1.4719,0.0,0.0,0.0,1.2881,1.2881,1.2881,1.2881,1.2881,1.2725,1.203,1.1765,1.1616,1.0965,1.072,1.0712,1.0669,0.9791,0.8764,0.8764,0.8532,0.8366,0.852,0.8167,0.7719,0.7674,0.7077,0.6281,0.5484,0.526,0.5216,0.5135,0.5135,0.5135,0.5135,0.5135,0.5135,0.5135,0.5135,0.5135,0.5135,0.4696,0.4303,0.4303,0.388,0.3578,0.3445,0.2946,0.2361,0.1784,0.1697,0.1474,0.0851,0.0806,0.0538,-0.0045,-0.009,-0.009,-0.018,-0.0716,-0.0984,-0.0984,-0.167,-0.1898,-0.1787,-0.1957,-0.1955,3.2782,3.2444,3.1685,3.135,2.9173,2.6722,2.5236,0.0,0.0,2.2024,2.2712,2.352,2.3281,2.2921,2.2664,2.2473,0.0,0.0,0.0,0.0,0.0,0.0,0.0,0.0,0.0,0.0,0.0,0.0,0.0,0.0,0.0,2.1107,2.0501,2.0162,1.9924,1.9648,1.9334,1.9334,1.907,1.853,1.853,1.8129,1.7375,1.672,1.5995,1.5231,0.0,0.0,0.0,1.3836,1.3573,1.2929,1.3286,1.3238,1.2871,1.2559,1.2452,1.2344,1.1674,1.1416,1.1366,1.0914,1.0415,0.9917,0.951,0.9327,0.9169,0.8711,0.825,0.7842,0.7695,0.7243,0.6693,0.5981,0.583,0.5744,0.5394,0.5303,0.5303,0.5303,0.5303,0.5303,0.5303,0.5303,0.5303,0.5303,0.5087,0.4957,0.4957,0.4744,0.4618,0.4618,0.3785,0.299,0.2408,0.2361,0.2095,0.1474,0.1429,0.134,0.1073,0.1073,0.1073,0.1073,0.0492,0.0179,0.0179,-0.0455,-0.0774,-0.0717,-0.0775,-0.0773,3.1171,3.1551,3.1439,3.1103,2.8779,2.6297,0.0,0.0,2.2772,2.1874,2.2413,2.3101,2.3295,2.2966,2.2439,2.1545,0.0,2.1335,0.0,0.0,0.0,0.0,0.0,0.0,0.0,0.0,0.0,0.0,0.0,0.0,0.0,2.0811,2.0257,1.9811,1.966,1.9397,1.8983,1.8869,1.8505,1.7953,1.7953,1.7664,1.7124,1.6626,1.6035,1.532,0.0,0.0,0.0,1.4376,1.4107,1.319,1.3637,1.3552,1.3152,1.2978,1.2881,1.2832,1.2295,1.2129,1.203,1.1584,1.1434,1.1275,1.0618,1.0261,0.9915,0.9047,0.8371,0.7856,0.7548,0.7241,0.6894,0.652,0.6435,0.6301,0.5905,0.5819,0.5819,0.5819,0.5819,0.5819,0.5819,0.5819,0.5819,0.5819,0.5653,0.5567,0.5567,0.5394,0.5303,0.5303,0.4574,0.3873,0.3246,0.3075,0.2721,0.2095,0.2051,0.2006,0.1786,0.1786,0.1786,0.1786,0.1385,0.1163,0.1163,0.0761,0.0448,0.0269,0.0269,0.0182,2.8382,3.0104,3.174,3.0197,2.8008,2.5863,0.0,0.0,2.171,2.1695,2.171,2.1919,2.2604,2.2724,2.2248,2.0932,2.1261,0.0,0.0,0.0,0.0,0.0,0.0,0.0,0.0,0.0,0.0,0.0,0.0,0.0,0.0,2.0316,1.9924,1.9786,1.9309,1.8983,1.8983,1.848,1.794,1.7388,1.7388,1.7087,1.6522,1.6479,1.5832,0.0,0.0,0.0,0.0,1.4201,1.4329,1.3779,1.3815,1.3815,1.3732,1.3104,1.2881,1.2881,1.2881,1.2881,1.2881,1.2881,1.2881,1.2725,1.1972,1.1316,1.0661,0.9961,0.8863,0.7856,0.7548,0.7241,0.6979,0.6979,0.6979,0.6979,0.6979,0.6979,0.6979,0.6979,0.6979,0.6979,0.6979,0.6979,0.6979,0.6979,0.6513,0.6179,0.6179,0.5658,0.5303,0.5303,0.5303,0.5043,0.443,0.388,0.335,0.2719,0.2672,0.2406,0.183,0.1786,0.1786,0.1786,0.1786,0.1784,0.1784,0.1784,0.1474,0.0895,0.0895,0.0561,2.7358,2.8187,2.8653,2.863,2.6368,2.4028,2.3631,0.0,2.1021,2.1021,2.138,2.1754,2.1964,2.2009,2.1724,2.0857,2.0887,0.0,0.0,0.0,0.0,0.0,0.0,0.0,0.0,0.0,0.0,0.0,0.0,0.0,0.0,2.0196,1.9655,1.9258,1.8744,1.8292,1.7903,1.7727,1.735,1.6785,1.6785,1.6697,1.6522,1.6522,0.0,0.0,0.0,0.0,0.0,1.5421,1.5107,1.3862,1.4721,1.4778,1.4376,1.4201,1.3884,1.3505,1.3505,1.3238,1.2881,1.2881,1.2676,1.2443,1.2522,1.2039,1.1254,1.0075,0.9244,0.8645,0.8392,0.7979,0.7614,0.7614,0.7321,0.6979,0.6979,0.6979,0.6979,0.6979,0.6979,0.6979,0.6979,0.6979,0.6979,0.6979,0.6852,0.6725,0.6725,0.6592,0.6465,0.6465,0.613,0.5524,0.4474,0.4264,0.3917,0.335,0.3306,0.3217,0.3037,0.3037,0.3037,0.3037,0.2632,0.2406,0.2406,0.2006,0.1697,0.1518,0.1518,0.1404,0.0,2.668,2.7012,2.7403,2.5235,0.0,0.0,0.0,2.0393,2.0662,2.0827,2.1021,2.1276,2.1461,2.1334,2.0667,2.0904,0.0,0.0,0.0,0.0,0.0,0.0,0.0,0.0,0.0,0.0,0.0,0.0,0.0,0.0,0.0,1.956,1.9001,1.8459,1.7944,1.7433,1.7162,1.6873,1.6522,1.6522,1.6522,1.6522,1.6522,0.0,0.0,0.0,0.0,0.0,1.602,1.5688,1.4549,1.5309,1.5365,1.5017,1.4789,1.4329,1.3815,1.3815,1.3552,1.32,1.2968,1.2588,1.2239,1.2559,1.2167,1.1331,1.0193,0.9508,0.9044,0.8774,0.8439,0.8201,0.8201,0.7897,0.7599,0.7398,0.7321,0.728,0.7021,0.6979,0.7063,0.7321,0.7321,0.7321,0.7321,0.7321,0.7273,0.7021,0.6979,0.6979,0.6979,0.6683,0.613,0.5173,0.487,0.4613,0.4272,0.4012,0.3924,0.3924,0.3711,0.3581,0.3581,0.3214,0.3034,0.3034,0.2453,0.214,0.214,0.1919,0.1801,0.0,2.542,0.0,0.0,0.0,0.0,0.0,0.0,0.0,2.0513,2.0124,1.9936,2.0625,2.1011,2.1058,2.0519,2.1298,0.0,0.0,0.0,0.0,0.0,0.0,0.0,0.0,0.0,0.0,0.0,0.0,0.0,0.0,0.0,1.9587,1.8934,1.8473,1.7983,1.7447,1.6872,1.6552,1.6552,1.6522,1.6522,1.6522,1.6522,0.0,0.0,0.0,0.0,0.0,1.602,1.6139,1.5588,1.5632,1.5676,1.5588,1.5017,1.4468,1.3899,1.3878,1.3856,1.3716,1.308,1.2575,1.226,1.2155,1.1667,1.1049,1.0349,0.97,0.9139,0.8889,0.8797,0.8756,0.8756,0.8716,0.8561,0.8077,0.7953,0.7787,0.7231,0.7105,0.7314,0.787,0.7953,0.7953,0.7953,0.7953,0.7746,0.7189,0.7105,0.7105,0.7063,0.7063,0.6852,0.6307,0.5701,0.5351,0.5303,0.4783,0.4478,0.4478,0.3968,0.3711,0.3667,0.3622,0.3581,0.3581,0.3034,0.2763,0.2763,0.2184,0.1914,2.3714,0.0,2.3714,2.4193,2.3101,0.0,0.0,0.0,0.0,0.0,0.0,2.0029,2.1095,2.0879,2.0808,2.1544,2.1919,0.0,0.0,0.0,0.0,0.0,0.0,0.0,0.0,0.0,0.0,0.0,0.0,0.0,0.0,0.0,1.9478,1.8917,1.88,1.8486,1.7923,1.7378,1.7118,1.7118,1.671,1.6522,1.6522,1.6522,0.0,0.0,0.0,0.0,1.5454,1.6194,1.6139,1.5632,1.6095,1.6281,1.6281,1.6151,1.5688,1.5128,1.4713,1.4281,1.3707,1.2806,1.2646,1.2626,1.1601,1.1143,1.0951,1.0749,1.0381,1.0005,0.995,0.9637,0.9319,0.9319,0.8999,0.8683,0.8561,0.8513,0.848,0.8349,0.83,0.8349,0.8472,0.8513,0.8513,0.8513,0.8513,0.8472,0.8308,0.83,0.8144,0.7746,0.7704,0.7447,0.6852,0.6301,0.5787,0.5346,0.5173,0.5087,0.5087,0.4961,0.47,0.422,0.3792,0.3581,0.3581,0.3442,0.3398,0.3398,0.3265,0.3191,2.352,2.3355,2.3176,2.352,2.2787,2.1979,0.0,0.0,0.0,0.0,0.0,2.0488,2.1151,2.1337,0.0,0.0,0.0,0.0,0.0,0.0,0.0,0.0,0.0,0.0,0.0,0.0,0.0,0.0,0.0,0.0,0.0,0.0,1.9566,1.9281,1.9281,1.8893,1.8106,1.7827,1.7544,1.7312,1.6993,1.6752,1.6522,1.6522,0.0,0.0,0.0,0.0,1.6051,1.638,1.6293,1.6051,1.638,1.6522,1.6522,1.6522,1.5948,1.5207,1.4903,1.4209,1.3448,1.3208,1.2941,1.2582,1.186,1.1471,1.1201,1.0735,1.0459,1.0283,1.0283,1.0079,0.9883,0.9883,0.9637,0.9359,0.9119,0.9079,0.8999,0.8756,0.8716,0.8756,0.9039,0.9079,0.9079,0.9079,0.9079,0.8958,0.8716,0.8716,0.8602,0.8316,0.8275,0.8028,0.7447,0.7356,0.6965,0.6118,0.5867,0.5701,0.5701,0.5437,0.513,0.4826,0.453,0.436,0.436,0.4096,0.3965,0.3965,0.3711,0.3581,2.3423,2.393,2.4215,2.3827,2.3234,2.2745,0.0,0.0,0.0,0.0,0.0,0.0,0.0,0.0,0.0,0.0,0.0,0.0,0.0,0.0,0.0,0.0,0.0,0.0,0.0,0.0,0.0,0.0,0.0,0.0,0.0,0.0,0.0,1.969,1.969,1.9244,1.8341,1.8263,1.7987,1.7544,1.7463,1.7146,1.6637,1.6637,1.6595,0.0,0.0,0.0,1.6522,1.6522,1.6522,1.6522,1.6522,1.6522,1.6522,1.6522,1.5868,1.5042,1.4875,1.4029,1.3116,1.3698,1.3248,1.2494,1.2456,1.2174,1.17,1.0802,1.0467,1.04,1.0322,1.0283,1.0283,1.0283,1.0283,1.0166,0.9716,0.9637,0.9478,0.9039,0.8958,0.9079,0.9558,0.9637,0.9637,0.9637,0.9637,0.9439,0.8999,0.8958,0.8918,0.8837,0.8837,0.8602,0.8077,0.8439,0.8308,0.7314,0.6852,0.6562,0.6477,0.5782,0.5453,0.5489,0.5366,0.5323,0.5353,0.4797,0.4522,0.4517,0.4052,0.384,2.3388,2.5487,2.711,2.4865,2.4555,2.4681,0.0,0.0,0.0,0.0,0.0,0.0,0.0,0.0,0.0,0.0,0.0,0.0,0.0,0.0,0.0,0.0,0.0,0.0,0.0,0.0,0.0,0.0,0.0,0.0,0.0,0.0,0.0,1.969,1.969,1.9603,1.9442,1.9006,1.8727,1.865,1.8185,1.7706,1.7188,1.7188,1.6909,0.0,0.0,1.6522,1.6522,1.6522,1.6522,1.6522,1.6522,1.6522,1.6522,1.6522,1.6373,1.6131,1.5197,1.4138,1.3189,1.3307,1.321,1.2995,1.2627,1.246,1.2282,1.1726,1.1244,1.0791,1.039,1.0283,1.0283,1.0283,1.0283,1.0283,1.0196,1.0166,1.0157,1.0079,1.004,1.0079,1.0157,1.0166,1.0166,1.0166,1.0166,1.0166,1.004,1.004,0.9883,0.9439,0.9359,0.9159,0.8643,0.8635,0.8635,0.8472,0.8349,0.8103,0.7663,0.6647,0.6148,0.6406,0.5667,0.5399,0.5626,0.5306,0.5173,0.5173,0.5091,0.5048,2.3011,2.5109,2.6812,2.5577,2.6322,2.7199,0.0,0.0,0.0,0.0,0.0,0.0,0.0,0.0,0.0,0.0,0.0,0.0,0.0,0.0,0.0,0.0,0.0,0.0,0.0,0.0,0.0,0.0,0.0,0.0,0.0,0.0,0.0,0.0,1.9803,1.969,1.969,1.9442,1.9207,1.8893,1.865,1.8263,1.7706,1.7422,1.7146,1.6909,0.0,1.6522,1.6522,1.6522,1.6522,1.6522,1.6522,1.6522,1.6441,1.6183,1.607,1.5919,1.484,1.4135,1.3622,1.3298,1.3198,1.3163,1.2943,1.2873,1.2791,1.233,1.1799,1.1394,1.118,1.0916,1.0687,1.0687,1.0467,1.0283,1.0283,1.0283,1.0283,1.0283,1.0283,1.0283,1.0283,1.0283,1.0283,1.0283,1.0283,1.0283,1.0283,1.0283,1.0205,0.9961,0.9922,0.9716,0.9159,0.9399,0.9319,0.8716,0.8716,0.8602,0.8357,0.7807,0.7539,0.75,0.7139,0.6824,0.6684,0.6208,0.5914,0.5787,0.5437,0.5303,2.2684,2.4517,2.6106,2.594,0.0,0.0,0.0,0.0,0.0,0.0,0.0,0.0,0.0,0.0,0.0,0.0,0.0,0.0,0.0,0.0,0.0,0.0,0.0,0.0,0.0,0.0,0.0,0.0,0.0,0.0,0.0,0.0,0.0,0.0,1.9832,1.9707,1.945,1.9615,1.9479,1.9095,1.8935,1.8659,1.8249,1.7678,1.737,1.7271,1.6879,1.6637,1.6522,1.6522,1.6522,1.6522,1.6522,1.6522,1.6471,1.6045,1.5731,1.5379,1.4576,1.411,1.3821,1.3336,1.3198,1.3198,1.3198,1.3198,1.3129,1.2768,1.2401,1.2066,1.1847,1.1505,1.1207,1.1207,1.0916,1.0621,1.0505,1.0467,1.0428,1.0322,1.0283,1.0283,1.0283,1.0283,1.0283,1.0283,1.0283,1.0283,1.0283,1.0283,1.0283,1.0283,1.0283,1.0156,0.9855,1.0136,0.9999,0.9241,0.9009,0.8878,0.8878,0.8756,0.8681,0.8631,0.8494,0.8268,0.8006,0.7288,0.6805,0.6605,0.5996,0.569,2.2605,2.4629,2.6505,2.5797,2.6775,0.0,2.9627,0.0,0.0,0.0,0.0,0.0,0.0,0.0,0.0,0.0,0.0,0.0,0.0,0.0,0.0,0.0,0.0,0.0,0.0,0.0,0.0,0.0,0.0,0.0,0.0,0.0,0.0,0.0,0.0,1.9798,1.8777,1.9375,1.969,1.9639,1.9026,1.8744,1.8826,1.8164,1.7644,1.7312,1.7271,1.6951,1.6522,1.6522,1.6522,1.6522,1.6522,1.6522,1.6509,1.6471,1.5806,1.4966,1.4878,1.4149,1.3248,1.321,1.3198,1.3198,1.3198,1.3198,1.3198,1.3163,1.3129,1.2908,1.2029,1.1774,1.1737,1.1737,1.1737,1.1553,1.1057,1.0943,1.0829,1.039,1.0283,1.0283,1.0283,1.0283,1.0283,1.0283,1.0283,1.0283,1.0283,1.0283,1.0283,1.0283,1.0283,1.0439,1.0789,1.0508,1.0449,1.0707,0.9929,0.9439,0.9439,0.8958,0.8997,0.96,0.9013,0.8954,0.9562,0.8364,0.781,0.7746,0.7147,0.6894,2.2328,2.4183,2.5845,2.5101,2.655,0.0,0.0,0.0,0.0,0.0,0.0,0.0,0.0,0.0,0.0,0.0,0.0,0.0,0.0,0.0,0.0,0.0,0.0,0.0,0.0,0.0,0.0,0.0,0.0,0.0,0.0,0.0,0.0,0.0,0.0,1.8711,1.8089,1.8343,1.8463,1.8463,1.8627,1.8718,1.875,1.7725,1.7199,1.7038,1.677,1.6543,1.6378,1.6456,1.6522,1.6522,1.6522,1.6522,1.6522,1.6522,1.6032,1.5329,1.5029,1.4412,1.3684,1.3311,1.3198,1.3198,1.3198,1.3198,1.3198,1.3198,1.3198,1.3129,1.2756,1.2461,1.2246,1.2246,1.1993,1.1737,1.1542,1.1505,1.1442,1.1255,1.0954,1.0725,1.0725,1.0505,1.0283,1.0283,1.0283,1.0283,1.0283,1.0283,1.0283,1.0283,1.0912,1.1297,1.1322,1.154,1.1429,1.0918,1.0349,1.0,1.0,0.9804,0.9731,0.9831,0.9563,0.9393,0.9322,0.8888,0.8564,0.8398,0.8144,0.8054,2.2163,2.3427,2.4523,0.0,0.0,0.0,0.0,0.0,0.0,0.0,0.0,0.0,0.0,0.0,0.0,0.0,0.0,0.0,0.0,0.0,0.0,0.0,0.0,0.0,0.0,0.0,0.0,0.0,0.0,0.0,0.0,0.0,0.0,0.0,0.0,1.8161,1.759,1.7642,1.7697,1.7697,1.7936,1.8194,1.8354,1.7529,1.7055,1.6898,1.6821,1.6713,1.6559,1.6484,1.6372,1.6271,1.6446,1.6409,1.6283,1.6459,1.6057,1.5379,1.5041,1.4437,1.377,1.3311,1.3198,1.3198,1.3198,1.3198,1.3198,1.3198,1.3198,1.3198,1.3198,1.2943,1.272,1.272,1.2473,1.221,1.2066,1.2029,1.1993,1.1811,1.1505,1.1244,1.1244,1.0992,1.0764,1.0764,1.0764,1.0764,1.0764,1.0764,1.0825,1.1007,1.1533,1.1941,1.2107,1.2352,1.2212,1.1399,1.1009,1.0621,1.0322,1.0283,1.027,1.0224,1.0105,0.9897,0.9674,0.9393,0.9123,0.8958,0.8797,0.8774,2.218,2.231,2.2609,0.0,0.0,0.0,0.0,0.0,0.0,0.0,0.0,0.0,0.0,0.0,0.0,0.0,0.0,0.0,0.0,0.0,0.0,0.0,0.0,0.0,0.0,0.0,0.0,0.0,0.0,0.0,0.0,0.0,0.0,0.0,0.0,0.0,1.7308,1.756,1.7682,1.7667,1.701,1.704,1.7682,1.7667,1.739,1.6933,1.7584,1.7602,1.7044,1.6519,1.6072,1.5784,1.6296,1.6183,1.5768,1.6308,1.5806,1.4903,1.4903,1.4149,1.3198,1.3198,1.3198,1.3198,1.3198,1.3198,1.3198,1.3198,1.3198,1.3198,1.3198,1.3198,1.3198,1.3198,1.3198,1.3082,1.2615,1.2508,1.2354,1.1884,1.1811,1.1811,1.1811,1.1811,1.1811,1.1811,1.1811,1.1811,1.1811,1.1811,1.2002,1.2535,1.2138,1.2214,1.3103,1.2833,1.2541,1.2413,1.2043,1.133,1.0361,1.0322,1.0478,1.0898,1.0488,1.0488,1.0898,0.995,0.9518,0.9478,0.8967,0.8956,2.2483,2.3381,0.0,0.0,0.0,0.0,0.0,0.0,0.0,0.0,0.0,0.0,0.0,0.0,0.0,0.0,0.0,0.0,0.0,0.0,0.0,0.0,0.0,0.0,0.0,0.0,0.0,0.0,0.0,0.0,0.0,0.0,0.0,0.0,0.0,0.0,1.6934,1.6797,1.6734,1.6705,1.6261,1.6398,1.698,1.6563,1.6278,1.6157,1.6424,1.6707,1.6987,1.7408,1.7207,1.6728,1.7397,1.7223,1.6649,1.6573,1.575,1.4715,1.4435,1.3822,1.3198,1.3198,1.3198,1.3198,1.3198,1.3198,1.3198,1.3198,1.3198,1.3198,1.3198,1.3198,1.3198,1.3198,1.3198,1.3163,1.3012,1.2978,1.2943,1.2803,1.2508,1.2282,1.2282,1.2029,1.1811,1.1811,1.1811,1.1811,1.1811,1.1811,1.1953,1.2407,1.2696,1.2929,1.3051,1.338,1.3242,1.2435,1.2279,1.1779,1.085,1.0791,1.0671,1.0469,1.0342,1.0342,1.0469,1.0185,1.004,1.0088,1.0174,1.033,2.2634,0.0,0.0,0.0,0.0,0.0,0.0,0.0,0.0,0.0,0.0,0.0,0.0,0.0,0.0,0.0,0.0,0.0,0.0,0.0,0.0,0.0,0.0,0.0,0.0,0.0,0.0,0.0,0.0,0.0,0.0,0.0,0.0,0.0,0.0,0.0,1.7002,1.6528,1.6301,1.6301,1.5955,1.5979,1.6353,1.6219,1.6024,1.5815,1.6138,1.6384,1.6618,1.7317,1.714,1.6437,1.7064,1.694,1.6373,1.6359,1.5738,1.49,1.4655,1.4185,1.3702,1.3702,1.3615,1.3493,1.3493,1.3493,1.3459,1.3267,1.3323,1.3459,1.3267,1.3198,1.3198,1.3198,1.3035,1.2935,1.3148,1.3023,1.2935,1.316,1.2978,1.2791,1.2791,1.2544,1.2354,1.2354,1.2354,1.2354,1.2354,1.2174,1.2323,1.3009,1.3193,1.3324,1.3411,1.3823,1.3646,1.2761,1.2925,1.2739,1.1952,1.1529,1.1189,1.0844,1.1069,1.1201,1.1186,1.1416,1.1535,1.1546,1.1532,1.1654,2.2747,0.0,0.0,0.0,0.0,0.0,0.0,0.0,0.0,0.0,0.0,0.0,0.0,0.0,0.0,0.0,0.0,0.0,0.0,0.0,0.0,0.0,0.0,0.0,0.0,0.0,0.0,0.0,0.0,0.0,0.0,0.0,0.0,0.0,0.0,0.0,1.7344,1.6722,1.6382,0.0,1.6011,1.5827,1.5829,1.6353,1.6338,1.5829,1.6428,1.645,1.6042,1.6699,1.6363,1.5488,1.6027,1.5889,1.5468,1.595,1.5772,1.5283,1.5249,1.4892,1.4501,1.4501,1.4246,1.3954,1.3868,1.3927,1.3855,1.3361,1.3576,1.3868,1.3425,1.3323,1.3323,1.3323,1.291,1.2683,1.3153,1.2864,1.2695,1.3166,1.3232,1.3198,1.3198,1.3198,1.3198,1.3198,1.3198,1.3198,1.3198,1.2838,1.295,1.391,1.3594,1.3483,1.3973,1.4009,1.3795,1.3223,1.3783,1.3889,1.3394,1.2496,1.1959,1.1855,1.2373,1.2633,1.2563,1.3117,1.3406,1.3406,1.2858,1.2858,0.0,2.4176,0.0,0.0,0.0,0.0,0.0,0.0,0.0,0.0,0.0,0.0,0.0,0.0,0.0,0.0,0.0,0.0,0.0,0.0,0.0,0.0,0.0,0.0,0.0,0.0,0.0,0.0,0.0,0.0,0.0,0.0,0.0,0.0,0.0,1.7681,1.7681,1.7296,1.6952,0.0,1.6355,1.6052,1.5799,1.5933,1.5933,1.5829,1.6428,1.6352,1.5936,1.7062,1.7087,1.6476,1.7122,1.6975,1.6354,1.6149,1.5677,1.5105,1.479,1.4612,1.4501,1.4501,1.4438,1.4278,1.3751,1.3942,1.4247,1.3628,1.3893,1.4342,1.4246,1.4214,1.4214,1.4214,1.3893,1.3625,1.3709,1.3644,1.3625,1.3709,1.3459,1.3198,1.3198,1.3198,1.3198,1.3198,1.3198,1.3198,1.3198,1.3129,1.3132,1.3361,1.3303,1.3268,1.3373,1.3408,1.3323,1.321,1.3783,1.4048,1.3939,1.3734,1.343,1.3033,1.3166,1.3222,1.32,1.3324,1.3406,1.3417,1.3645,1.3569,0.0,0.0,0.0,0.0,0.0,0.0,0.0,0.0,0.0,0.0,0.0,0.0,0.0,0.0,0.0,0.0,0.0,0.0,0.0,0.0,0.0,0.0,0.0,0.0,0.0,0.0,0.0,0.0,0.0,0.0,0.0,0.0,0.0,0.0,1.8386,1.7811,1.7811,1.7479,1.7224,1.7027,1.6554,1.6108,1.5799,1.5799,1.5799,1.5829,1.6129,1.6084,1.5858,1.6503,1.6578,1.6308,1.6652,1.6578,1.6249,1.6038,1.5742,1.5418,1.5195,1.5134,1.5134,1.5134,1.4754,1.4288,1.4274,1.4288,1.4258,1.4032,1.439,1.4752,1.4564,1.4501,1.4501,1.4501,1.4155,1.3862,1.4114,1.3997,1.3875,1.4127,1.4,1.3835,1.3835,1.3835,1.3835,1.3835,1.3648,1.3547,1.3547,1.3323,1.3198,1.3198,1.3471,1.3509,1.3223,1.3471,1.3622,1.3622,1.4173,1.4601,1.4865,1.5101,1.488,1.4074,1.4352,1.45,1.4441,1.4749,1.4887,1.4887,1.4861,1.4526,0.0,0.0,0.0,0.0,0.0,0.0,0.0,0.0,0.0,0.0,0.0,0.0,0.0,0.0,0.0,0.0,0.0,0.0,0.0,0.0,0.0,0.0,0.0,0.0,0.0,0.0,0.0,0.0,0.0,0.0,0.0,0.0,2.0137,2.0002,1.8684,1.7929,1.7811,1.7526,1.7368,1.728,1.667,1.6246,1.5983,1.5983,1.5913,1.5799,1.5799,1.5799,1.5799,1.5799,1.5799,1.5799,1.5799,1.5799,1.5799,1.5799,1.5799,1.5799,1.5799,1.5799,1.5799,1.5799,1.5078,1.4313,1.4862,1.4645,1.427,1.4504,1.4852,1.5134,1.4814,1.4721,1.4721,1.4721,1.4403,1.4164,1.4516,1.4254,1.4088,1.453,1.4564,1.4501,1.4501,1.4501,1.4501,1.4501,1.4341,1.4106,1.3914,1.3726,1.3527,1.3335,1.3833,1.3957,1.3463,1.4005,1.4326,1.4326,1.4941,1.5517,1.5979,1.6501,1.6313,1.5391,1.5666,1.5793,1.5776,1.6238,1.6522,1.6479,1.6008,1.5435,0.0,0.0,0.0,0.0,0.0,0.0,0.0,0.0,0.0,0.0,0.0,0.0,0.0,0.0,0.0,0.0,0.0,0.0,0.0,0.0,0.0,0.0,0.0,0.0,0.0,0.0,0.0,0.0,0.0,0.0,0.0,2.1498,2.072,2.0018,1.9198,1.8454,1.7811,1.7766,1.7572,1.7296,1.6901,1.6712,1.6659,1.6659,1.6355,1.5799,1.5799,1.5799,1.5799,1.5799,1.5799,1.5799,1.5799,1.5799,1.5799,1.5799,1.5799,1.5799,1.5799,1.5799,1.5799,1.5799,1.5293,1.4716,1.4805,1.476,1.4716,1.475,1.5208,1.5697,1.5639,1.5639,1.5639,1.5639,1.5579,1.5448,1.5075,1.4972,1.4929,1.5029,1.4752,1.4501,1.4501,1.4501,1.4501,1.4501,1.4943,1.4963,1.402,1.466,1.4849,1.3921,1.4184,1.4424,1.431,1.4922,1.5298,1.5298,1.634,1.6999,1.7081,1.7579,1.7813,1.7651,1.6834,1.6403,1.638,1.6479,1.6522,1.6522,1.6423,1.5836,0.0,0.0,0.0,0.0,0.0,0.0,0.0,0.0,0.0,0.0,0.0,0.0,0.0,0.0,0.0,0.0,0.0,0.0,0.0,0.0,0.0,0.0,0.0,0.0,0.0,0.0,0.0,0.0,0.0,0.0,2.231,2.1583,2.0822,2.0018,1.9283,1.8555,1.7811,1.7811,1.7635,1.7296,1.7337,1.7167,1.6815,1.6977,1.6825,1.6355,1.6355,1.6246,1.6095,1.6095,1.5983,1.5799,1.5799,1.5799,1.5799,1.5799,1.5799,1.5799,1.5799,1.5559,1.5244,1.5244,1.4539,1.376,1.4124,1.3974,1.3775,1.4139,1.4707,1.5244,1.5244,1.5529,1.5799,1.5799,1.5799,1.5741,1.5551,1.5477,1.5477,1.5477,1.5359,1.5225,1.5225,1.5225,1.5355,1.5672,1.5456,1.5251,1.5161,1.5008,1.4759,1.4273,1.501,1.5371,1.5105,1.5938,1.6514,1.6514,1.7015,1.7422,1.773,1.7954,1.8106,1.8106,1.7626,1.7229,1.6951,1.6951,1.6951,1.6951,1.6951,1.6715,0.0,0.0,0.0,0.0,0.0,0.0,0.0,0.0,0.0,0.0,0.0,0.0,0.0,0.0,0.0,0.0,0.0,0.0,0.0,0.0,0.0,0.0,0.0,0.0,0.0,0.0,0.0,0.0,0.0,0.0,2.231,2.1583,2.0822,2.0018,1.9283,1.8555,1.7811,1.7811,1.7681,1.7415,1.7681,1.7542,1.7068,1.732,1.7296,1.7043,1.6866,1.6659,1.6421,1.6421,1.6274,1.6052,1.6052,1.6011,1.5926,1.5926,1.5885,1.5799,1.5799,1.5364,1.4797,1.4797,1.3885,1.2936,1.36,1.3331,1.2981,1.3825,1.4408,1.4827,1.4992,1.5439,1.5799,1.5799,1.5799,1.5799,1.5799,1.5799,1.5799,1.5799,1.5799,1.5799,1.5799,1.5799,1.5963,1.6383,1.5934,1.5587,1.5828,1.541,1.4952,1.4672,1.5707,1.6239,1.5839,1.6944,1.7653,1.7653,1.7831,1.8092,1.8468,1.8496,1.8496,1.8496,1.8496,1.8185,1.7504,1.7504,1.7504,1.7504,1.7504,1.7422,0.0,0.0,0.0,0.0,0.0,0.0,0.0,0.0,0.0,0.0,0.0,0.0,0.0,0.0,0.0,0.0,0.0,0.0,0.0,0.0,0.0,0.0,0.0,0.0,0.0,0.0,0.0,0.0,0.0,0.0,2.231,2.1583,2.0822,2.0018,1.9283,1.8555,1.7811,1.7811,1.7789,1.7766,1.7789,1.7789,1.7743,1.7766,1.7749,1.7704,1.7068,1.6789,1.6763,1.6763,1.6763,1.6738,1.6738,1.6554,1.6274,1.6274,1.6067,1.5799,1.5799,1.5364,1.4797,1.4797,1.3885,1.2936,1.36,1.3331,1.3071,1.4378,1.4767,1.4932,1.5589,1.5769,1.5799,1.5799,1.5799,1.5799,1.5799,1.5799,1.5799,1.5799,1.5799,1.5799,1.5799,1.5799,1.5814,1.5844,1.6293,1.6245,1.528,1.6006,1.62,1.5192,1.6019,1.668,1.665,1.7873,1.8634,1.8634,1.9215,1.9573,1.9603,1.9603,1.9603,1.9603,1.9603,1.9095,1.8066,1.8066,1.8066,1.8066,1.8066,1.7774,0.0,0.0,0.0,0.0,0.0,0.0,0.0,0.0,0.0,0.0,0.0,0.0,0.0,0.0,0.0,0.0,0.0,0.0,0.0,0.0,0.0,0.0,0.0,0.0,0.0,0.0,0.0,0.0,0.0,0.0,2.231,2.2057,2.1566,2.0788,2.05,1.9756,1.8521,1.8048,1.7811,1.7811,1.7811,1.7811,1.7811,1.7811,1.754,1.7084,1.6848,1.6604,1.641,1.641,1.6007,1.5424,1.5918,1.6028,1.5877,1.5713,1.5687,1.5625,1.4807,1.4192,1.3739,1.3569,1.3022,1.2458,1.2702,1.261,1.2519,1.3008,1.3643,1.4214,1.4453,1.5169,1.5841,1.6067,1.6301,1.6448,1.6448,1.6108,1.5799,1.5799,1.5799,1.6005,1.6717,1.644,1.6512,1.7621,1.7214,1.6719,1.6531,1.6467,1.6197,1.5624,1.6635,1.7339,1.7339,1.8583,1.9331,1.9331,1.9555,1.969,1.969,1.969,1.969,1.969,1.969,1.9332,1.8612,1.8612,1.8612,1.8612,1.8612,1.8688,0.0,0.0,0.0,0.0,0.0,0.0,0.0,0.0,0.0,0.0,0.0,0.0,0.0,0.0,0.0,0.0,0.0,0.0,0.0,0.0,0.0,0.0,0.0,0.0,0.0,0.0,0.0,0.0,0.0,0.0,2.231,2.2073,2.1583,2.0822,2.0551,2.0044,1.9283,1.8302,1.7929,1.8166,1.7929,1.7811,1.7794,1.754,1.7151,1.6699,1.6445,1.6202,1.6005,1.6276,1.5814,1.5022,1.5749,1.581,1.5485,1.5312,1.5265,1.5201,1.4353,1.3752,1.3305,1.3128,1.2731,1.2379,1.2634,1.254,1.2493,1.3204,1.3752,1.4185,1.4541,1.5288,1.6067,1.6382,1.6633,1.6789,1.6789,1.6367,1.5955,1.5955,1.5885,1.6063,1.6902,1.6608,1.6733,1.7992,1.7407,1.6886,1.7101,1.6729,1.6433,1.6315,1.7227,1.7983,1.8258,1.9273,1.998,2.012,1.998,1.9909,1.9909,1.9782,1.969,1.969,1.9839,1.9752,1.9346,1.9346,1.9346,1.9383,1.9528,1.9722,0.0,0.0,0.0,0.0,0.0,0.0,0.0,0.0,0.0,0.0,0.0,0.0,0.0,0.0,0.0,0.0,0.0,0.0,0.0,0.0,0.0,0.0,0.0,0.0,0.0,0.0,0.0,0.0,0.0,2.231,2.231,2.1617,2.0873,2.0086,1.935,1.9316,2.0018,1.8566,1.82,1.8894,1.8149,1.7811,1.7777,1.7033,1.6699,1.6631,1.59,1.5578,1.5578,1.6343,1.6208,1.5612,1.636,1.5988,1.5084,1.5117,1.4902,1.459,1.459,1.4152,1.361,1.3626,1.3183,1.2803,1.3512,1.3239,1.3111,1.5188,1.5277,1.4986,1.6051,1.6328,1.6394,1.6738,1.6815,1.6815,1.6815,1.6581,1.6328,1.6328,1.6067,1.5926,1.6305,1.6328,1.6463,1.6821,1.6857,1.6815,1.6815,1.6815,1.6955,1.7259,1.7851,1.8563,1.9356,1.9976,2.0516,2.0959,2.0583,2.0314,2.0314,1.9945,1.9762,1.9762,2.0124,2.0314,2.0314,2.0314,2.0314,2.0348,2.0797,2.0764,2.4113,0.0,0.0,0.0,0.0,0.0,0.0,0.0,0.0,0.0,0.0,0.0,0.0,0.0,0.0,0.0,0.0,0.0,0.0,0.0,0.0,0.0,0.0,0.0,0.0,0.0,0.0,0.0,2.2349,2.231,2.231,2.2124,2.1904,2.1684,2.094,2.0653,2.0856,1.935,1.8691,1.8894,1.8149,1.7811,1.7777,1.7033,1.6411,1.5883,1.568,1.4986,1.4074,1.48,1.4665,1.4091,1.4817,1.4929,1.4699,1.5056,1.4903,1.4476,1.4078,1.3933,1.3933,1.373,1.4039,1.4533,1.473,1.4648,1.4595,1.5184,1.5444,1.5687,1.6447,1.6825,1.7052,1.715,1.7361,1.7502,1.7502,1.7248,1.6952,1.6712,1.6581,1.6791,1.7656,1.7393,1.7314,1.8177,1.7859,1.7432,1.7199,1.7175,1.7328,1.7693,1.8321,1.9019,1.978,2.0432,2.0862,2.0991,2.0862,2.0797,2.0797,2.0698,2.0632,2.0632,2.0764,2.0797,2.0797,2.0797,2.0797,2.0829,2.0926,2.0926,0.0,0.0,0.0,0.0,0.0,0.0,2.4339,2.4428,0.0,0.0,0.0,0.0,0.0,0.0,0.0,0.0,0.0,0.0,0.0,0.0,0.0,0.0,0.0,0.0,0.0,0.0,0.0,2.25,2.236,2.231,2.231,2.231,2.231,2.231,2.1566,2.1204,2.1204,1.9655,1.8894,1.8894,1.8149,1.7811,1.7755,1.6712,1.6153,1.6001,1.5071,1.436,1.387,1.3988,1.3785,1.3481,1.4208,1.431,1.4072,1.4347,1.4284,1.4004,1.3679,1.3878,1.4238,1.4084,1.4639,1.5408,1.5729,1.5612,1.5512,1.6113,1.6341,1.6564,1.7077,1.7248,1.7344,1.7479,1.7658,1.7811,1.7811,1.7658,1.7408,1.7076,1.6892,1.7046,1.7806,1.7576,1.7565,1.8323,1.8082,1.7726,1.7526,1.7502,1.7765,1.8448,1.888,1.9528,2.0578,2.1032,2.1323,2.1524,2.1354,2.1244,2.1244,2.1086,2.0991,2.0991,2.115,2.1354,2.1554,2.1354,2.1354,2.1554,2.1554,2.1446,0.0,0.0,0.0,0.0,0.0,0.0,2.42,2.4215,2.4281,0.0,0.0,0.0,0.0,0.0,0.0,0.0,0.0,0.0,0.0,0.0,0.0,0.0,0.0,0.0,0.0,0.0,2.3045,2.2686,2.2409,2.231,2.231,2.231,2.231,2.231,2.1651,2.1312,2.1312,1.979,1.9012,1.9012,1.82,1.7811,1.776,1.6356,1.6069,1.6597,1.4616,1.409,1.4562,1.3904,1.3549,1.3464,1.4124,1.3971,1.3413,1.3498,1.3481,1.343,1.3599,1.4073,1.4629,1.4733,1.524,1.5967,1.6631,1.6356,1.612,1.7439,1.7572,1.7415,1.7726,1.7572,1.7415,1.7726,1.7811,1.7811,1.7811,1.7811,1.7704,1.7415,1.7101,1.7018,1.7296,1.7368,1.7455,1.7766,1.7811,1.7811,1.7811,1.7811,1.8229,1.9349,1.947,2.0075,2.1543,2.1688,2.1869,2.2265,2.1899,2.1688,2.1688,2.1323,2.1134,2.1134,2.1507,2.1899,2.231,2.1899,2.1899,2.231,2.231,2.2077,0.0,0.0,0.0,0.0,0.0,0.0,2.2331,2.2407,2.2483,0.0,0.0,0.0,0.0,0.0,0.0,0.0,0.0,0.0,0.0,0.0,0.0,0.0,0.0,0.0,0.0,0.0,2.2965,2.2415,2.2321,2.231,2.231,2.231,2.231,2.231,2.2175,2.209,2.209,2.0568,1.9782,1.9765,1.8454,1.7811,1.7777,1.6881,1.6563,1.6682,1.6241,1.5801,1.5375,1.5223,1.448,1.3413,1.3566,1.3532,1.3481,1.4073,1.3904,1.3566,1.4749,1.5257,1.5477,1.6069,1.6762,1.7405,1.754,1.749,1.7439,1.7726,1.7766,1.7704,1.7789,1.7766,1.7726,1.7789,1.7811,1.7811,1.7811,1.7811,1.7789,1.7704,1.7658,1.7635,1.7681,1.7704,1.7726,1.7789,1.7811,1.7811,1.7811,1.7811,1.8323,1.9731,1.9883,2.0505,2.2046,2.2163,2.2209,2.2282,2.2209,2.2163,2.2163,2.2077,2.2049,2.2049,2.2106,2.2209,2.231,2.2209,2.2209,2.231,2.231,2.2237,0.0,0.0,0.0,2.2099,0.0,0.0,0.0,2.1872,2.198,0.0,0.0,0.0,0.0,0.0,0.0,0.0,0.0,0.0,0.0,0.0,0.0,0.0,0.0,0.0,0.0,0.0,2.2958,2.2349,2.231,2.231,2.231,2.231,2.231,2.231,2.231,2.2124,2.1752,2.0576,1.9816,1.9452,1.8335,1.7811,1.7777,1.7033,1.6902,1.7202,1.6458,1.6157,1.6086,1.5358,1.4614,1.3904,1.3549,1.3396,1.3447,1.3819,1.3954,1.4056,1.48,1.5528,1.6224,1.658,1.7202,1.7811,1.7811,1.7811,1.7811,1.7811,1.7811,1.7811,1.7811,1.7811,1.7811,1.7811,1.7811,1.7811,1.7811,1.7811,1.7811,1.7811,1.7811,1.7811,1.7811,1.7811,1.7811,1.7811,1.7811,1.7929,1.8302,1.8031,1.8386,1.9833,2.0002,2.0475,2.1651,2.209,2.231,2.231,2.231,2.231,2.231,2.231,2.231,2.231,2.2426,2.25,2.25,2.2686,2.2598,2.231,2.231,2.231,0.0,0.0,0.0,0.0,0.0,2.0979,0.0,0.0,0.0,2.1237,0.0,0.0,0.0,0.0,0.0,0.0,0.0,0.0,0.0,0.0,0.0,0.0,0.0,0.0,0.0,2.3087,2.2824,2.2338,2.231,2.231,2.231,2.231,2.231,2.231,2.231,2.2023,2.1414,2.0458,1.9697,1.9096,1.8234,1.7811,1.7794,1.7168,1.7236,1.7743,1.6542,1.6356,1.6817,1.5477,1.4851,1.4631,1.3735,1.3396,1.3396,1.3396,1.3768,1.4344,1.4596,1.5494,1.6529,1.6834,1.7304,1.7811,1.7811,1.7811,1.7811,1.7811,1.7811,1.7811,1.7811,1.7811,1.7811,1.7811,1.7811,1.7811,1.7811,1.7811,1.7811,1.7811,1.7856,1.7878,1.7811,1.7811,1.7811,1.7811,1.7811,1.8031,1.8606,1.8166,1.8295,1.9647,1.9917,2.0331,2.1109,2.187,2.231,2.231,2.231,2.231,2.231,2.231,2.2321,2.2388,2.2599,2.2721,2.2797,2.3069,2.2933,2.2388,2.2388,2.2349,0.0,0.0,0.0,0.0,1.8184,0.0,0.0,0.0,1.8042,1.8478,0.0,0.0,0.0,0.0,0.0,0.0,0.0,0.0,0.0,0.0,0.0,0.0,0.0,0.0,0.0,0.0,2.2377,2.231,2.231,2.231,2.231,2.231,2.231,2.231,2.231,2.226,2.2192,2.0728,1.9951,1.9849,1.8447,1.7811,1.7811,1.771,1.7726,1.7794,1.7603,1.7608,1.7608,1.6779,1.6052,1.5341,1.3938,1.3396,1.3396,1.3396,1.3447,1.3718,1.502,1.5578,1.5933,1.7253,1.7743,1.7811,1.7811,1.7811,1.7811,1.7811,1.7811,1.7811,1.7811,1.7811,1.7811,1.7811,1.7811,1.7811,1.7811,1.7811,1.7811,1.7811,1.7992,1.8078,1.7856,1.7811,1.7811,1.7811,1.7811,1.7845,1.7912,1.7862,1.8115,1.8944,1.9621,2.0331,2.1109,2.187,2.231,2.231,2.231,2.231,2.231,2.231,2.2398,2.266,2.2669,2.2848,2.3141,2.3165,2.3021,2.2643,2.2643,2.2527,0.0,0.0,0.0,0.0,0.0,0.0,0.0,0.0,1.6022,0.0,0.0,0.0,0.0,0.0,0.0,0.0,0.0,0.0,0.0,0.0,0.0,0.0,0.0,0.0,0.0,0.0,0.0,0.0,0.0,2.231,2.231,2.231,2.231,2.231,2.231,2.231,2.231,2.0762,2.0002,1.9985,1.8498,1.7811,1.7811,1.7811,1.7811,1.7811,1.7811,1.7811,1.7743,1.6999,1.6529,1.6106,1.4614,1.3768,1.3447,1.387,1.431,1.4836,1.5886,1.6509,1.6915,1.7101,1.7151,1.7151,1.7151,1.7151,1.7253,1.7693,1.7811,1.7811,1.7811,1.7811,1.7811,1.7811,1.7811,1.7811,1.7811,1.7927,1.8035,1.8035,1.8249,1.8391,1.829,1.8142,1.7971,1.7833,1.8166,1.8437,1.8437,1.8802,1.927,1.9773,2.0477,2.1135,2.1683,2.2414,2.2747,2.2537,2.2388,2.231,2.231,2.2436,2.259,2.2695,2.3069,2.3346,2.35,2.3692,2.361,2.3277,2.3069,2.294,1.5213,0.0,0.0,0.0,0.0,0.0,0.0,0.0,0.0,0.0,0.0,0.0,0.0,0.0,0.0,0.0,0.0,0.0,0.0,0.0,0.0,0.0,0.0,0.0,0.0,0.0,0.0,0.0,2.2192,2.231,2.231,2.231,2.231,2.231,2.231,2.231,2.231,2.0991,2.0204,1.9985,1.8701,1.8014,1.7811,1.7811,1.7811,1.7811,1.7811,1.7811,1.7743,1.6999,1.658,1.6275,1.5003,1.4174,1.3768,1.431,1.4969,1.568,1.6224,1.6745,1.7117,1.6559,1.6546,1.6699,1.6699,1.6851,1.7101,1.7659,1.7811,1.7811,1.7811,1.7811,1.7811,1.7811,1.7811,1.7833,1.7883,1.8061,1.8229,1.829,1.8528,1.8697,1.8604,1.843,1.8208,1.7949,1.8535,1.8971,1.8917,1.961,2.0216,2.046,2.1231,2.185,2.2078,2.2787,2.3093,2.2848,2.2643,2.2561,2.2561,2.2712,2.2873,2.2972,2.3437,2.3753,2.3837,2.4074,2.4074,2.3816,2.3482,2.33,0.0,0.0,0.0,1.2986,0.0,0.0,0.0,0.0,1.2445,0.0,0.0,0.0,0.0,0.0,1.5927,1.6797,0.0,0.0,0.0,0.0,0.0,0.0,0.0,0.0,0.0,0.0,0.0,2.1254,2.1904,2.231,2.231,2.231,2.231,2.231,2.231,2.231,2.231,2.1532,2.0771,1.9985,1.9232,1.8488,1.7811,1.7811,1.7811,1.7811,1.7811,1.7811,1.7743,1.6999,1.6292,1.5561,1.48,1.4477,1.4461,1.4477,1.4969,1.5595,1.5629,1.5646,1.5663,1.5629,1.6123,1.6699,1.6699,1.7202,1.7777,1.7772,1.7811,1.7811,1.7811,1.7811,1.7811,1.7811,1.7811,1.7861,1.8125,1.8187,1.827,1.8528,1.8807,1.8914,1.8642,1.8585,1.8489,1.8229,1.8827,1.9183,1.8941,1.9825,2.0501,2.0501,2.1439,2.2078,2.21,2.2787,2.3189,2.3189,2.3165,2.3165,2.3165,2.3165,2.3346,2.3671,2.3692,2.3876,2.417,2.419,2.419,2.417,2.3837,2.3522,0.0,0.0,1.1684,1.1662,0.0,0.0,0.0,0.0,0.0,0.0,0.0,0.0,0.0,0.0,1.3791,1.4815,1.5494,1.6093,0.0,0.0,0.0,0.0,0.0,0.0,0.0,0.0,0.0,2.08,2.1454,2.184,0.0,2.184,2.184,2.184,2.184,2.2003,2.231,2.1566,2.0788,1.9985,1.9249,1.8504,1.7811,1.7811,1.7811,1.7811,1.7811,1.7523,1.705,1.68,1.6275,1.5528,1.48,1.5105,1.59,1.5409,1.568,1.6343,1.6343,1.6001,1.5511,1.5037,1.5375,1.5967,1.5967,1.6475,1.7168,1.7659,1.7811,1.7811,1.7811,1.7927,1.8061,1.8061,1.8208,1.8351,1.845,1.8604,1.8752,1.8861,1.9051,1.9164,1.9064,1.9064,1.911,1.9237,1.9879,2.035,2.0306,2.1457,2.2187,2.1911,2.264,2.3253,2.3476,2.3527,2.3522,2.3522,2.3305,2.3189,2.3189,2.3414,2.3588,2.3692,2.3917,2.4094,2.419,2.419,2.419,2.419,2.4229,2.4098,1.1255,1.1019,0.0,1.0764,1.0137,0.0,0.9518,0.0,0.0,0.0,0.0,0.0,0.0,0.0,0.0,1.2602,1.3796,1.4905,0.0,1.6632,0.0,0.0,0.0,0.0,0.0,0.0,2.0119,2.052,2.113,2.1512,0.0,0.0,2.1853,2.1853,2.1853,2.2003,2.231,2.1837,2.1059,1.9985,1.9536,1.8775,1.7811,1.7811,1.7811,1.7811,1.7811,1.754,1.7067,1.6817,1.6428,1.5917,1.5189,1.5629,1.6614,1.5866,1.59,1.6275,1.6001,1.5426,1.4733,1.4259,1.4783,1.5595,1.5595,1.6289,1.7185,1.7676,1.7811,1.7811,1.7811,1.7992,1.8187,1.8187,1.841,1.8641,1.8734,1.8878,1.9018,1.9084,1.9214,1.9305,1.9305,1.9305,1.9454,1.9882,2.0341,2.08,2.1309,2.2042,2.2632,2.2973,2.3272,2.3666,2.4152,2.3996,2.3876,2.3876,2.3671,2.3566,2.3566,2.3756,2.3876,2.3876,2.4094,2.419,2.419,2.419,2.419,2.419,2.441,2.4426]}]]